GFSGL_prec_cloud_003.txt.gz
Cloud_Cover
84 100 58 5 5 10 36 70 56 74 6 5 47 97 5 9 50 5 5 4 5 0 0 0 0 1 5 5 5 5 6 81 100 5 68 97 98 80 5 5 56 97 100
99 100 40 61 91 100 99 30 6 4 5 5 70 39 40 78 6 94 6 5 0 0 0 0 5 5 5 5 5 70 100 100 100 99 100 100 100 100 66 15 95 100 98
48 99 95 99 72 7 5 5 5 5 5 5 7 50 82 75 96 56 5 5 2 0 0 0 5 5 5 68 100 100 100 100 100 100 100 100 100 100 88 28 92 100 94
24 20 6 20 5 5 5 5 28 52 18 5 48 80 42 59 17 9 11 5 3 0 1 5 5 35 76 100 100 100 100 100 100 100 100 100 100 100 100 90 100 54 91
5 5 5 5 26 34 56 96 100 50 25 5 53 5 14 70 91 29 5 5 5 5 5 5 5 88 82 100 100 100 100 100 100 100 100 100 100 100 100 100 100 100 90
10 8 15 46 97 100 100 100 61 52 5 5 7 7 99 100 99 7 63 5 0 0 1 5 5 5 57 96 98 98 100 100 100 100 100 100 100 100 100 100 100 100 94
67 85 99 100 100 100 98 93 64 4 5 5 5 5 27 17 72 100 10 1 1 5 2 3 5 23 65 100 100 94 99 100 98 100 100 100 100 100 100 100 100 100 100
100 100 100 100 97 86 40 22 4 0 3 5 84 18 65 7 23 2 4 0 0 5 5 20 78 100 100 100 100 100 100 100 100 100 100 100 100 100 100 100 100 100 98
100 100 100 100 72 56 10 0 0 0 5 5 5 49 6 5 5 5 0 4 5 5 25 89 100 100 100 100 100 100 100 100 100 97 51 76 97 62 93 100 100 100 100
100 90 100 78 26 5 5 5 5 0 3 5 5 5 5 5 5 5 3 5 5 5 5 18 100 100 100 99 100 100 100 100 100 100 100 100 100 100 74 84 100 100 100
83 89 97 16 37 5 2 5 5 5 5 3 5 3 5 5 5 4 5 5 33 28 5 5 71 97 76 82 96 100 100 100 100 100 100 100 100 100 100 100 100 100 100
78 65 40 100 8 0 0 5 25 5 5 5 5 8 5 5 5 0 5 5 5 26 5 5 46 15 16 70 91 98 89 99 100 100 100 100 100 100 100 100 100 100 98
63 56 99 7 5 0 5 60 98 96 87 8 74 11 54 5 5 0 4 5 5 5 5 5 5 5 5 67 84 98 96 97 100 100 100 100 100 100 100 100 100 100 100
89 94 25 38 5 5 6 74 78 90 72 43 5 5 5 5 5 5 5 5 5 5 5 5 4 5 5 5 5 24 71 100 100 100 100 100 100 100 100 100 100 100 100
89 29 68 100 85 23 25 97 95 70 30 5 5 5 5 5 5 5 5 78 90 44 5 5 5 5 5 5 19 59 80 92 100 100 100 100 100 100 100 100 100 100 100
90 5 74 100 100 100 100 88 67 58 8 5 5 5 5 5 5 5 5 12 5 5 5 5 15 5 5 5 5 15 85 98 100 100 100 100 100 100 100 100 100 100 100
5 5 33 96 100 100 100 75 12 72 96 82 5 5 5 5 5 5 5 5 7 5 74 61 77 99 33 5 5 5 6 99 100 100 100 100 100 100 100 100 100 100 100
93 70 69 83 67 42 80 87 95 100 98 55 17 5 5 5 5 5 8 74 89 72 16 59 58 86 92 22 5 5 5 8 60 98 100 100 100 100 100 100 100 100 100
100 100 90 91 100 91 28 9 86 99 94 93 52 22 5 44 16 27 92 98 94 96 99 79 58 57 82 100 85 32 22 5 5 46 94 100 100 100 100 100 100 100 100
100 74 83 78 100 98 40 64 82 66 58 51 33 50 20 25 5 41 61 78 88 70 16 80 39 20 72 81 100 89 17 16 5 7 57 100 100 100 100 100 100 100 100
39 70 94 100 96 97 100 53 75 67 68 40 45 16 38 67 94 72 98 100 89 19 5 71 82 67 72 77 54 94 27 5 5 5 8 54 96 100 100 100 100 100 100
100 100 97 89 100 100 100 100 87 57 5 47 93 71 18 22 41 62 70 100 100 100 87 31 68 71 63 73 83 95 59 5 38 5 5 5 72 76 99 100 100 100 100
100 100 100 100 100 100 100 100 100 87 75 76 87 96 94 72 70 62 65 94 100 100 100 100 70 48 53 60 65 22 41 5 40 6 5 5 31 60 91 92 100 100 100
96 100 100 100 100 100 99 100 100 100 99 98 100 100 99 100 100 100 100 91 100 100 100 100 100 76 6 57 80 28 5 5 52 5 5 5 49 66 63 61 80 100 94
100 100 100 100 100 100 100 97 100 100 100 100 98 100 100 100 100 100 100 100 100 100 100 100 100 100 94 39 16 15 55 6 5 10 5 5 68 73 63 5 5 56 100
99 100 100 100 99 100 100 100 100 100 100 100 98 94 98 100 93 98 100 100 100 100 100 100 100 100 100 100 67 70 86 32 5 5 5 5 5 5 5 5 10 60 58

GFSGL_prec_cloud_006.txt.gz
Cloud_Cover
79 87 41 18 38 10 5 5 5 5 5 5 5 5 41 93 100 60 96 100 100 100 100 100 100 100 100 100 100 100 100 100 100 5 100 100 100 100 100 100 100 88 100
100 74 30 16 5 5 5 5 5 23 32 5 5 5 83 94 85 53 100 100 100 100 100 100 100 92 100 100 100 100 100 100 100 94 100 100 100 100 100 100 100 100 59
5 17 23 5 5 5 5 13 53 65 46 5 5 45 23 91 44 99 100 66 99 60 35 79 75 62 64 80 99 100 100 100 100 100 100 100 100 100 100 100 98 100 100
5 9 62 57 19 5 24 33 76 85 16 12 85 76 40 5 15 88 69 79 38 62 65 44 16 31 49 54 45 99 100 100 100 100 100 100 100 100 100 100 97 80 100
20 97 82 36 24 93 94 99 100 32 5 89 24 5 8 24 95 100 100 99 97 37 5 4 2 4 2 46 46 100 100 100 100 100 100 100 100 100 100 100 100 100 100
74 100 93 42 93 78 100 100 71 7 13 92 96 52 94 53 8 6 74 90 42 5 0 0 0 5 42 6 82 89 43 100 100 100 100 100 100 100 100 100 100 100 100
100 100 46 76 99 100 100 71 19 50 27 87 95 64 52 69 5 5 1 0 4 0 0 0 5 11 94 100 100 99 100 100 96 99 100 100 100 100 100 100 100 100 100
100 98 89 100 100 100 98 22 17 5 16 78 98 28 20 5 4 3 5 5 0 0 1 5 5 64 100 75 100 100 100 100 100 100 100 100 100 100 100 100 100 100 100
100 100 100 100 100 99 51 55 5 61 40 100 27 5 5 5 5 5 5 5 5 5 5 5 5 25 50 59 100 100 100 100 100 100 99 98 50 34 26 95 100 100 100
100 100 100 100 99 70 42 7 5 59 29 3 0 4 5 5 5 5 5 5 21 5 5 2 3 17 45 84 95 100 100 100 100 100 100 100 100 100 72 90 100 100 100
100 100 86 94 82 66 14 20 5 76 78 5 5 5 5 4 5 5 5 4 5 5 5 5 5 9 18 19 16 94 80 92 100 100 100 100 100 100 100 100 100 100 100
94 97 100 87 65 60 96 7 49 48 95 57 55 5 5 16 5 5 0 4 4 18 33 44 22 5 5 5 5 10 70 62 100 100 100 100 100 100 100 100 100 100 100
100 100 100 100 100 99 72 26 94 87 27 5 5 80 96 100 99 15 0 1 5 5 51 10 5 5 5 2 2 5 17 81 100 100 100 100 100 100 100 100 99 100 100
100 100 100 100 100 96 51 81 94 93 90 10 83 98 96 100 100 100 98 100 98 92 97 37 9 5 9 18 45 44 72 34 94 100 100 100 100 100 100 100 100 100 100
100 100 100 100 54 94 80 84 92 96 81 99 99 96 48 80 100 62 40 73 86 78 5 98 100 100 98 99 93 79 67 10 84 99 100 100 100 100 100 100 100 100 100
100 100 100 100 100 100 100 100 92 38 12 5 5 5 5 5 5 5 5 5 5 5 80 100 100 100 100 100 100 100 100 35 42 96 100 100 100 100 100 100 100 100 100
100 100 100 100 100 100 100 100 86 94 5 5 34 95 14 5 5 5 5 5 6 62 100 100 100 100 100 100 100 77 16 74 5 69 100 100 100 100 100 100 100 100 100
100 100 100 100 100 100 100 100 99 96 95 87 56 76 62 5 5 5 7 63 95 100 86 98 100 100 100 100 100 100 70 9 74 5 37 100 100 100 100 100 100 100 100
100 100 100 100 100 65 76 95 100 84 100 100 100 93 94 52 5 5 32 89 100 100 100 100 100 100 100 100 100 100 100 100 22 24 78 92 100 100 100 100 100 100 100
100 100 100 100 100 100 85 99 100 100 100 100 87 94 95 100 79 54 83 75 79 99 100 100 100 100 100 100 100 100 100 100 100 8 6 64 100 100 100 100 100 100 100
97 100 25 79 94 59 100 100 98 100 100 100 86 57 5 44 72 99 94 98 88 92 99 100 100 100 100 100 100 100 100 100 100 72 5 5 69 99 78 100 100 100 100
71 100 95 92 97 99 89 91 100 100 100 97 89 81 90 64 87 99 80 98 100 93 77 95 100 100 100 100 100 100 100 100 100 100 98 6 30 100 96 76 88 100 89
100 100 100 100 98 99 97 100 96 93 100 100 100 100 100 100 99 96 100 100 100 100 99 99 96 100 100 98 98 96 100 100 100 100 96 55 91 100 100 100 53 61 100
81 93 88 47 76 100 97 98 100 100 100 100 100 100 100 100 95 100 100 100 100 100 100 100 100 100 87 100 100 96 97 92 97 96 39 6 74 99 100 100 98 36 61
97 100 100 100 84 100 100 100 99 100 98 100 100 100 100 100 100 100 100 100 100 100 100 100 100 100 100 100 100 100 94 56 39 85 98 14 71 98 100 100 94 100 72
100 100 98 63 78 100 100 100 100 100 100 100 100 100 100 100 100 100 100 100 100 100 100 100 100 100 100 100 100 100 100 80 49 28 77 77 100 100 100 100 83 89 100

GFSGL_prec_cloud_012.txt.gz
Cloud_Cover
8 5 5 62 85 91 97 100 94 5 5 5 5 5 14 82 87 6 14 36 69 24 99 95 28 34 100 5 3 5 5 5 5 5 2 4 2 0 0 0 0 0 1
5 5 41 88 100 100 45 59 5 5 5 8 6 5 81 69 92 5 3 5 18 44 5 61 49 6 68 5 5 4 0 0 0 4 0 0 0 4 5 5 0 4 5
5 77 90 82 100 82 100 65 5 8 86 50 5 5 92 16 5 5 8 92 64 99 57 30 4 51 5 3 0 0 0 0 3 5 5 5 5 5 5 5 5 5 5
5 84 100 98 100 100 41 76 40 58 81 60 35 25 57 75 6 20 59 90 49 28 23 5 5 5 3 0 0 0 0 3 5 5 5 5 5 5 5 28 5 3 3
56 100 100 100 93 100 90 63 80 100 94 65 91 94 98 97 100 98 100 100 92 3 4 5 5 2 0 0 0 3 5 5 5 5 5 5 5 5 5 11 49 23 5
75 100 100 99 100 67 100 95 100 82 100 98 100 100 100 100 100 100 100 100 100 5 4 2 0 0 5 5 5 5 5 5 5 50 6 7 5 69 98 90 14 11 66
61 100 100 96 98 100 100 100 100 100 100 100 100 100 100 100 100 100 100 100 3 5 5 4 2 5 5 5 0 0 0 3 31 99 100 96 99 99 36 6 5 5 5
97 100 90 100 95 100 100 100 100 100 99 100 100 100 100 100 100 100 100 20 2 4 5 2 5 5 5 0 0 0 2 3 5 97 81 5 5 5 5 5 5 5 5
97 92 100 100 100 100 100 100 100 100 100 100 100 100 100 100 100 100 13 100 3 5 5 5 5 5 0 0 0 4 5 0 5 5 5 5 5 49 88 94 20 92 52
100 100 100 100 100 100 100 100 100 100 100 100 100 100 100 100 100 100 99 5 5 5 5 5 5 5 5 4 5 5 5 5 2 3 5 13 5 56 100 100 100 100 97
100 100 100 100 100 100 100 100 100 100 100 100 100 100 100 100 100 56 5 4 5 5 5 5 50 18 5 5 5 5 4 5 2 8 5 5 53 90 5 5 62 99 97
89 100 100 100 100 100 100 100 100 100 100 100 100 99 100 100 65 71 38 5 2 5 5 5 5 5 3 5 4 3 5 5 7 93 5 55 73 33 5 5 66 90 100
100 100 100 100 100 100 100 100 100 100 100 100 100 100 100 11 82 86 5 5 5 5 5 5 5 5 5 5 6 69 59 5 73 5 5 5 100 51 10 5 61 76 100
100 100 100 100 100 100 100 100 100 100 100 100 85 72 100 99 97 6 5 5 12 5 5 77 52 5 6 5 5 38 78 90 21 61 72 5 85 94 33 69 80 64 58
100 100 100 100 100 100 100 100 100 100 100 100 100 67 44 100 84 21 5 13 76 50 52 29 5 5 42 78 24 65 60 17 14 74 5 5 8 72 67 21 67 100 100
100 100 100 100 100 100 100 100 100 100 100 70 16 7 96 100 98 18 84 61 21 36 5 5 5 5 5 36 5 5 52 46 64 5 14 73 29 12 78 100 95 100 100
100 100 100 100 100 100 92 6 5 27 88 74 58 5 72 85 90 79 75 95 5 6 12 21 5 5 10 66 45 29 98 5 5 11 87 7 95 52 17 90 94 100 100
83 100 86 10 5 10 31 18 19 88 44 11 80 97 100 100 100 99 70 99 67 19 27 47 26 36 14 30 21 39 17 5 5 37 43 60 100 98 44 63 98 88 100
2 1 5 5 5 5 23 82 99 94 64 57 86 72 92 99 100 100 99 92 98 100 77 62 70 94 67 47 44 44 65 75 27 6 8 94 100 98 94 93 69 100 100
5 5 19 13 9 80 100 100 95 94 92 93 96 90 99 100 81 89 100 100 100 100 99 59 42 57 71 89 90 78 96 98 99 81 57 56 99 90 6 100 88 71 100
35 100 67 6 81 86 100 100 100 97 46 52 95 98 100 100 100 99 98 100 100 100 100 98 100 96 100 100 100 64 61 51 90 99 57 51 91 69 11 98 100 81 63
92 14 5 7 36 91 92 99 100 100 100 79 74 90 100 100 100 100 100 100 100 100 100 100 97 98 95 100 100 100 100 98 27 42 73 22 10 5 80 100 100 99 36
32 77 100 100 58 67 81 77 100 100 100 77 84 72 100 100 100 99 100 100 100 100 100 100 100 98 100 100 99 100 75 98 100 39 42 90 59 10 83 95 61 98 73
62 14 64 62 63 89 100 100 100 100 100 88 100 100 99 97 100 100 100 100 100 100 100 100 100 100 100 100 100 100 100 100 96 100 27 25 94 39 25 15 77 86 54
55 84 89 76 100 100 100 100 100 100 79 100 100 99 100 100 100 100 100 100 100 100 100 100 100 100 100 100 100 100 100 100 99 92 100 59 63 76 60 57 34 35 6
100 98 100 100 100 100 100 100 100 100 100 100 100 100 100 100 100 100 100 100 100 100 100 100 100 100 100 100 100 100 100 100 100 100 90 100 100 59 64 56 54 28 5

GFSGL_prec_cloud_015.txt.gz
Cloud_Cover
5 15 17 22 97 75 62 100 81 99 77 100 83 13 35 94 97 99 86 88 94 32 75 92 100 100 100 88 37 37 87 60 5 0 0 0 0 0 0 0 0 0 0
92 5 13 98 100 98 77 100 100 100 100 100 60 100 92 99 100 100 82 59 42 99 100 100 100 100 100 100 57 0 0 0 0 0 0 0 0 0 0 0 0 0 0
5 40 56 96 100 100 99 100 94 100 99 100 100 97 91 86 100 91 69 100 100 100 100 100 100 100 100 87 3 0 0 0 0 2 0 0 0 0 0 0 0 0 4
9 0 3 95 100 100 100 98 90 84 99 100 100 100 100 100 100 100 100 86 100 98 95 58 98 100 40 4 0 0 0 0 0 0 0 0 0 0 3 5 33 5 5
5 22 70 100 66 87 100 100 82 62 94 100 82 100 100 100 100 100 100 100 100 100 100 7 83 84 22 0 0 0 0 2 5 4 5 5 5 5 70 77 65 5 0
22 96 100 97 97 85 76 87 100 100 100 100 100 100 100 100 100 100 100 100 100 100 100 19 100 59 0 0 0 0 5 1 5 5 5 89 98 34 64 5 5 5 5
80 100 92 29 23 11 84 100 100 100 100 100 100 98 97 100 100 100 100 100 100 100 33 100 48 5 0 1 0 0 0 0 1 3 16 51 8 66 59 5 4 5 33
96 100 100 89 96 92 100 100 100 100 100 100 100 100 100 100 100 100 100 100 100 52 25 5 1 4 5 5 0 0 0 0 0 3 22 3 3 48 84 62 25 12 19
18 89 82 100 100 100 100 100 100 100 100 100 100 100 100 100 100 100 100 100 56 86 100 4 0 5 5 5 4 4 4 0 0 1 0 4 5 5 46 100 87 100 69
90 100 99 75 100 100 100 100 100 100 100 100 100 100 100 100 100 100 98 60 100 65 2 0 0 0 5 5 5 5 5 2 4 2 1 3 5 5 24 86 85 100 98
100 100 100 100 100 100 100 100 100 100 100 100 100 100 100 100 100 100 88 17 5 5 5 5 5 5 5 5 5 5 5 5 5 5 5 4 5 5 5 10 98 100 100
84 100 100 100 100 100 100 100 100 100 100 100 100 100 100 100 100 100 6 0 5 5 5 5 5 5 5 3 5 5 5 5 5 5 18 5 5 38 5 5 5 5 98
100 100 100 100 100 100 100 100 100 100 100 100 100 100 100 83 10 5 5 5 5 5 5 5 5 5 5 5 5 5 64 13 5 69 5 5 5 8 38 5 5 5 26
100 100 93 100 100 100 100 100 100 100 100 100 100 59 73 12 8 5 5 5 5 5 5 5 5 5 5 5 5 5 5 5 5 9 8 6 8 5 8 28 33 5 58
100 100 100 100 100 100 99 89 54 38 46 18 2 24 94 100 74 12 14 45 54 5 5 64 51 42 35 11 5 5 33 52 98 12 96 12 5 5 5 30 85 41 80
99 62 26 10 5 4 2 0 5 5 33 19 5 5 6 25 59 80 89 100 100 9 76 81 60 51 20 7 35 7 31 62 92 82 36 40 5 53 5 5 96 97 79
5 5 3 0 0 0 0 5 5 6 5 8 13 5 5 5 40 95 91 70 98 92 26 5 34 10 21 6 17 53 45 45 25 17 12 5 7 7 18 5 50 100 90
8 2 0 0 0 1 5 24 92 38 10 5 5 5 5 5 12 49 86 100 99 88 95 100 74 70 63 24 7 34 42 48 49 39 30 7 53 60 59 13 5 70 84
5 5 5 10 18 64 76 78 100 100 84 5 5 10 9 5 27 93 99 95 73 85 100 100 100 78 100 93 75 68 92 82 51 73 61 64 62 56 7 29 17 5 95
5 10 52 100 100 99 100 100 100 93 89 35 5 5 37 58 92 66 100 100 99 97 100 100 100 100 99 86 92 99 90 93 92 68 50 83 63 54 5 12 51 82 19
5 11 7 34 88 100 94 68 71 76 30 6 100 12 30 91 96 100 100 93 100 100 100 100 100 100 100 68 25 31 88 100 100 58 54 10 66 55 5 5 56 79 75
69 48 5 5 5 7 6 78 95 100 100 96 82 100 100 100 74 100 75 100 89 100 100 100 100 100 100 100 100 89 67 68 96 100 95 25 39 36 44 31 75 67 64
5 25 82 100 100 93 86 61 79 74 84 100 94 92 100 100 99 92 53 82 100 100 100 100 100 100 100 100 100 99 100 76 100 100 93 93 84 52 32 49 63 67 65
99 100 98 94 99 98 100 100 100 89 63 100 100 100 100 100 100 99 100 100 100 100 100 100 100 100 100 100 100 100 92 100 100 100 100 100 94 64 44 48 36 37 99
100 80 87 100 100 100 100 100 100 100 100 100 100 100 100 100 100 100 100 100 100 100 100 100 100 100 100 100 100 100 100 100 94 100 100 100 100 100 99 74 48 58 69
98 61 66 100 100 100 100 100 100 100 100 100 100 100 100 100 100 100 100 96 98 100 100 100 100 100 100 100 100 100 100 100 100 100 100 100 88 88 91 90 100 88 57

GFSGL_prec_cloud_018.txt.gz
Cloud_Cover
4 9 17 95 100 100 100 100 100 79 32 93 68 99 93 100 100 75 95 67 90 93 100 100 100 100 100 100 100 100 100 99 4 0 0 0 0 0 0 0 0 0 0
5 5 49 86 100 62 78 84 73 98 70 97 99 100 95 100 100 97 54 59 36 66 63 70 100 100 100 100 100 100 96 14 0 0 0 0 0 0 0 0 0 0 4
7 75 100 100 78 51 90 76 38 17 77 76 99 96 99 100 100 99 80 48 77 100 100 100 100 100 99 100 96 99 81 0 0 5 0 0 0 0 0 0 4 5 2
83 52 100 43 98 100 100 49 42 26 17 70 98 100 100 100 100 100 100 59 58 87 54 96 99 95 46 10 1 0 0 0 0 5 3 4 3 1 5 5 29 5 2
32 46 24 100 100 100 100 100 17 8 80 94 100 100 88 80 100 100 100 100 100 100 100 100 100 5 5 4 0 0 0 4 5 5 5 5 5 5 20 5 29 5 0
25 9 100 100 100 100 100 99 50 23 99 100 100 85 100 100 100 100 100 100 100 100 100 100 87 12 5 6 0 0 0 2 5 5 5 5 6 59 5 5 6 52 91
5 33 100 100 100 100 94 64 68 96 100 100 100 100 97 100 100 100 100 100 100 100 100 5 5 5 0 0 0 0 0 0 0 5 5 26 36 3 86 77 93 86 77
5 56 100 100 100 96 90 94 100 100 100 100 100 100 100 100 100 100 100 100 100 65 5 5 5 1 0 0 4 1 0 0 0 0 4 3 4 5 89 99 98 98 75
19 60 42 50 70 100 93 100 100 100 100 100 100 100 100 100 100 100 100 100 100 43 8 47 0 0 0 0 5 5 2 0 0 0 2 5 5 5 62 100 63 91 85
57 70 20 100 100 100 100 100 100 100 100 100 100 100 100 100 100 100 100 100 19 5 5 0 0 0 0 2 5 5 6 3 2 3 1 4 5 3 5 33 6 100 100
98 100 100 100 100 100 100 100 100 99 100 100 100 100 100 100 79 18 39 71 5 5 5 5 5 0 0 6 42 5 5 3 5 5 5 5 5 5 3 5 5 79 88
100 100 100 100 100 100 100 100 93 84 100 100 100 100 28 5 5 9 5 5 5 5 5 5 5 5 5 17 68 40 5 5 6 52 5 5 35 6 1 5 5 5 8
100 100 100 100 100 100 100 100 99 100 77 14 8 11 3 5 66 95 95 19 5 5 5 4 5 5 5 28 72 68 5 5 18 63 5 5 96 12 5 5 5 5 5
100 100 100 100 100 100 100 76 30 5 4 5 5 5 4 5 80 100 100 100 53 5 5 16 5 5 5 26 53 52 5 5 5 19 67 82 91 5 5 5 20 59 64
100 100 100 100 100 98 58 90 5 3 1 5 5 5 17 14 5 35 100 100 100 82 100 95 73 72 8 10 16 19 6 5 44 59 99 100 78 46 5 5 9 85 80
100 100 100 100 100 84 82 10 4 0 0 32 93 100 98 6 5 5 7 100 100 100 100 78 40 30 25 8 37 35 31 5 8 20 68 100 34 59 57 5 10 30 93
100 100 100 100 98 65 5 3 4 23 70 49 96 55 5 5 5 5 5 8 100 100 100 96 84 84 55 50 63 62 43 5 5 5 22 77 21 54 63 43 18 17 17
100 100 97 99 45 15 30 43 66 95 100 98 59 5 82 80 99 15 5 84 100 99 95 97 72 93 54 57 82 66 59 50 55 31 88 95 64 70 64 61 57 75 16
89 47 28 10 26 47 72 90 81 91 92 91 91 35 85 100 95 99 100 90 100 100 100 100 92 99 100 100 100 87 57 76 75 79 100 93 80 69 70 60 63 39 54
28 10 5 5 5 5 5 12 12 39 94 100 100 94 30 81 53 81 100 100 100 99 100 100 100 100 100 100 100 100 100 100 86 100 87 90 71 91 67 24 59 68 54
5 6 46 92 98 99 99 100 100 94 92 78 14 82 83 91 90 100 78 100 100 100 100 100 100 100 100 100 100 100 100 100 100 100 98 100 94 79 16 23 51 66 71
97 100 100 98 69 100 100 99 100 100 100 100 91 19 19 100 100 100 100 100 100 100 100 99 86 100 100 100 100 100 100 100 100 91 83 93 100 100 56 23 61 75 67
100 47 30 79 100 100 100 100 100 100 100 100 100 100 89 35 100 92 80 100 99 100 100 100 100 100 100 100 100 100 100 100 100 98 100 99 87 98 100 48 68 78 53
100 6 23 98 100 100 100 100 100 99 100 100 100 100 100 100 100 100 100 100 100 98 93 100 100 100 100 100 100 100 100 100 100 100 100 100 98 82 99 88 59 60 58
85 76 18 96 100 100 100 100 100 100 100 100 100 100 100 100 100 100 100 100 100 100 90 100 100 100 100 100 100 100 100 100 100 100 100 100 100 100 73 95 99 59 67
7 95 62 35 100 100 100 100 100 100 100 100 100 100 100 100 100 100 100 100 100 100 100 100 100 100 100 100 100 100 100 100 100 100 100 100 100 100 100 90 73 70 52

GFSGL_prec_cloud_021.txt.gz
Cloud_Cover
6 18 6 13 61 85 99 64 100 100 100 100 100 100 100 100 100 99 63 33 89 95 69 100 100 100 98 98 100 95 100 43 4 0 0 0 0 0 0 0 0 0 0
35 5 12 78 17 89 73 100 100 100 100 100 100 100 100 100 100 100 100 99 18 33 45 63 86 100 100 99 100 100 76 5 0 0 0 0 0 0 0 0 0 0 0
6 100 100 73 49 66 100 100 100 100 100 100 100 100 94 98 100 95 75 23 5 8 58 100 100 97 51 88 99 98 32 0 0 5 3 0 0 0 0 0 0 0 5
99 96 100 64 66 85 98 100 100 100 100 100 100 100 100 78 89 90 78 87 84 61 72 90 88 98 100 100 89 2 0 0 0 5 3 1 4 1 5 5 3 5 4
76 100 66 69 16 56 99 100 100 100 100 100 100 100 100 100 99 68 99 100 100 100 99 100 100 100 100 7 5 0 0 4 5 5 5 5 5 5 5 2 5 5 5
100 36 21 5 40 100 100 100 100 100 100 100 100 100 100 100 92 100 90 93 100 98 100 100 100 85 5 5 5 0 2 5 5 5 5 5 5 5 5 5 47 99 96
10 5 38 5 45 44 85 92 100 100 100 100 100 100 100 100 100 100 100 100 100 100 100 99 65 16 5 5 0 0 3 5 5 5 5 5 5 5 13 72 91 100 100
5 5 5 97 100 100 98 99 84 100 100 100 100 100 100 100 100 100 100 100 100 97 52 26 5 5 5 0 0 0 3 5 5 5 2 5 5 5 11 49 97 84 7
97 83 14 66 95 100 100 100 100 100 100 100 100 100 100 100 99 96 83 62 17 10 8 57 5 4 0 0 0 1 0 4 5 5 1 5 5 5 5 5 5 91 94
78 12 87 100 100 97 100 100 100 100 100 100 100 100 100 100 100 78 2 5 5 16 48 5 4 0 0 0 5 5 5 5 5 5 5 1 4 5 5 5 5 100 100
83 100 85 100 100 100 100 100 100 100 100 100 100 100 100 100 88 2 1 5 9 24 5 5 5 0 0 2 4 5 5 5 5 5 5 5 5 5 5 5 5 5 92
85 91 100 100 100 100 100 100 100 100 100 100 100 100 100 69 5 2 2 8 99 90 26 5 5 5 4 5 5 5 5 5 54 72 80 14 5 5 5 5 5 5 26
96 97 92 100 100 100 100 100 98 100 100 100 100 100 41 5 5 30 98 100 100 97 94 87 94 50 7 5 5 5 5 5 67 92 56 15 18 5 8 5 5 5 5
74 54 66 45 60 77 89 96 100 100 100 100 76 4 2 5 93 100 100 92 100 100 100 100 100 100 65 90 42 5 5 5 38 51 58 59 15 23 24 6 14 5 41
79 17 5 5 5 84 100 100 100 100 89 23 4 0 20 63 100 100 88 8 11 37 100 92 100 100 78 99 100 23 24 28 82 64 74 35 5 78 11 19 36 23 81
5 5 5 5 81 100 100 100 100 72 7 5 5 27 29 58 5 5 10 56 68 63 98 94 89 98 100 100 100 99 100 56 5 41 48 5 19 78 5 30 61 76 80
44 74 99 100 100 100 100 92 95 22 5 5 5 6 88 55 99 100 48 88 90 100 98 81 71 81 94 100 100 100 100 90 5 37 47 9 63 78 75 63 62 70 59
98 100 100 100 100 100 49 5 22 74 94 69 88 98 55 27 5 71 90 98 100 95 98 74 100 89 98 100 100 100 100 100 90 47 43 35 91 96 94 70 62 76 72
100 100 100 93 44 5 5 8 68 82 94 82 42 13 5 36 74 66 88 100 100 100 100 100 82 95 100 100 100 100 100 100 99 72 58 60 35 100 86 68 74 59 72
100 74 42 69 66 22 74 100 100 100 98 100 100 100 76 74 82 69 27 100 87 100 100 100 98 100 98 100 100 100 100 100 100 99 66 67 56 98 95 75 79 69 63
100 88 64 73 73 100 100 100 100 100 100 100 100 98 97 100 100 100 85 100 100 79 100 100 100 100 100 100 100 100 100 100 100 100 91 60 58 92 96 99 61 5 62
98 5 5 71 100 100 100 100 100 100 100 100 100 99 86 100 100 100 100 100 100 100 100 97 83 96 100 99 88 100 100 100 100 100 92 97 76 76 98 81 94 74 79
98 24 23 30 88 90 100 100 100 100 100 100 100 100 100 100 100 100 100 100 100 100 100 100 100 100 100 88 100 100 100 100 100 100 100 100 100 89 98 92 84 97 85
85 56 6 5 87 100 100 100 100 100 100 100 100 100 100 100 100 100 100 100 100 100 100 100 100 100 97 100 100 100 100 100 100 100 100 100 100 100 100 88 99 70 72
61 96 63 50 85 99 100 100 100 100 100 100 100 100 100 100 100 100 100 100 100 100 100 100 100 100 99 100 100 100 100 100 100 100 100 100 100 100 100 87 92 95 73
51 44 100 63 55 45 75 100 100 100 100 100 100 100 100 100 100 100 100 100 100 100 100 100 100 100 100 100 100 100 100 100 100 100 100 100 100 100 100 100 98 93 86

GFSGL_prec_cloud_024.txt.gz
Cloud_Cover
37 100 100 100 76 89 97 100 69 89 100 100 100 100 100 100 100 100 98 76 40 15 5 5 24 50 13 5 52 9 2 4 2 0 0 0 0 0 0 0 0 0 0
100 91 90 78 99 100 97 100 100 100 100 100 100 81 100 100 100 100 98 86 12 14 46 100 61 5 79 34 5 4 0 0 0 0 0 0 0 0 0 0 0 0 0
88 21 19 98 100 95 100 100 100 92 100 100 62 85 100 99 100 100 90 74 79 70 53 8 16 22 23 7 19 6 5 5 5 5 0 0 0 0 0 1 1 0 0
3 5 5 8 6 44 95 100 98 86 92 87 100 92 100 95 100 100 100 100 98 97 94 78 61 68 20 98 38 5 5 5 3 4 5 3 0 0 1 5 2 5 5
5 5 5 11 25 100 88 97 97 90 91 100 80 70 99 100 100 99 100 100 100 100 85 89 75 42 82 88 83 5 5 4 4 5 0 0 3 2 5 4 5 11 6
41 60 97 66 56 100 89 100 100 100 100 100 100 97 100 100 100 100 100 100 100 79 100 66 72 26 73 26 5 5 2 5 4 5 1 3 2 5 5 5 59 90 95
83 60 51 66 47 94 87 94 100 100 100 100 100 100 100 100 100 100 100 100 100 100 32 33 63 74 16 5 5 2 2 0 0 5 5 2 5 5 10 46 62 92 83
90 93 32 8 49 84 100 100 100 99 94 100 100 100 100 100 100 100 100 100 100 38 5 23 95 87 83 5 11 5 2 0 0 5 1 0 2 5 67 78 9 5 22
16 6 50 61 94 100 100 100 100 100 100 100 100 100 100 100 100 100 100 100 21 5 2 6 40 96 89 50 7 5 5 0 0 2 2 4 5 12 5 5 5 47 87
99 94 76 100 100 100 100 100 100 100 100 100 100 100 100 100 100 100 100 30 13 5 5 24 94 99 100 100 9 24 5 1 2 1 0 5 5 5 5 5 5 53 93
5 5 15 63 87 94 78 100 100 100 99 100 85 100 100 100 100 100 100 54 6 5 6 100 100 84 97 100 40 6 5 3 5 5 5 5 5 5 5 5 5 5 71
23 38 88 98 100 100 100 100 78 88 100 100 58 98 100 100 100 100 69 6 6 82 100 100 100 100 98 100 100 20 5 5 6 8 66 78 5 5 5 5 5 5 5
100 100 100 100 100 96 76 62 71 99 65 56 93 100 100 100 100 52 5 12 100 100 100 100 100 100 100 100 97 97 82 54 8 98 84 6 5 5 5 5 5 5 5
100 88 92 68 25 5 5 5 10 85 98 99 100 73 31 7 18 5 5 62 64 80 100 100 100 100 83 95 100 97 50 91 26 98 100 49 5 13 5 5 5 5 12
74 24 5 5 5 5 5 10 34 90 99 57 27 9 44 7 5 35 12 8 21 54 86 95 58 34 76 91 100 100 100 100 85 100 100 94 19 40 5 5 5 5 63
12 5 9 10 14 5 5 43 95 99 88 6 6 75 61 92 84 78 97 100 100 100 100 89 98 100 96 100 99 100 100 100 97 97 100 100 51 48 80 32 5 12 49
5 55 68 50 42 52 47 68 91 94 53 39 5 10 5 5 5 6 37 99 100 100 100 100 100 100 100 100 88 82 92 100 100 89 100 100 68 45 60 82 8 43 5
52 68 94 97 94 88 63 81 93 98 95 72 63 42 38 92 78 36 5 37 61 100 100 100 93 83 100 100 89 74 100 100 100 100 100 100 100 62 45 5 56 50 24
100 100 100 100 99 82 97 98 88 99 100 100 74 18 40 87 52 71 87 100 100 100 92 100 85 100 100 98 96 91 100 100 100 100 100 100 100 96 54 12 73 54 47
100 100 99 100 100 100 100 99 100 100 100 100 100 100 100 94 86 99 95 91 100 100 100 99 78 100 100 100 100 100 100 100 100 100 100 100 100 100 93 27 72 83 33
100 100 100 100 100 100 92 100 100 100 100 100 100 100 100 100 100 100 100 100 100 100 100 100 97 99 100 100 100 100 100 100 100 100 100 100 94 100 74 50 79 87 9
100 100 100 97 99 100 75 94 100 100 100 100 100 99 99 100 100 100 100 100 100 100 100 100 100 91 100 100 100 100 100 98 100 100 100 100 100 100 64 91 82 59 36
95 100 100 100 92 46 41 58 100 100 100 100 100 100 100 100 100 100 100 100 100 100 100 100 100 100 100 100 100 100 100 92 100 100 100 100 100 100 90 99 75 75 70
100 100 100 44 13 5 28 59 88 35 92 100 100 100 100 100 100 100 100 100 100 100 100 100 100 100 100 100 100 100 100 100 99 100 100 100 100 100 100 94 99 78 83
98 93 74 27 98 79 57 38 82 8 77 92 100 100 100 100 100 100 100 100 100 100 100 100 100 100 100 100 100 100 100 100 100 100 100 100 100 100 100 100 100 99 96
91 100 98 47 16 29 16 64 88 70 71 96 96 100 100 100 100 100 100 100 100 100 100 100 100 100 100 100 100 100 100 100 100 100 100 100 100 100 100 92 100 100 100

GFSGL_prec_cloud_027.txt.gz
Cloud_Cover
14 63 100 100 100 100 100 91 100 100 100 100 99 100 99 60 94 65 70 100 100 94 100 98 3 5 32 4 5 14 52 5 5 5 4 2 0 0 0 0 0 0 0
100 100 100 100 100 100 100 99 100 100 100 100 100 34 44 96 87 100 89 100 100 100 52 71 42 5 5 59 100 96 5 5 5 5 5 5 2 4 0 0 0 0 0
100 100 100 86 63 53 60 96 97 97 100 100 100 100 100 89 97 100 100 100 76 59 100 98 63 19 100 100 98 15 5 5 5 5 5 5 5 5 0 0 0 0 0
74 80 49 5 8 50 57 20 42 73 99 100 100 100 100 100 100 100 100 100 97 98 99 96 97 100 100 99 21 5 52 5 5 5 5 5 4 2 0 0 0 0 3
5 5 5 5 7 16 6 58 100 100 100 100 100 100 98 100 100 100 99 100 100 100 100 100 100 100 100 47 69 81 5 5 5 5 5 5 1 0 0 3 5 5 5
5 5 5 5 5 72 100 100 100 100 100 100 100 93 98 98 100 100 100 74 100 100 100 100 100 100 67 97 30 99 5 5 5 5 5 5 0 0 3 5 79 88 18
5 6 41 51 39 51 100 100 100 100 100 100 100 100 100 100 100 99 100 95 100 100 100 100 99 59 8 100 90 53 5 5 5 5 5 5 5 0 5 62 98 99 64
26 39 23 10 80 76 96 95 100 97 100 100 100 100 100 100 100 100 100 100 97 100 100 100 49 9 5 93 92 88 11 56 5 11 5 5 4 0 6 96 100 100 80
27 32 54 90 97 76 89 99 100 100 100 100 100 100 100 100 100 96 86 96 100 100 100 79 11 4 5 100 99 99 29 97 14 89 5 5 1 3 6 89 100 100 84
21 69 82 92 98 100 90 64 100 100 100 100 100 100 100 96 13 93 100 100 100 100 67 60 5 22 100 100 98 100 96 99 100 70 5 3 3 5 5 59 99 100 100
86 90 88 100 99 54 56 100 100 100 99 79 55 58 61 78 100 100 100 100 100 81 81 30 5 77 100 100 99 99 100 100 75 5 5 1 5 17 63 78 97 100 94
80 81 90 94 100 91 96 55 27 58 70 68 36 70 91 100 100 100 100 100 93 96 17 3 5 23 98 100 100 100 100 84 66 91 64 5 22 42 6 80 77 96 32
6 12 95 100 100 100 92 59 70 70 63 14 31 76 55 86 100 100 97 91 78 8 5 5 5 50 100 78 97 70 100 97 90 94 77 87 56 6 95 36 5 89 5
61 100 98 100 100 91 69 50 73 60 36 27 43 38 58 93 97 100 100 74 59 70 93 65 62 78 98 86 84 98 100 100 100 100 100 100 100 69 100 81 95 98 57
98 100 100 100 85 75 56 44 46 23 44 49 25 57 87 20 72 67 66 56 71 98 100 100 100 100 97 40 53 80 100 100 100 100 100 100 100 100 100 91 88 87 88
100 100 100 90 64 24 18 31 58 45 8 11 5 6 39 80 64 58 75 97 90 17 17 44 100 100 100 99 100 100 100 100 100 100 100 100 100 100 100 100 91 100 98
78 69 77 46 43 53 53 56 37 32 28 86 67 72 78 100 100 96 95 34 6 57 99 84 12 67 85 100 100 100 100 100 100 100 100 100 100 100 100 100 100 100 99
65 17 5 5 9 13 6 5 5 5 5 24 61 47 89 100 99 100 100 86 49 36 92 98 99 72 100 100 100 94 100 100 100 100 100 100 100 100 100 100 100 97 99
76 72 52 5 5 5 5 5 5 5 25 20 5 6 50 95 93 99 100 100 100 100 100 100 99 75 100 94 100 99 100 100 100 100 100 100 100 100 100 100 100 64 76
71 51 6 5 18 20 19 5 5 23 38 52 67 86 89 86 100 100 100 100 100 100 100 100 100 100 100 99 87 100 100 100 100 100 100 100 100 100 100 100 100 99 84
80 17 11 48 78 98 23 12 64 87 80 90 95 100 90 100 100 100 100 100 100 100 100 100 100 100 100 100 100 100 100 100 100 100 100 100 100 100 100 100 100 89 99
100 86 47 77 97 45 6 5 90 86 86 98 99 90 87 100 100 100 100 100 100 100 100 100 100 100 100 100 100 100 100 100 100 100 100 100 100 100 100 100 100 94 98
85 65 78 90 44 27 23 29 87 100 93 100 100 98 100 100 100 100 100 100 100 100 100 100 100 100 100 100 100 100 100 100 100 100 100 100 100 100 100 100 100 100 100
93 100 100 100 72 65 96 100 100 85 59 90 97 100 100 100 100 100 100 100 100 100 100 100 100 100 100 100 100 100 100 100 100 100 94 100 100 100 100 100 100 100 100
100 99 94 82 100 100 100 100 62 79 80 98 100 100 100 100 100 100 100 100 100 100 100 100 100 100 100 100 100 100 100 100 100 100 100 100 100 100 100 100 100 100 95
81 93 100 100 100 100 96 75 68 74 86 98 100 100 100 100 100 100 100 100 100 100 100 100 100 100 100 100 100 100 100 100 100 100 100 100 100 100 100 100 100 100 100

GFSGL_prec_cloud_030.txt.gz
Cloud_Cover
100 48 86 100 99 100 100 100 100 100 100 100 100 100 100 100 100 100 100 100 100 100 100 100 100 100 100 67 34 32 68 93 93 39 72 77 91 79 5 5 1 0 0
100 19 62 100 100 100 100 100 100 100 100 100 100 100 100 100 100 100 100 94 100 100 100 100 100 94 100 99 95 100 100 100 100 67 77 34 81 54 5 5 0 0 0
5 4 46 97 100 100 100 100 100 100 100 100 100 100 100 100 100 99 100 100 100 98 97 98 99 100 100 100 100 100 100 100 100 100 57 75 52 5 5 5 0 0 0
34 5 21 56 78 92 97 100 100 91 100 100 100 100 100 100 97 86 89 100 100 87 100 100 97 90 82 100 100 100 100 100 100 100 79 70 12 5 5 5 0 0 0
38 5 9 39 51 50 52 70 74 94 100 100 100 100 100 100 100 100 100 100 100 100 100 100 98 98 100 100 100 100 100 100 100 91 95 61 5 5 5 4 0 0 2
20 28 5 5 5 5 5 12 99 100 100 100 100 100 100 100 100 100 100 100 100 100 100 100 100 100 100 100 100 56 89 100 100 100 100 100 9 5 10 4 2 5 3
77 63 30 25 10 5 29 59 55 95 100 100 100 100 100 98 91 100 100 100 100 100 100 100 100 100 100 100 49 5 53 100 42 100 100 100 11 66 49 5 5 5 5
48 71 54 14 5 6 10 70 100 100 98 84 78 98 100 100 97 100 100 100 100 98 100 100 100 98 81 14 32 43 11 84 100 100 100 100 95 100 6 4 5 29 37
28 40 44 63 46 45 98 93 70 30 82 94 100 100 92 100 98 100 100 74 96 100 99 100 87 10 5 9 14 40 100 100 100 92 100 100 100 20 5 5 5 78 93
100 88 56 26 82 88 67 100 100 100 100 100 100 100 100 96 66 100 100 97 72 54 62 7 5 5 6 6 5 8 86 88 81 8 70 98 42 8 5 5 26 94 100
33 54 76 85 100 100 100 100 100 100 80 88 100 99 85 92 100 100 89 46 15 31 5 5 5 5 5 5 4 16 7 54 96 94 64 43 69 9 10 59 95 100 100
96 100 100 81 73 79 61 33 16 79 100 80 69 72 78 100 98 92 95 78 82 92 93 78 73 57 25 5 16 100 86 93 100 100 83 97 71 45 60 26 70 84 93
73 67 56 61 58 11 33 58 18 60 62 55 32 88 35 9 5 7 63 42 12 14 13 75 100 96 94 85 9 43 100 100 99 98 84 93 100 100 100 95 88 85 87
14 16 9 5 11 5 5 7 16 70 57 15 8 5 5 5 6 91 59 8 6 8 6 5 5 5 54 100 100 95 55 73 96 85 100 100 100 100 100 100 100 100 100
5 5 5 5 7 30 40 27 34 10 5 16 12 5 8 23 78 92 99 86 89 56 66 7 30 31 23 7 80 79 100 100 100 95 100 100 100 100 100 100 100 100 100
5 6 18 28 63 59 11 7 54 5 5 5 5 37 32 90 92 93 100 100 92 76 21 38 76 95 100 98 13 50 100 100 100 100 100 100 100 100 100 100 100 100 100
7 5 5 5 12 5 19 26 5 5 5 5 8 25 87 96 85 81 99 89 48 79 100 100 100 100 100 98 100 56 100 96 65 100 100 100 100 100 100 100 100 100 100
8 5 5 5 7 5 5 5 5 5 5 5 5 5 5 65 58 88 99 71 80 100 100 100 100 100 100 100 99 76 100 80 100 100 100 100 100 100 100 100 100 100 100
66 25 5 41 5 5 5 5 5 5 5 5 5 7 24 18 90 100 100 100 100 100 100 100 100 100 100 100 100 99 81 100 99 100 100 100 100 100 99 100 100 100 100
84 62 48 8 5 6 5 5 5 10 5 22 10 86 70 42 99 100 100 100 100 100 100 100 100 100 100 100 100 100 99 99 98 100 100 100 100 100 100 100 100 100 100
85 94 63 50 48 41 77 100 79 38 73 54 74 100 58 99 100 100 100 100 100 100 100 100 100 100 100 100 100 100 100 100 100 100 100 100 100 100 100 100 100 100 100
100 100 100 100 100 100 100 99 88 96 87 79 97 100 100 100 100 100 100 100 100 100 100 100 100 100 100 100 100 100 100 100 100 100 100 100 99 100 100 100 100 100 100
100 100 100 100 100 100 100 100 100 100 100 100 100 100 100 100 100 100 100 100 100 100 100 100 100 100 100 100 100 100 100 100 100 100 100 100 100 100 100 100 100 100 100
100 100 100 100 100 100 100 100 100 97 100 100 100 100 100 100 100 100 100 100 100 100 100 100 100 100 100 100 100 100 100 100 100 100 100 100 100 100 100 100 100 100 100
100 100 100 100 100 100 100 100 100 100 100 100 100 100 100 100 100 100 100 100 100 100 100 100 100 100 100 100 100 100 100 100 100 100 100 100 100 100 100 100 100 100 100
100 100 100 100 100 100 100 100 100 100 100 100 100 100 100 100 100 100 100 100 100 100 100 100 100 100 100 100 100 100 100 100 100 100 100 100 100 100 100 100 100 100 100

GFSGL_prec_cloud_033.txt.gz
Cloud_Cover
41 80 98 97 100 100 100 100 99 100 100 100 100 100 100 100 100 100 100 100 100 100 83 100 100 100 72 100 100 100 95 100 61 88 100 98 92 70 21 93 60 5 4
52 46 100 100 100 100 100 100 100 100 100 100 100 100 100 100 100 100 100 100 100 100 100 100 99 80 99 99 97 100 100 99 83 76 98 84 49 25 6 6 5 5 0
26 71 100 100 100 100 100 100 100 100 100 100 100 100 100 100 100 100 100 100 100 100 100 100 83 100 97 99 100 95 98 99 98 98 44 84 79 24 40 48 17 5 1
56 39 76 100 100 100 100 100 100 100 100 100 100 100 100 100 100 100 100 80 100 100 100 100 100 100 100 100 100 100 100 100 98 94 80 82 100 59 81 31 5 5 4
26 47 94 100 100 100 100 100 100 100 99 79 100 100 100 100 100 100 100 100 100 100 100 100 100 100 100 100 100 100 100 99 78 85 12 42 80 100 100 69 20 5 80
5 6 5 13 14 50 51 41 48 59 81 100 93 100 89 100 100 100 100 97 93 100 100 100 100 100 100 100 100 100 99 66 58 70 5 13 57 8 91 91 66 87 76
9 5 5 5 57 84 87 87 81 82 50 100 100 100 98 100 100 88 99 100 100 100 100 100 99 100 100 100 100 11 39 93 19 14 5 9 66 55 83 65 86 86 6
5 5 5 5 5 5 5 5 10 68 98 98 100 100 98 95 98 74 100 100 100 100 81 91 51 5 14 57 34 54 56 7 66 15 5 5 90 100 6 5 5 25 28
5 23 99 98 100 100 100 100 99 96 92 100 100 80 46 71 91 99 100 100 77 42 6 5 5 5 36 55 21 7 6 12 5 5 5 6 84 100 99 6 4 5 15
70 68 34 19 49 84 80 100 100 98 86 98 80 93 97 37 13 35 38 28 6 6 13 5 5 7 5 8 46 37 5 5 5 49 7 58 5 4 3 5 5 5 5
5 5 19 44 95 99 83 91 98 96 90 65 52 31 18 30 28 32 28 42 95 99 100 83 34 48 65 68 73 100 71 5 7 100 100 100 51 5 40 61 77 91 82
23 48 83 96 100 94 72 67 90 98 82 56 80 18 14 34 92 78 39 24 23 8 5 5 5 5 5 5 5 48 99 80 86 87 100 100 100 100 96 65 16 5 33
100 100 99 93 99 100 100 100 100 70 38 15 5 5 5 5 5 51 69 16 5 5 5 5 2 5 5 18 2 0 25 100 100 99 100 78 100 100 100 100 95 98 99
98 91 77 65 73 85 100 99 90 46 7 5 6 5 5 44 63 42 5 5 5 5 5 5 5 5 19 48 12 14 14 29 99 100 100 100 100 100 99 100 100 100 99
51 46 55 99 96 71 35 17 5 5 11 44 23 5 31 16 51 55 22 7 17 24 37 5 20 90 17 11 5 37 82 89 56 94 100 100 100 100 98 100 100 100 96
39 90 63 7 17 28 6 5 17 57 60 34 5 5 5 35 5 43 74 74 59 70 59 72 65 76 89 98 99 94 63 90 84 100 100 100 100 100 100 100 100 100 100
47 11 64 35 13 5 58 83 77 40 71 44 30 5 5 5 81 70 80 58 5 54 100 100 100 100 100 100 100 100 99 80 87 100 100 100 100 100 100 100 100 100 100
81 81 73 74 81 77 80 86 75 68 48 23 32 5 47 61 50 92 87 40 90 100 100 100 100 100 100 100 100 100 100 99 95 96 100 100 100 100 100 100 100 100 100
100 97 96 100 100 97 94 99 98 92 77 65 95 100 100 100 100 93 96 100 100 100 100 100 100 100 100 100 100 100 100 100 100 100 100 100 100 100 100 100 100 91 100
100 100 100 99 100 100 100 97 100 100 100 100 100 100 100 100 95 100 100 100 100 100 100 100 100 100 100 100 100 100 100 100 100 100 100 100 100 84 100 100 100 100 100
100 100 100 100 100 100 100 100 100 100 100 100 100 100 100 96 100 100 100 100 100 100 100 100 100 100 100 100 100 100 100 100 100 100 100 100 100 100 100 100 100 100 100
100 100 100 100 100 100 100 100 100 100 100 100 100 100 100 100 100 100 100 100 100 100 100 100 100 100 100 100 100 100 100 100 100 100 100 100 100 100 100 100 100 100 100
100 100 100 100 100 100 100 100 100 100 100 100 100 100 100 100 100 100 100 100 100 100 100 100 100 100 100 100 100 100 100 100 100 100 100 100 100 100 100 100 100 100 100
100 100 100 100 100 100 100 100 100 100 100 100 100 100 100 100 100 100 100 100 100 100 100 100 100 100 100 100 100 100 100 100 100 100 100 100 100 100 100 100 100 100 100
100 100 100 100 100 100 100 100 100 100 100 100 100 100 100 100 100 100 100 100 100 100 100 100 100 100 100 100 100 100 100 100 100 100 100 100 100 100 100 100 100 100 100
100 100 100 100 100 100 100 100 100 100 100 100 100 100 100 100 100 100 100 100 100 100 100 100 100 100 100 100 100 100 100 100 100 100 100 100 100 100 100 100 100 100 100

GFSGL_prec_cloud_036.txt.gz
Cloud_Cover
5 86 100 88 100 100 100 99 100 100 100 100 100 100 100 100 100 100 100 100 100 100 100 100 100 100 97 76 99 86 90 97 52 76 5 46 64 100 81 19 5 5 5
79 100 100 96 98 100 100 100 100 100 100 100 100 100 100 100 100 100 100 100 100 100 100 100 100 81 76 99 100 100 83 66 75 74 12 82 22 19 26 16 36 5 5
69 55 100 89 41 100 71 100 100 100 100 100 100 100 100 100 100 100 100 100 100 100 100 100 100 100 78 89 56 77 100 100 100 95 13 18 8 88 99 5 5 5 5
87 81 8 81 88 39 100 100 100 100 100 100 100 100 100 100 100 100 100 100 100 100 99 100 99 99 91 80 49 98 100 100 100 100 79 59 81 99 100 72 5 5 5
19 4 11 7 14 100 100 100 100 100 100 100 100 100 100 100 100 100 92 100 100 100 99 83 92 100 80 80 84 82 100 100 94 87 87 93 39 75 100 100 86 20 4
4 2 29 99 100 100 100 100 100 100 100 28 9 10 78 66 100 65 100 100 86 68 52 44 100 100 56 20 13 6 34 58 10 5 5 5 5 72 100 100 100 63 5
1 3 4 3 4 5 12 24 65 61 9 5 28 91 81 89 86 72 62 88 31 11 63 100 100 35 5 5 7 71 63 62 67 32 58 5 15 25 42 100 90 65 47
66 59 86 53 5 5 5 5 5 9 38 40 13 11 5 5 8 46 54 93 82 95 100 41 13 34 38 45 44 6 5 5 5 5 5 5 34 21 5 100 100 100 100
35 5 5 5 5 5 5 5 5 5 10 40 48 72 100 100 100 100 91 100 100 100 58 12 9 8 56 39 5 47 39 6 5 5 5 4 5 89 76 100 98 100 100
51 26 6 25 13 9 20 16 43 57 97 100 99 98 94 97 89 79 26 6 5 6 5 5 63 99 46 63 6 11 47 11 32 38 78 32 5 88 38 100 100 100 91
22 28 58 54 52 56 100 88 79 88 100 97 99 56 12 44 32 5 5 5 5 5 11 65 99 74 28 5 5 5 5 5 5 5 7 60 99 64 100 100 100 100 93
5 5 21 65 99 100 100 96 100 100 100 79 22 6 51 92 97 31 52 97 45 71 43 82 97 38 5 5 5 8 11 50 59 6 8 93 68 99 79 97 100 100 100
10 63 91 100 100 100 100 98 100 91 56 58 11 5 5 5 45 96 100 19 33 66 41 25 5 3 5 14 100 14 59 89 95 99 95 19 10 30 100 98 99 70 95
22 24 77 55 79 98 99 92 77 82 66 76 13 79 70 7 13 5 5 5 10 15 5 5 5 6 68 100 21 5 5 5 74 100 100 100 33 66 100 100 100 100 100
17 89 82 61 83 89 93 95 74 63 74 69 76 34 77 74 33 40 10 5 5 5 5 5 6 46 100 50 5 5 5 5 61 94 98 86 52 100 83 100 100 100 100
98 100 100 65 66 72 75 30 42 56 89 78 74 88 92 100 88 66 56 18 18 72 66 76 99 100 100 11 5 5 8 48 96 98 82 95 94 92 99 100 100 100 100
66 98 100 100 97 90 95 78 94 100 100 100 100 100 100 100 8 13 66 100 100 100 100 100 100 97 46 5 65 52 82 96 100 100 100 100 100 100 100 99 100 100 100
96 88 100 100 100 99 100 100 100 92 100 94 96 92 100 100 100 100 100 100 100 100 100 100 96 56 38 86 91 100 100 99 100 100 100 100 100 100 100 86 100 100 100
100 100 100 100 100 100 100 100 100 100 100 94 85 94 100 98 100 100 100 100 100 100 100 100 35 64 81 94 100 100 100 100 100 100 100 100 100 100 100 100 100 100 100
100 100 100 100 100 100 100 100 100 100 100 100 100 100 100 100 100 100 100 100 100 100 97 10 45 84 97 100 100 100 100 100 100 100 100 100 100 100 100 100 100 100 100
100 100 100 100 100 100 100 100 100 100 100 100 100 100 100 100 100 100 100 100 100 98 6 100 73 70 100 100 100 100 100 100 100 100 100 100 100 100 100 100 100 100 100
100 100 100 100 100 100 100 100 100 100 100 100 100 100 100 100 100 100 100 100 75 58 100 74 80 100 100 100 99 100 100 100 100 100 100 100 100 100 100 100 100 100 100
100 100 100 100 100 100 100 100 100 100 100 100 100 100 100 100 100 100 100 100 94 100 37 77 100 64 5 99 100 100 100 100 100 100 100 100 100 100 100 100 100 100 100
100 100 100 100 100 100 100 100 100 100 100 100 100 100 100 100 100 100 100 100 79 13 57 100 18 18 100 100 100 100 100 100 92 99 100 100 100 100 100 100 100 100 100
100 100 100 100 100 100 100 100 100 100 100 100 100 100 100 100 100 100 99 100 58 61 84 11 71 100 94 96 99 100 100 100 100 100 100 100 100 100 100 100 100 100 100
100 100 100 100 100 100 100 100 100 100 100 100 100 100 100 100 100 100 99 71 94 86 6 76 77 84 93 100 100 100 100 100 100 100 100 100 100 100 100 100 100 100 100

GFSGL_prec_cloud_039.txt.gz
Cloud_Cover
100 100 99 97 100 100 100 100 100 100 100 100 100 100 100 100 100 100 100 100 100 100 100 100 100 100 100 100 87 100 100 98 67 5 5 5 5 5 40 5 5 5 5
100 100 100 100 100 100 100 100 100 100 100 100 100 100 100 100 100 100 100 100 100 100 100 100 100 100 100 100 96 100 100 100 96 5 5 5 5 5 10 100 99 43 5
100 100 100 100 100 100 100 100 100 100 100 100 100 100 100 100 100 100 100 100 100 99 100 100 100 100 100 89 100 100 93 100 100 73 5 5 5 94 100 100 92 95 99
100 100 100 80 100 100 100 100 100 100 100 100 100 100 100 100 100 100 100 100 100 100 100 100 100 97 96 100 100 56 56 47 73 76 92 44 70 90 98 100 93 50 68
1 28 58 45 49 57 88 100 100 100 100 100 100 100 100 100 100 100 100 100 100 100 100 100 100 100 73 100 100 83 91 100 100 95 95 100 65 12 50 79 74 11 14
0 0 0 0 20 33 62 100 99 100 100 100 100 100 100 100 100 100 100 100 100 100 100 76 84 99 100 28 5 20 17 57 91 92 88 98 43 99 96 99 96 96 90
0 0 0 0 0 0 6 21 69 96 100 64 27 19 46 76 70 100 100 96 66 66 36 10 91 100 48 99 91 32 5 6 49 56 74 73 98 88 100 100 38 12 58
0 0 0 0 4 2 2 6 39 33 4 5 5 6 24 46 17 13 6 17 20 64 100 100 100 79 66 67 16 22 34 76 88 58 33 50 73 92 100 99 6 52 59
0 1 3 4 5 7 66 42 38 56 60 59 42 24 18 17 19 32 61 30 65 99 100 100 73 17 49 5 5 5 18 31 5 5 4 5 67 100 100 82 99 100 100
1 5 5 24 2 0 0 0 5 26 45 7 22 95 100 100 100 81 100 84 83 96 98 49 13 6 5 5 5 5 5 5 5 5 5 28 100 100 11 5 5 100 100
2 0 5 4 2 0 0 1 5 5 5 22 61 84 57 36 66 39 10 76 98 58 8 50 38 55 52 98 67 31 5 5 5 19 59 100 100 6 5 5 5 100 100
5 5 5 5 5 5 2 1 5 5 6 6 39 23 5 50 68 73 59 16 29 63 50 100 77 97 100 66 11 29 24 74 5 59 100 100 89 67 91 99 42 37 92
35 12 8 5 26 11 41 30 62 18 86 52 82 93 99 100 99 78 61 71 57 69 100 70 61 100 40 23 5 80 100 85 98 100 100 92 60 13 35 49 97 56 65
95 46 41 5 38 61 62 57 33 99 44 20 63 94 100 94 85 96 100 99 100 100 100 78 7 24 100 45 98 100 100 100 100 100 96 90 96 99 99 99 73 100 100
100 100 99 83 64 100 99 85 99 80 94 100 100 98 86 78 44 45 77 95 100 95 100 100 100 100 99 100 100 100 100 100 100 74 99 100 100 100 100 100 77 100 97
100 100 100 100 100 100 100 100 99 100 100 100 100 100 100 100 95 63 99 100 100 100 100 100 100 100 100 100 100 100 100 100 97 96 100 100 100 100 100 95 100 100 100
100 100 100 100 100 100 100 100 100 100 100 100 100 100 100 100 100 100 100 100 100 100 100 100 100 100 100 100 100 100 100 100 95 100 100 100 100 100 100 100 100 100 100
100 100 100 100 100 100 100 100 100 100 100 100 100 100 100 100 100 100 100 100 100 100 100 100 100 100 100 100 100 98 98 100 100 100 100 100 100 100 100 100 100 100 100
100 100 100 100 100 100 100 100 100 100 100 100 100 100 100 100 100 100 100 100 100 100 100 100 100 100 100 100 68 75 70 97 99 97 100 100 100 100 100 100 100 99 100
100 100 100 100 100 100 100 100 100 100 100 100 100 100 100 100 100 100 100 100 100 100 100 100 100 100 100 28 92 52 14 99 100 100 100 100 100 100 100 100 100 100 100
100 100 100 100 100 100 100 100 100 100 100 100 100 100 100 100 100 100 100 100 100 100 100 100 100 71 65 94 9 5 99 100 100 100 100 100 100 100 100 100 100 98 100
100 100 100 100 100 100 100 100 100 100 100 100 100 100 100 100 100 100 100 100 100 100 100 93 66 90 10 5 42 100 100 100 100 100 100 100 100 100 100 100 100 100 100
100 100 100 100 100 100 100 100 100 100 100 100 100 100 100 100 100 100 100 100 100 97 61 74 46 6 5 76 93 71 100 100 100 100 100 100 100 100 100 100 100 100 100
100 100 100 100 100 100 100 100 100 100 100 100 100 100 100 100 100 100 100 98 95 97 92 17 5 10 80 20 9 77 100 100 100 100 100 100 100 100 100 100 100 100 100
100 100 100 100 100 100 100 100 100 100 100 100 100 100 100 100 99 63 96 100 88 100 15 5 26 5 5 5 56 92 100 100 100 100 100 100 100 100 100 100 100 100 100
100 100 100 100 100 100 100 100 100 100 100 100 100 99 91 90 98 82 64 82 77 78 76 5 5 5 5 79 95 100 32 100 100 100 100 100 100 100 100 100 100 100 100

GFSGL_prec_cloud_042.txt.gz
Cloud_Cover
100 100 100 100 100 100 100 100 100 100 100 100 100 100 100 100 100 100 100 100 100 100 100 100 100 100 100 100 100 100 100 100 100 95 17 5 5 5 5 5 4 5 5
38 100 100 100 100 100 100 100 100 100 100 100 100 100 100 100 100 100 100 100 100 100 100 100 100 100 100 100 100 100 100 100 100 100 53 52 5 5 5 18 17 70 89
36 94 100 100 100 100 100 100 100 100 100 100 100 100 100 100 100 100 100 100 100 100 100 100 100 100 100 100 100 98 100 100 50 78 41 48 59 10 22 89 59 100 99
58 100 100 100 100 100 100 100 100 100 100 100 100 100 100 100 100 100 100 100 100 100 100 100 100 100 100 100 100 100 100 100 98 96 83 84 39 5 80 73 7 6 26
7 96 100 100 100 100 100 100 100 100 100 100 100 100 100 100 100 100 100 100 100 100 100 100 100 100 100 100 74 56 83 100 99 99 99 54 24 28 22 6 35 59 5
5 16 100 100 100 100 100 100 100 100 100 100 100 100 100 100 100 100 100 100 100 100 100 100 100 99 100 100 100 87 60 10 5 6 94 5 5 6 47 98 99 98 94
97 100 100 100 100 100 100 100 100 100 100 100 100 100 100 100 100 100 100 100 100 100 100 100 100 100 100 87 62 16 5 5 29 61 57 50 10 34 56 49 91 100 100
100 100 100 100 100 100 98 86 52 12 48 100 99 99 100 100 100 97 78 100 98 73 91 100 100 100 100 94 87 84 100 100 100 100 100 100 100 94 31 98 44 9 98
5 40 54 70 97 90 15 5 18 92 65 10 0 0 0 34 11 10 8 10 30 36 85 100 100 100 42 48 46 75 77 99 100 100 100 62 88 100 100 72 99 100 100
0 0 16 1 0 1 5 5 41 0 0 0 0 1 6 64 11 25 97 100 100 96 99 98 67 50 40 60 82 82 35 93 100 100 100 83 100 100 100 100 100 100 100
2 0 0 0 3 4 2 3 5 5 5 29 62 57 65 79 100 100 100 100 87 70 10 18 40 72 53 49 26 13 85 100 100 100 87 86 100 100 100 100 100 69 100
5 1 0 0 4 5 5 4 5 5 30 99 61 100 100 99 100 100 80 30 54 86 100 95 87 86 100 91 98 95 100 100 100 100 45 93 97 100 100 100 29 74 89
4 5 5 4 5 5 5 5 5 8 6 92 55 44 68 64 69 60 93 98 100 100 97 100 100 100 100 98 100 100 100 100 100 94 90 100 100 100 100 17 44 73 92
8 5 5 5 22 33 67 62 5 5 5 43 36 69 48 6 61 95 89 100 94 100 100 100 100 99 100 100 100 100 100 100 78 99 100 100 100 90 82 98 100 100 100
58 8 5 12 7 86 100 100 69 50 36 63 45 82 100 100 100 100 100 100 100 100 100 92 87 70 93 100 100 100 100 100 100 100 100 100 100 100 100 100 100 100 100
96 76 86 92 100 100 99 100 100 100 100 97 100 100 100 100 100 100 100 100 99 100 100 100 100 100 100 100 100 100 100 100 100 100 100 100 100 100 100 100 100 100 100
100 100 79 85 87 100 100 100 100 100 100 100 99 100 100 100 100 100 100 86 61 81 100 100 100 100 100 100 100 100 100 100 100 100 100 100 100 100 100 100 100 100 100
100 100 100 100 100 100 100 100 100 100 100 100 100 100 100 100 100 100 96 97 100 100 100 100 100 100 100 100 100 100 100 100 100 100 82 98 100 100 100 100 100 100 100
100 100 100 100 100 100 100 100 100 100 100 100 100 100 100 100 100 100 100 100 100 100 100 100 100 100 100 100 100 100 100 81 89 69 82 100 100 100 100 100 100 100 100
100 100 100 100 100 100 100 100 100 100 100 100 100 100 100 100 100 100 100 100 100 100 100 100 100 100 100 100 100 100 68 88 90 64 100 100 100 100 100 100 100 100 100
100 100 100 100 100 100 100 100 100 100 100 100 100 100 100 100 100 100 100 100 100 100 100 100 100 100 100 100 57 60 94 82 42 100 100 100 100 100 100 100 100 100 100
100 100 100 100 100 100 100 100 100 100 100 100 100 100 100 100 100 100 100 100 100 100 100 100 100 100 74 20 100 100 100 100 99 100 100 100 100 100 100 100 100 100 100
100 100 100 100 100 100 100 100 100 100 100 100 100 100 100 100 100 100 100 100 100 100 100 100 57 6 5 47 76 35 100 100 100 100 100 100 100 100 100 100 100 100 100
100 100 100 100 100 100 100 100 100 100 100 100 100 100 100 100 100 100 100 100 100 100 97 65 14 16 5 5 34 61 100 100 100 100 100 100 100 100 100 100 100 100 100
100 100 100 100 100 100 100 100 100 100 100 100 100 100 100 100 100 93 73 90 94 78 57 5 26 5 5 5 8 92 100 84 80 100 100 100 100 100 100 100 100 100 100
100 100 100 100 100 100 100 100 100 100 100 100 100 100 100 96 64 57 96 73 54 60 31 5 5 5 5 5 78 100 63 98 96 100 100 100 100 100 100 100 100 100 100

GFSGL_prec_cloud_045.txt.gz
Cloud_Cover
100 100 99 100 100 100 94 100 100 100 100 100 100 100 100 100 100 100 100 100 100 100 100 100 100 100 100 100 100 100 100 100 100 100 100 100 100 70 5 5 5 5 18
100 100 100 100 100 100 100 100 100 100 100 100 100 100 100 100 100 100 100 100 100 100 100 100 100 100 100 100 100 100 100 100 100 100 100 100 100 93 5 22 29 100 5
51 67 100 100 100 100 100 100 100 100 100 100 100 100 100 100 100 100 100 100 100 100 100 100 100 100 100 100 100 100 100 100 100 99 98 97 33 5 5 5 5 6 38
0 1 53 95 100 100 100 100 100 100 100 100 100 100 100 100 100 100 100 100 100 100 100 100 100 100 100 100 100 100 100 89 54 89 80 99 98 23 5 7 7 36 98
4 0 0 4 45 100 100 100 97 100 100 100 100 100 100 100 100 100 100 100 100 100 100 100 100 100 100 100 100 100 100 98 90 26 60 50 17 5 22 5 15 34 100
0 0 0 0 30 100 100 100 100 100 100 100 100 100 100 100 100 100 100 100 100 100 100 100 100 100 100 100 100 100 96 10 7 22 82 20 58 62 5 5 14 5 26
0 1 1 33 68 100 100 100 100 100 100 100 100 100 100 100 100 100 100 97 100 100 100 100 100 100 100 100 100 100 26 10 5 6 57 62 72 18 5 5 77 100 100
40 90 96 100 100 100 100 100 100 100 100 100 100 100 100 100 100 100 100 100 100 100 100 100 100 99 100 100 98 78 97 70 17 23 63 92 18 11 58 87 100 100 100
100 100 100 100 100 100 100 100 100 100 100 100 100 100 100 100 100 100 100 100 100 100 100 100 100 100 100 98 75 88 100 100 100 100 100 100 100 100 84 84 100 100 80
100 100 100 100 100 100 100 100 100 99 65 99 100 100 100 100 100 100 100 100 98 86 99 100 100 100 100 97 75 96 100 100 100 100 100 100 89 100 100 100 100 100 99
89 89 94 99 100 100 77 70 33 67 85 100 100 100 100 98 100 82 55 73 88 100 100 100 100 97 100 100 100 100 95 75 79 93 48 74 100 100 100 100 100 100 100
98 52 95 100 100 65 55 81 76 78 100 100 100 100 100 100 100 99 100 100 100 100 100 92 99 100 100 100 99 93 83 95 69 28 32 91 100 100 100 100 100 100 100
100 100 77 23 5 5 5 40 66 99 100 100 100 100 100 100 100 100 100 100 100 99 95 100 100 100 100 98 87 100 90 74 96 91 100 100 100 100 100 100 100 100 100
100 100 97 94 9 12 14 24 46 100 100 100 92 100 100 100 100 99 96 100 100 100 100 100 100 100 100 100 100 100 99 100 100 96 100 100 100 100 100 100 100 100 100
100 100 100 96 100 100 100 100 100 100 100 72 90 86 99 100 100 100 100 100 100 100 100 100 100 100 100 100 100 100 80 87 97 100 100 100 100 100 100 100 100 100 100
100 100 100 100 100 100 100 100 100 92 90 100 100 100 100 100 100 100 100 100 100 100 100 100 100 100 100 100 98 100 100 100 100 100 100 100 100 100 100 100 100 100 100
100 100 100 100 100 100 100 100 100 100 100 100 100 100 100 100 100 100 100 100 100 100 100 100 100 100 100 100 100 100 100 100 100 100 100 100 100 100 100 100 100 100 100
100 100 100 100 100 100 100 100 100 100 100 100 100 100 100 100 100 100 100 100 100 100 100 100 100 100 97 99 100 100 100 100 100 100 100 100 98 100 100 100 100 100 100
100 100 100 100 100 100 100 100 100 100 100 100 100 100 100 100 100 100 100 100 100 100 100 100 100 100 100 100 100 100 100 100 100 100 93 82 95 100 100 100 100 100 100
100 100 100 100 100 100 100 100 100 100 100 100 100 100 100 100 100 100 100 100 100 100 100 100 100 100 100 100 100 100 100 100 100 68 92 97 98 100 100 100 100 100 100
100 100 100 100 100 100 100 100 100 100 100 100 100 100 100 100 100 100 100 100 100 100 100 100 100 100 100 100 100 100 100 97 75 86 100 100 100 100 100 100 100 100 100
100 100 100 100 100 100 100 100 100 100 100 100 100 100 100 100 100 100 100 100 100 100 100 100 100 100 100 100 100 100 100 99 80 94 100 100 100 100 100 100 100 100 100
100 100 100 100 100 100 100 100 100 100 100 100 100 100 100 100 100 100 100 100 100 100 100 100 100 100 100 59 32 70 100 100 100 100 100 100 100 100 100 100 100 100 100
100 100 100 100 100 100 100 100 100 100 99 100 100 100 100 100 100 100 100 100 100 100 98 100 96 76 6 5 21 7 91 100 100 90 85 100 100 100 100 100 100 100 100
100 100 100 100 100 100 100 100 100 100 100 100 100 100 100 100 100 100 100 100 73 56 75 85 42 5 5 49 5 21 100 99 74 89 100 100 100 100 100 100 100 100 100
100 100 100 100 100 100 100 100 100 100 98 89 94 99 93 89 78 100 98 81 22 6 5 5 14 5 5 5 17 98 71 46 33 100 100 100 100 100 100 100 100 100 100

GFSGL_prec_cloud_048.txt.gz
Cloud_Cover
61 6 33 64 100 100 90 87 100 100 100 100 95 100 100 100 100 100 100 100 100 100 100 100 100 100 100 100 100 100 100 100 100 100 100 100 100 100 100 100 99 60 43
5 6 90 100 100 100 100 99 100 74 87 86 100 100 100 100 100 100 100 100 100 100 100 100 100 100 100 100 100 100 100 100 100 100 100 100 100 100 31 66 28 30 57
0 84 100 100 100 56 63 82 65 97 50 100 100 100 100 100 100 100 98 100 100 100 100 100 100 100 100 100 100 100 100 100 100 100 100 100 31 22 8 8 31 77 72
0 1 51 94 100 100 100 91 100 100 100 98 100 100 100 100 100 100 100 100 100 100 100 100 100 100 100 100 100 100 100 100 100 100 100 100 81 48 5 8 89 80 100
0 0 0 0 2 7 88 100 100 100 98 99 100 100 100 100 100 98 100 100 100 100 100 100 100 100 100 100 100 100 100 100 100 100 100 100 72 10 6 35 96 100 100
0 0 0 0 0 0 0 2 100 100 100 100 100 100 100 100 100 100 100 100 100 100 100 100 100 100 100 98 100 100 100 100 99 100 100 6 61 70 69 43 27 100 69
1 0 0 0 0 0 45 100 100 100 100 100 100 100 100 100 100 100 100 100 100 100 100 93 100 100 100 100 100 100 100 99 88 100 57 51 51 91 98 67 82 82 96
4 2 0 1 28 84 100 100 100 100 100 100 100 100 100 100 100 100 100 100 100 100 100 100 100 100 100 100 100 100 100 100 86 96 85 86 78 86 47 22 33 36 75
100 94 39 88 100 100 100 100 100 100 100 100 100 100 100 100 100 100 100 100 100 100 100 100 100 100 100 100 100 99 86 40 70 100 95 92 63 52 53 6 23 88 22
100 100 100 100 100 100 100 100 100 100 100 100 100 100 100 100 100 100 100 100 100 100 100 100 100 100 100 100 100 84 70 93 100 100 100 100 99 96 79 65 76 26 13
100 100 100 100 100 100 100 100 100 100 100 100 100 100 100 100 100 100 100 100 100 100 100 100 100 100 100 73 94 95 100 100 100 100 100 100 100 100 100 100 100 100 88
100 100 100 100 100 100 100 100 100 100 100 100 100 100 100 100 100 100 100 100 100 100 100 100 100 100 84 81 100 100 100 100 100 100 100 100 100 100 100 100 100 100 100
100 100 100 100 100 100 100 100 100 100 100 100 100 100 100 100 100 100 100 100 100 100 100 100 100 100 100 100 100 100 100 100 100 100 100 100 100 100 100 100 100 100 100
100 100 100 100 100 100 100 100 100 100 100 100 100 100 100 100 100 100 100 100 100 100 100 100 100 100 100 100 100 100 100 100 100 100 100 100 100 100 100 100 100 100 100
100 100 100 100 100 100 100 100 100 100 100 100 100 100 100 100 100 100 100 100 100 100 100 100 100 100 100 100 100 100 100 100 100 100 100 100 100 100 100 100 100 100 100
100 100 100 100 100 100 100 100 100 100 100 100 100 100 100 100 100 100 100 100 100 100 100 100 100 100 100 100 100 100 100 100 100 100 100 100 100 99 100 100 100 100 100
100 100 100 100 100 100 100 100 100 100 100 100 100 100 100 100 97 100 100 100 100 100 100 100 100 100 100 100 100 100 100 100 100 100 100 100 100 100 100 100 100 100 100
100 100 100 100 100 100 100 100 100 100 100 100 100 100 100 100 100 100 100 100 100 100 100 100 100 100 100 100 100 100 100 100 100 100 100 100 100 100 100 100 100 100 100
100 100 100 100 100 100 100 100 100 100 100 100 100 100 100 100 100 100 100 100 100 100 100 100 100 100 100 100 100 100 100 100 100 100 100 100 100 100 100 100 100 100 100
100 100 100 100 100 100 100 100 100 100 100 100 100 100 100 100 100 100 100 100 100 100 100 100 100 100 100 100 100 100 100 100 100 100 100 100 100 98 100 100 100 100 100
100 100 100 100 100 100 100 100 100 100 100 100 100 100 100 100 100 100 100 100 100 100 100 100 100 100 100 100 100 100 100 100 99 85 98 100 97 100 100 100 100 100 100
100 100 100 100 100 100 100 100 100 100 100 100 100 100 100 100 100 100 100 100 100 100 99 100 96 97 100 100 90 75 100 100 85 80 100 97 100 100 100 100 100 100 100
100 100 100 100 100 100 100 100 100 100 100 100 100 100 100 100 99 98 100 89 54 58 65 89 81 23 5 5 9 36 100 100 98 100 100 100 100 100 100 100 100 100 100
100 100 100 100 100 100 100 100 100 100 100 100 99 73 82 76 68 45 40 98 52 12 5 30 13 5 5 5 5 27 59 85 100 100 100 100 100 100 100 100 100 100 100
100 100 100 100 100 100 100 97 76 63 87 99 99 98 100 96 59 81 100 100 26 57 8 5 34 5 5 5 5 5 42 100 100 100 100 100 100 100 100 100 100 100 100
97 99 98 92 89 64 37 71 100 99 100 100 100 100 99 99 80 100 96 72 55 27 11 5 14 5 5 5 5 64 85 48 14 96 100 100 100 100 100 100 100 100 100

GFSGL_prec_cloud_051.txt.gz
Cloud_Cover
0 0 0 0 2 51 100 83 100 98 99 100 94 97 88 100 100 99 100 95 94 100 100 100 100 100 100 100 100 100 100 100 100 100 100 100 100 100 100 98 98 65 65
2 0 1 2 4 67 83 23 46 98 92 100 100 100 100 100 100 100 100 100 100 100 100 100 100 100 100 100 100 100 100 100 100 100 100 100 94 100 100 93 65 23 24
1 3 1 2 81 100 100 98 96 37 8 99 75 69 99 99 100 100 100 100 100 100 99 100 100 100 100 100 100 100 100 100 100 100 84 100 100 100 99 72 22 76 30
4 0 0 0 1 49 96 100 91 95 100 100 86 84 63 86 84 100 100 100 94 100 100 100 100 100 100 100 100 100 100 100 100 100 100 100 100 100 72 63 58 25 88
5 5 5 0 0 0 2 74 98 91 100 100 100 100 98 84 90 97 100 100 100 99 100 100 100 100 100 100 100 100 100 100 100 100 100 100 100 94 80 91 82 100 100
5 5 5 5 5 0 0 0 0 0 6 93 100 100 100 100 100 100 100 100 100 100 100 100 100 100 100 100 100 100 100 100 100 100 100 100 99 70 87 99 97 85 58
33 98 26 5 11 6 31 5 5 3 29 64 89 98 100 100 100 100 100 100 100 100 100 100 100 100 100 100 100 100 100 100 100 100 100 100 90 97 94 84 80 78 84
39 99 100 97 67 27 48 46 72 98 100 98 100 100 100 100 100 100 100 100 100 100 100 100 100 100 100 100 100 100 100 100 100 100 92 78 86 71 30 89 42 100 64
100 63 84 65 100 100 100 100 100 100 100 100 100 100 100 100 100 100 100 100 100 100 100 100 100 100 100 100 100 100 100 100 100 100 100 97 65 71 96 99 100 68 38
100 100 99 52 100 100 100 100 100 100 100 100 100 100 100 100 100 100 100 100 100 100 100 100 100 100 100 100 100 100 100 100 100 100 100 98 94 88 88 77 76 48 32
100 100 100 100 100 100 100 100 100 100 100 100 100 100 100 100 100 100 100 100 100 100 100 100 100 100 100 100 100 100 100 100 100 99 92 99 100 100 76 59 60 47 96
100 100 100 100 100 100 100 100 100 100 100 100 100 100 100 100 100 100 100 100 100 100 100 100 100 100 100 100 100 100 100 100 100 100 100 100 100 100 100 98 97 94 91
100 100 100 100 100 100 100 100 100 100 100 100 100 100 100 100 100 100 100 100 100 100 100 100 100 100 100 100 100 100 100 100 100 100 100 100 100 100 100 100 100 100 100
100 100 100 100 100 100 100 100 100 100 100 100 100 100 100 100 100 100 100 100 100 100 100 100 100 100 100 100 100 100 100 100 100 100 100 100 100 100 100 100 100 100 100
100 100 100 100 100 100 100 100 100 100 100 100 100 100 100 100 100 100 100 100 100 100 100 100 100 100 100 100 100 100 100 100 99 100 100 100 100 100 100 100 100 100 100
100 100 100 100 100 100 100 100 100 100 100 100 100 100 100 100 100 100 100 100 100 100 100 100 100 100 100 100 100 100 100 100 100 100 100 100 100 100 100 100 100 100 100
100 100 100 100 100 100 100 100 100 100 100 100 100 100 100 100 100 100 100 100 100 100 100 100 100 100 100 100 100 100 100 100 100 100 100 100 100 100 100 100 100 100 100
100 100 100 100 100 100 100 100 100 100 100 100 100 100 100 100 100 100 100 100 100 100 100 100 100 100 100 100 100 100 100 100 100 100 100 100 100 100 100 100 100 100 100
100 100 100 100 100 100 100 100 100 100 100 100 100 100 100 100 100 100 100 100 100 100 100 100 100 100 100 100 100 100 100 100 100 100 100 100 100 100 100 100 100 100 100
100 100 100 100 100 100 100 100 100 100 100 100 100 100 100 100 100 100 100 100 100 100 100 100 100 100 100 100 100 100 100 100 100 100 100 100 100 100 100 100 100 100 100
100 100 100 100 100 100 100 100 100 100 100 100 100 100 100 100 100 100 100 100 100 100 100 100 100 100 100 100 100 100 100 100 100 100 100 100 100 100 100 100 100 100 100
100 100 100 100 100 100 100 100 100 100 100 100 100 100 100 100 100 100 100 100 100 100 100 100 100 100 100 100 100 100 100 100 100 100 100 100 100 100 100 100 100 100 100
100 100 100 100 100 100 100 100 100 100 100 100 100 100 100 100 100 100 99 100 100 100 90 91 100 93 100 100 100 100 100 100 100 100 100 100 100 100 100 100 100 100 100
100 100 100 100 100 100 100 100 100 83 100 100 100 100 100 100 100 99 100 100 97 98 88 84 72 50 23 45 100 100 100 100 100 100 100 100 100 100 100 100 100 100 100
91 97 100 100 100 99 95 85 74 69 75 100 100 100 100 100 100 100 100 95 72 85 86 95 100 100 90 90 91 98 100 100 100 100 100 100 100 100 100 100 100 100 100
66 72 92 95 62 88 71 47 64 75 98 100 100 100 100 100 100 100 100 100 100 100 100 100 100 100 93 85 97 100 100 90 87 100 94 100 100 100 100 100 100 100 100

GFSGL_prec_cloud_054.txt.gz
Cloud_Cover
0 1 24 7 27 38 23 3 2 58 100 100 100 100 100 100 100 68 100 98 92 100 100 100 100 100 100 100 100 100 100 100 100 100 100 100 100 100 100 100 100 90 89
0 2 0 19 23 18 0 0 4 5 5 6 88 100 100 100 100 100 100 100 100 100 100 100 100 100 100 100 100 100 100 100 100 100 100 100 100 100 100 100 100 100 86
5 1 0 0 0 0 0 0 3 5 6 5 5 5 8 49 74 58 100 100 100 100 100 100 100 100 100 100 100 100 100 100 100 100 100 100 100 99 100 100 100 99 62
5 5 5 1 0 0 39 5 3 32 48 75 24 3 5 84 35 99 87 63 100 100 99 100 100 100 100 100 100 100 100 100 100 100 97 99 86 99 100 100 100 79 89
100 91 4 5 5 5 5 0 0 0 9 12 74 95 100 98 100 96 99 99 82 43 77 100 100 100 100 100 100 100 100 100 100 100 100 100 98 100 100 100 94 100 81
77 77 77 5 5 5 5 5 5 4 5 5 0 0 0 26 49 100 97 87 99 100 100 100 100 100 100 100 100 100 100 100 100 100 100 100 100 100 100 100 100 72 100
52 82 79 29 5 5 5 5 5 14 20 16 12 20 40 74 100 100 100 70 100 100 100 100 100 100 100 100 100 100 100 100 100 100 100 100 100 100 100 100 98 100 100
20 58 100 100 80 62 61 74 90 94 45 83 99 99 100 100 100 100 100 100 100 100 100 100 100 100 100 100 100 100 100 100 100 100 100 100 100 100 100 100 100 98 98
92 85 82 92 94 100 100 100 100 98 100 100 100 100 100 100 100 100 100 100 100 100 100 100 100 100 100 100 100 100 100 100 100 100 100 100 100 100 100 95 82 97 100
100 100 100 100 100 100 100 100 100 100 100 100 100 100 100 100 100 100 100 100 100 100 100 100 100 100 100 100 100 100 100 100 100 100 100 100 100 100 100 100 100 100 100
100 100 100 100 100 100 100 100 100 100 100 100 100 100 100 100 100 100 100 100 100 100 100 100 100 100 100 100 100 100 100 100 100 100 100 100 99 100 100 100 100 100 99
100 100 100 100 100 100 100 100 100 100 100 100 100 100 100 100 100 100 100 100 100 100 100 100 100 100 100 100 100 100 100 100 100 100 100 99 100 100 100 97 98 91 90
100 100 100 100 100 100 100 100 100 100 100 100 100 100 100 100 100 100 100 100 100 100 100 100 100 100 100 100 100 100 100 100 100 100 100 100 96 97 95 100 100 100 100
100 100 100 100 100 100 100 100 100 100 100 100 100 100 100 100 100 100 100 100 100 100 100 100 100 100 100 100 100 100 100 100 100 100 100 100 100 100 100 100 100 100 100
100 100 100 100 100 100 100 100 100 100 100 100 100 100 100 100 100 100 100 100 100 100 100 100 100 100 100 100 100 100 100 100 100 100 100 100 100 100 100 100 100 100 100
100 100 100 100 100 100 100 100 100 100 100 100 100 100 100 100 100 100 100 100 100 100 100 100 100 100 100 100 100 100 100 100 100 100 100 100 100 100 100 100 100 100 100
100 100 100 100 100 100 100 100 100 100 100 100 100 100 100 100 100 100 100 100 100 100 100 100 100 100 100 100 100 100 100 100 100 100 100 100 100 100 100 100 100 100 100
100 100 100 100 100 100 100 100 100 100 100 100 100 100 100 100 100 100 100 100 100 100 100 100 100 100 100 100 100 100 100 100 100 100 100 100 100 100 100 100 100 100 100
100 100 100 100 100 100 100 100 100 100 100 100 100 100 100 100 100 100 100 100 100 100 100 100 100 100 100 100 100 100 100 100 100 100 100 100 100 100 100 100 100 100 100
100 100 100 100 100 100 100 100 100 100 100 100 100 100 100 100 100 100 100 100 100 100 100 100 100 100 100 100 100 100 100 100 100 100 100 100 100 100 100 100 100 100 100
100 100 100 100 100 100 100 100 100 100 100 100 100 100 100 100 100 100 100 100 100 100 100 100 100 100 100 100 100 100 100 100 100 100 100 100 100 100 100 100 100 100 100
100 100 100 100 100 100 100 100 100 100 100 100 100 98 100 100 100 100 100 100 100 100 100 100 100 100 100 100 100 100 100 100 100 100 100 100 100 100 100 100 100 100 100
100 100 100 100 100 100 100 100 100 100 100 100 100 100 100 100 100 100 100 100 100 100 100 100 100 100 100 100 100 100 100 100 100 100 100 100 100 100 100 100 100 100 100
100 100 98 100 100 100 100 100 100 100 100 100 100 100 100 100 100 100 100 100 100 100 100 100 100 100 100 100 100 100 100 100 100 100 100 100 100 100 100 100 100 100 100
94 94 99 100 100 100 100 100 100 100 100 100 100 100 100 100 100 100 100 100 100 100 100 100 100 100 100 100 100 100 100 100 100 100 100 100 100 100 100 100 100 100 100
100 100 100 100 100 100 100 100 100 100 100 100 100 100 100 100 100 100 100 100 100 100 100 100 100 100 100 100 100 100 100 100 100 100 100 100 100 100 100 100 100 100 100

GFSGL_prec_cloud_057.txt.gz
Cloud_Cover
0 3 51 85 93 100 95 81 91 100 100 100 100 100 100 100 100 100 100 100 100 100 100 100 100 100 100 100 100 100 100 100 100 100 98 83 92 100 100 100 100 100 100
2 0 0 0 2 54 9 0 6 10 26 0 1 4 10 16 18 20 27 100 71 100 100 100 100 100 100 100 100 100 100 100 100 100 100 100 100 100 100 100 100 100 100
77 100 6 0 0 0 0 0 1 0 0 0 8 5 4 0 2 2 5 5 8 12 75 93 100 100 100 100 100 100 100 100 100 100 100 100 100 100 100 100 100 100 100
0 6 98 64 2 5 0 0 0 0 2 0 3 2 2 0 0 5 3 4 10 17 5 100 58 100 100 99 100 100 100 100 100 100 100 100 100 100 100 100 100 100 100
0 2 1 3 100 100 7 3 3 5 4 0 0 0 0 2 17 26 75 18 72 61 92 100 19 54 60 96 100 100 100 100 100 100 100 100 100 100 100 100 100 100 100
5 31 3 0 5 64 5 5 8 5 5 5 5 5 6 3 0 0 5 4 7 5 37 100 100 100 100 100 100 100 100 100 100 100 100 100 100 100 100 100 100 100 100
5 12 37 5 5 3 1 77 29 57 85 64 17 5 23 60 12 92 47 10 49 50 46 70 88 96 100 100 100 100 100 100 100 100 100 100 100 100 100 100 100 100 100
5 5 5 45 46 82 40 6 90 100 100 100 56 23 6 15 49 55 95 89 72 49 60 74 100 100 100 100 100 100 100 100 100 100 100 100 100 100 100 100 100 100 100
5 61 100 57 84 97 78 97 96 100 100 100 100 100 100 100 100 100 100 100 100 100 100 100 100 100 100 100 100 100 100 100 100 100 100 100 100 100 100 100 100 100 100
5 5 9 50 45 54 100 92 96 97 100 100 88 100 100 100 100 100 100 100 100 100 100 100 100 100 100 100 100 100 100 100 100 100 100 100 100 100 100 100 100 100 100
89 55 80 52 100 100 100 85 41 87 100 100 100 100 100 100 100 100 100 100 100 100 100 100 100 100 100 100 100 100 100 100 100 100 100 100 100 100 100 100 100 100 100
100 100 100 100 80 100 100 100 100 100 100 100 100 100 100 100 100 100 100 100 100 100 100 100 100 100 100 100 100 100 100 100 100 100 100 100 100 100 100 100 100 99 100
100 100 100 100 100 100 100 100 100 100 100 100 100 100 100 100 100 100 100 100 100 100 100 100 100 100 100 100 100 100 100 100 100 100 100 100 100 100 100 100 100 100 99
100 100 100 100 100 100 100 100 100 100 100 100 100 100 100 100 100 100 100 100 100 100 100 100 100 100 100 100 100 100 100 100 100 100 100 100 100 100 100 100 100 100 100
100 100 100 100 100 100 100 100 100 100 100 100 100 100 100 100 100 100 100 100 100 100 100 100 100 100 100 100 100 100 100 100 100 100 100 100 100 100 100 100 100 100 100
100 100 100 100 100 100 100 100 100 100 100 100 100 100 100 100 100 100 100 100 100 100 100 100 100 100 100 100 100 100 100 100 100 100 100 100 100 100 100 100 100 100 100
100 100 100 100 100 100 100 100 100 100 100 100 100 100 100 100 100 100 100 100 100 100 100 100 100 100 100 100 100 100 100 100 100 100 100 100 100 100 100 100 100 100 100
100 100 100 100 100 100 100 100 100 100 100 100 100 100 100 100 100 100 100 100 100 100 100 100 100 100 100 100 100 100 100 100 100 100 100 100 100 100 100 100 100 100 100
100 100 100 100 100 100 100 100 100 100 100 100 100 100 100 100 100 100 100 100 100 100 100 100 100 100 100 100 100 100 100 100 100 100 100 100 100 100 100 100 100 100 100
100 100 100 100 100 100 100 100 100 100 100 100 100 100 100 100 100 100 100 100 100 100 100 100 100 100 100 100 100 100 100 100 100 100 100 100 100 100 100 100 100 100 100
100 100 100 100 100 100 100 100 100 100 100 100 100 100 100 100 100 100 100 100 100 100 100 100 100 100 100 100 100 100 100 100 100 100 100 100 100 100 100 100 100 100 100
100 100 100 100 100 100 100 100 100 100 100 100 100 100 100 100 100 100 100 100 100 100 100 100 100 100 100 100 100 100 100 100 100 100 100 100 100 100 100 100 100 100 100
100 100 100 100 100 100 100 100 100 100 100 100 100 100 100 100 100 100 100 100 100 100 100 100 100 100 100 100 100 100 100 100 100 100 100 100 100 100 100 100 100 100 100
100 100 100 100 100 100 100 100 100 94 100 100 100 100 100 100 100 100 100 100 100 100 100 100 100 100 100 100 100 100 100 100 100 100 100 100 100 100 100 100 100 100 100
100 100 100 100 100 100 100 100 100 100 100 100 100 100 100 100 100 100 100 100 100 100 100 100 100 100 100 100 100 100 100 100 100 100 100 100 100 100 100 100 100 100 100
100 100 100 100 100 100 100 100 100 100 100 100 100 100 100 100 100 100 100 100 100 100 100 100 100 100 100 100 100 100 94 100 100 100 100 100 100 100 100 100 100 100 100

GFSGL_prec_cloud_060.txt.gz
Cloud_Cover
5 34 99 100 100 100 100 100 100 100 100 100 100 100 100 100 100 100 100 100 100 100 100 100 100 100 100 100 97 100 100 100 71 100 100 100 100 100 100 100 100 100 100
0 6 24 64 100 91 13 4 3 3 54 100 98 100 100 100 100 100 100 100 100 100 100 100 100 96 89 100 100 99 100 100 94 100 100 100 100 96 100 100 100 100 100
5 0 6 22 27 38 25 0 0 0 0 0 0 0 0 0 3 22 32 34 3 12 49 41 88 66 25 51 97 89 100 100 100 100 100 100 100 99 100 100 100 100 98
0 5 1 0 0 0 15 15 0 0 0 0 0 0 0 0 0 0 0 0 0 0 2 3 5 30 69 45 83 66 98 100 100 100 100 100 100 98 100 100 96 94 100
0 4 11 0 2 4 12 2 91 94 25 15 17 2 0 3 0 0 0 0 0 2 16 5 3 9 14 30 100 100 98 100 100 100 100 100 100 100 100 100 99 100 100
5 7 89 5 5 5 5 15 46 33 98 33 28 22 18 19 5 5 3 4 24 30 32 65 29 90 66 31 55 100 100 100 100 100 100 100 100 100 100 100 100 100 100
18 68 100 100 100 52 5 4 5 4 35 28 20 87 46 52 96 28 25 44 37 43 41 49 39 32 95 100 100 100 100 100 100 100 100 100 100 100 100 100 100 100 100
73 14 100 100 100 11 5 5 60 5 5 32 39 38 95 95 100 99 98 100 89 80 92 80 82 81 92 100 100 100 100 100 100 100 100 100 100 100 100 100 100 100 100
16 40 5 6 5 5 5 22 100 92 42 82 41 100 59 81 99 88 100 100 100 100 100 100 100 100 100 100 100 100 100 100 100 100 100 100 100 100 100 100 100 100 100
88 10 79 100 100 100 100 100 92 43 64 100 100 100 100 100 100 100 100 100 100 100 100 100 100 100 100 100 100 100 100 100 100 100 100 100 100 100 100 100 100 100 100
36 55 96 84 100 100 100 100 80 92 100 100 100 100 100 100 100 100 100 100 100 100 100 100 100 100 100 100 100 100 100 100 100 100 100 100 100 100 100 100 100 100 100
99 100 83 93 84 91 100 100 100 100 100 100 100 100 100 100 100 100 100 100 100 100 100 100 100 100 100 100 100 100 100 100 100 100 100 100 100 100 100 100 100 100 100
100 100 100 100 100 100 100 100 100 100 100 100 100 100 100 100 100 100 100 100 100 100 100 100 100 100 100 100 100 100 100 100 100 100 100 100 100 100 100 100 100 100 100
100 100 100 100 100 100 100 100 100 100 100 100 100 100 100 100 100 100 100 100 100 100 100 100 100 100 100 100 100 100 100 100 100 100 100 100 100 100 100 100 100 100 100
100 100 100 100 100 100 100 100 100 100 100 100 100 100 100 100 100 100 100 100 100 100 100 100 100 100 100 100 100 100 100 100 100 100 100 100 100 100 100 100 100 100 100
98 100 100 100 100 100 100 100 100 100 100 100 100 100 100 100 100 100 100 100 100 100 100 100 100 100 100 100 100 100 100 100 100 100 100 100 100 100 100 100 77 84 99
100 100 100 100 100 100 100 100 100 100 100 100 100 100 100 100 100 100 100 100 100 100 100 100 100 100 100 100 100 100 100 100 100 100 100 100 100 95 91 100 100 100 100
100 100 100 100 100 100 100 100 100 100 100 100 100 100 100 100 100 100 100 100 100 100 100 100 100 100 100 100 100 100 100 100 92 99 100 86 100 100 100 100 100 100 100
100 100 100 100 100 100 100 100 100 100 100 100 100 100 100 100 100 100 100 100 100 100 100 100 100 100 100 100 100 100 98 100 99 100 100 100 100 100 100 100 100 90 77
100 100 100 100 100 100 100 100 100 100 100 100 100 100 100 100 100 100 100 100 100 100 100 100 100 100 100 100 100 86 100 100 100 100 100 100 70 59 97 100 100 100 84
100 100 100 100 100 100 100 100 100 100 100 100 100 100 100 100 100 100 100 100 100 100 100 100 100 100 100 82 100 100 100 100 99 58 76 11 9 7 80 96 92 91 100
100 100 100 100 100 100 100 100 100 100 100 100 100 100 100 100 100 100 100 100 100 100 94 46 56 86 86 78 84 100 93 93 83 16 5 5 5 43 100 71 52 5 47
100 100 100 100 100 100 100 100 100 100 100 100 100 100 100 100 100 100 100 100 100 94 53 85 78 69 35 13 96 93 96 100 99 26 32 34 72 100 41 26 92 76 64
100 98 99 100 100 100 100 100 100 100 100 100 100 100 100 100 100 100 100 100 100 100 98 100 100 87 43 96 31 9 97 58 13 30 52 23 6 37 91 68 7 30 96
100 100 100 100 100 100 100 100 100 100 100 100 100 100 100 100 100 100 100 100 95 80 100 100 100 100 96 11 82 100 86 54 5 5 51 98 86 8 27 83 82 100 87
100 100 100 100 83 82 89 78 81 91 94 93 77 99 100 99 66 100 100 78 5 80 100 77 100 74 55 100 100 99 24 19 87 100 98 100 96 92 97 98 54 43 83

GFSGL_prec_cloud_063.txt.gz
Cloud_Cover
8 76 100 100 100 100 86 0 76 100 100 100 100 100 100 100 100 100 100 100 100 100 100 100 100 100 100 100 100 100 100 100 100 100 100 100 100 100 100 100 100 100 100
99 5 24 100 100 100 100 100 82 5 4 98 100 100 100 100 100 100 100 100 100 100 100 100 100 100 100 100 100 100 93 100 88 64 100 100 100 100 100 87 94 100 100
92 13 18 18 57 99 100 100 100 100 51 3 0 0 0 4 24 48 78 84 64 14 39 62 77 26 18 92 85 68 98 92 87 97 60 100 100 100 100 86 100 100 94
20 8 30 70 7 1 64 100 100 100 100 37 1 0 0 0 0 0 0 0 0 0 0 0 1 4 4 7 32 25 15 11 44 94 100 99 100 91 92 100 100 100 98
43 100 100 100 88 3 0 14 100 100 100 84 28 1 0 4 2 0 0 0 3 2 4 4 1 0 1 29 87 81 99 65 89 95 100 100 100 100 100 97 100 100 99
94 76 100 100 100 23 18 42 18 80 100 86 23 14 43 7 0 2 2 1 5 5 26 11 46 25 6 22 100 100 100 98 74 99 100 100 100 100 100 100 100 100 100
58 97 100 100 84 76 9 7 26 89 92 89 42 58 21 26 26 68 76 18 20 30 66 97 88 59 90 100 100 100 100 100 100 100 100 100 100 100 100 100 100 100 100
20 25 100 100 93 90 26 6 54 13 44 26 30 9 52 35 78 90 100 100 100 100 100 100 100 100 100 100 100 100 100 100 100 100 100 100 100 100 100 100 100 100 100
43 34 100 100 100 91 94 97 100 71 74 8 90 100 100 88 43 99 100 100 100 100 100 100 100 100 100 100 100 100 100 100 100 100 100 100 100 100 100 100 100 100 100
56 93 100 100 99 62 54 100 92 64 16 100 92 100 100 100 100 100 100 100 100 100 100 100 100 100 100 100 100 100 100 100 100 100 100 100 100 100 100 100 100 100 100
100 100 100 100 100 100 100 94 89 91 97 100 100 100 100 100 100 100 100 100 100 100 100 100 100 100 100 100 100 100 100 100 100 100 100 100 100 100 100 100 100 100 100
99 98 100 100 100 100 100 100 100 100 100 100 100 100 100 100 100 100 100 100 100 100 100 100 100 100 100 100 100 100 100 100 100 100 100 100 100 100 100 100 100 100 100
100 100 100 100 100 100 100 100 100 100 100 100 100 100 100 100 100 100 100 100 100 100 100 100 100 100 100 100 100 100 100 100 100 100 100 100 100 100 100 100 100 100 100
100 100 100 100 100 100 100 100 100 100 100 100 100 100 100 100 100 100 100 100 100 100 100 100 100 100 100 100 100 100 100 100 100 100 100 100 100 100 100 100 100 100 100
83 98 100 100 100 100 100 100 100 100 100 100 100 100 100 100 100 100 100 100 100 100 100 100 100 100 100 100 100 100 100 100 100 100 100 100 100 100 100 100 100 100 100
84 94 92 89 100 100 100 100 100 100 100 100 100 100 100 100 100 100 100 100 100 100 100 100 100 100 100 100 100 100 100 100 100 100 100 100 100 100 100 100 83 92 80
77 84 95 99 100 100 100 100 100 100 100 100 100 100 100 100 100 100 100 100 100 100 100 100 100 100 100 100 100 100 100 100 100 100 100 100 100 98 65 95 78 96 98
91 78 86 100 100 100 100 100 100 100 100 100 100 100 100 100 100 100 100 100 100 100 100 100 100 100 100 100 100 100 100 100 100 100 100 100 96 93 98 68 100 86 89
96 100 94 100 100 100 100 100 100 100 100 100 100 100 100 100 100 100 100 100 100 100 100 100 100 100 100 100 100 100 100 100 100 100 100 100 96 89 100 100 100 91 60
92 100 100 100 100 100 100 100 100 100 100 100 100 100 100 100 100 100 100 100 100 100 100 100 100 100 100 100 100 100 100 100 100 100 92 100 74 51 100 100 100 68 6
100 100 100 100 100 100 100 100 100 100 100 100 100 100 100 100 100 100 100 100 100 100 100 100 100 100 100 100 100 100 87 100 100 100 100 100 33 86 69 58 8 5 15
83 100 100 100 100 100 100 100 100 100 100 100 100 100 100 100 100 100 100 100 100 100 100 100 100 100 100 100 100 100 100 100 100 100 77 10 84 72 26 5 7 39 13
100 100 100 96 100 100 100 100 100 100 100 100 100 100 100 100 100 100 100 100 90 100 100 96 83 99 100 100 82 92 99 100 90 25 82 22 9 28 56 91 27 6 38
100 100 100 100 100 100 100 100 100 100 100 100 100 100 100 100 100 100 100 100 100 90 95 99 90 5 8 98 100 93 92 100 50 66 5 23 92 80 35 46 53 48 97
100 100 100 100 100 100 100 100 100 100 100 100 100 100 100 100 100 100 99 94 63 93 100 100 100 100 99 23 52 86 64 10 5 10 9 9 57 67 64 97 94 53 5
100 100 100 100 100 100 100 100 93 94 90 75 99 98 97 97 95 100 97 54 65 84 94 60 66 82 99 100 100 66 46 70 28 5 20 16 99 91 50 34 19 75 61

GFSGL_prec_cloud_066.txt.gz
Cloud_Cover
35 44 29 97 49 99 96 27 0 0 4 74 100 100 100 100 100 100 91 83 93 72 88 88 100 100 100 100 100 100 97 100 100 100 100 100 100 77 36 83 100 100 100
94 22 16 10 42 100 100 100 97 6 0 5 4 30 94 100 100 100 100 99 86 100 100 100 100 100 100 100 100 100 100 100 100 100 33 7 12 77 47 91 82 84 100
9 6 27 25 26 3 24 98 100 100 78 20 1 4 5 5 5 53 96 95 68 79 85 92 90 91 70 78 79 5 5 5 6 21 5 58 18 20 44 78 80 90 100
95 50 100 51 6 5 5 82 69 88 100 100 82 12 0 0 3 5 3 4 5 4 0 0 0 3 0 3 5 5 5 50 19 37 39 47 81 76 66 59 78 99 90
92 100 100 100 100 64 42 77 100 100 19 96 100 100 92 22 44 2 0 0 0 0 0 3 3 3 0 5 3 37 99 99 96 84 100 100 100 100 100 86 97 100 96
14 60 100 100 100 100 100 100 99 100 23 22 26 100 100 100 24 2 5 2 5 25 35 11 35 9 5 5 5 5 5 7 40 96 100 100 100 100 97 100 100 100 100
8 6 6 64 100 100 100 100 100 100 67 61 47 89 100 100 100 31 5 2 3 6 5 5 5 37 75 30 62 71 93 100 100 100 100 100 100 100 100 100 100 100 100
91 48 78 79 98 94 100 100 100 100 84 76 47 52 74 93 100 78 88 100 100 74 17 35 95 17 36 100 80 98 100 100 100 100 100 100 100 100 100 100 100 100 100
100 100 100 100 88 100 100 100 100 100 100 100 67 96 98 100 100 99 100 100 100 100 100 100 100 100 100 100 100 100 100 100 100 100 100 100 100 100 100 100 100 100 100
100 100 100 100 100 100 100 100 100 100 100 100 100 100 100 98 100 100 100 100 100 100 100 100 100 100 100 100 100 100 100 100 100 100 100 100 100 100 100 100 100 100 100
72 24 34 60 90 99 100 100 100 100 100 100 100 100 100 100 100 100 100 100 100 100 100 100 100 100 100 100 100 100 100 100 100 100 100 100 100 100 100 100 100 100 100
86 97 89 51 79 100 100 100 100 100 100 100 100 100 100 100 100 100 100 100 100 100 100 100 100 100 100 100 100 100 100 100 100 100 100 100 100 100 100 100 100 100 100
91 99 100 100 100 79 99 100 100 100 100 100 100 100 100 100 100 100 100 100 100 100 100 100 100 100 100 100 100 100 100 100 100 100 100 100 100 100 100 100 100 100 100
100 100 100 100 100 100 100 99 100 100 100 100 100 100 100 100 100 100 100 100 100 100 100 100 100 100 100 100 100 100 100 100 100 100 100 100 100 100 100 100 100 100 100
100 100 100 100 100 100 100 100 100 100 100 100 100 100 100 100 100 100 100 100 100 100 100 100 100 100 100 100 100 100 100 100 100 100 100 100 100 100 100 100 100 100 100
100 100 98 99 100 98 100 100 100 100 100 100 100 100 100 100 100 100 100 100 100 100 100 100 100 100 100 100 100 100 100 100 100 100 100 100 100 100 100 100 100 100 100
100 88 95 97 100 98 81 92 77 92 100 100 100 100 100 100 100 100 100 100 100 100 100 100 100 100 100 100 100 100 100 100 100 100 100 100 100 100 100 100 100 100 100
84 86 92 99 100 100 100 100 77 100 100 100 100 100 100 100 100 100 100 100 100 100 100 100 100 100 100 100 100 100 100 100 100 100 100 100 100 100 100 100 100 100 100
93 90 71 79 83 88 90 90 100 100 100 100 100 100 100 100 100 100 100 100 100 100 100 100 100 100 100 100 100 100 100 100 100 100 100 100 100 100 100 100 100 100 100
86 97 65 70 65 78 97 97 100 100 100 100 100 100 100 100 100 100 100 100 100 100 100 100 100 100 100 100 100 100 100 100 100 100 100 100 100 100 100 100 100 100 99
65 63 92 94 99 100 100 100 100 100 100 100 100 100 100 100 100 100 100 100 100 100 100 100 100 100 100 100 100 100 100 100 100 100 100 100 100 100 100 100 100 100 92
5 44 45 87 100 100 100 100 100 100 100 100 100 100 100 100 100 100 100 100 100 100 100 100 100 100 100 100 100 100 100 100 100 100 100 100 100 88 84 76 40 32 12
20 5 28 95 100 94 100 100 99 100 100 100 100 100 100 100 100 100 100 100 100 100 100 100 100 100 100 100 100 100 100 100 100 100 100 100 100 100 100 86 57 60 84
60 88 96 80 85 100 100 100 100 90 99 100 100 100 100 99 97 100 100 100 100 100 100 100 98 67 100 100 100 100 100 86 99 74 17 80 93 96 60 74 81 98 88
6 22 78 54 56 85 98 100 100 100 93 100 99 100 100 74 71 98 100 100 100 100 100 100 100 99 98 96 100 81 29 88 46 12 33 52 70 97 100 85 64 8 8
60 52 64 57 48 41 64 96 97 91 100 100 94 100 100 100 90 82 45 50 33 74 96 90 98 99 99 77 65 42 32 8 5 5 46 5 5 20 48 81 32 77 55

GFSGL_prec_cloud_069.txt.gz
Cloud_Cover
100 100 86 34 83 8 0 0 4 8 37 48 100 40 95 100 100 100 100 100 99 100 100 99 100 100 100 100 100 100 100 100 100 100 100 100 100 100 100 85 76 55 9
100 100 100 34 28 90 18 0 0 0 2 37 79 100 100 100 100 100 99 98 98 88 54 83 100 100 100 100 100 100 100 100 100 100 100 36 8 5 5 5 5 5 5
98 99 100 62 46 33 47 98 100 95 75 46 18 0 2 50 96 100 100 100 100 100 92 80 99 100 100 79 100 100 100 100 100 100 100 87 9 6 6 13 5 20 72
100 100 100 100 88 99 79 28 8 16 82 100 92 23 5 2 0 0 23 69 80 60 77 13 9 8 5 5 6 6 38 100 100 100 100 99 44 42 73 18 42 34 33
100 100 100 100 100 100 100 100 99 98 80 53 54 100 100 64 6 3 0 0 0 0 0 0 1 0 2 0 0 0 1 3 32 39 72 96 69 98 88 51 100 100 100
100 100 100 100 100 100 100 100 100 100 100 100 100 100 78 100 100 98 63 17 3 69 98 40 5 6 5 52 55 100 98 5 54 50 20 97 100 100 100 100 100 100 100
99 85 38 61 100 100 100 100 100 100 100 100 100 100 99 99 100 100 96 100 100 94 77 14 55 97 97 88 98 82 76 56 58 96 100 98 97 100 100 100 100 100 100
100 100 96 100 80 48 52 85 100 100 100 100 100 100 100 100 100 100 100 100 100 100 100 84 51 24 28 95 100 99 100 99 100 100 100 100 100 100 100 100 100 100 100
100 100 100 100 100 100 100 100 100 100 100 100 100 100 100 100 100 100 100 100 100 100 100 100 100 100 100 100 100 92 100 100 100 100 100 100 100 100 100 100 100 100 100
93 61 96 100 100 100 100 100 100 100 100 100 100 100 100 100 100 100 100 100 100 100 100 100 100 100 100 100 100 100 100 100 100 100 100 100 100 100 100 100 100 100 100
8 60 100 100 100 100 100 100 100 100 100 100 100 100 100 100 100 100 100 100 100 100 100 100 100 100 100 100 100 100 100 100 100 100 100 100 100 100 100 100 100 100 100
38 17 15 53 93 94 100 68 100 100 100 100 100 100 100 100 100 100 100 100 100 100 100 100 100 100 100 100 100 100 100 100 100 100 100 100 100 100 100 100 100 100 100
75 99 93 92 100 100 100 100 100 78 100 100 100 100 100 100 100 100 100 100 100 100 100 100 100 100 100 100 100 100 100 100 100 100 100 100 100 100 100 100 100 100 100
100 97 98 100 100 100 100 100 100 99 77 76 94 100 100 100 100 100 100 100 100 100 100 100 100 100 100 100 100 100 100 100 100 100 100 100 100 100 100 100 100 100 100
100 100 90 75 98 99 100 100 100 100 100 95 92 87 100 100 100 100 100 100 100 100 100 100 100 100 100 100 100 100 100 100 100 100 100 100 100 100 100 100 100 100 100
98 98 100 100 100 86 97 100 100 100 100 100 100 100 100 100 100 100 100 100 100 100 100 100 100 100 100 100 100 100 100 100 100 100 100 100 100 100 100 100 100 100 100
100 100 99 100 100 99 100 100 100 100 100 100 100 100 100 100 100 100 100 100 100 100 100 100 100 100 100 100 100 100 100 100 100 100 100 100 100 100 100 100 100 100 100
81 80 100 100 100 100 100 100 100 100 100 100 100 100 100 100 100 100 100 100 100 100 100 100 100 100 100 100 100 100 100 100 100 100 100 100 100 100 100 100 100 100 100
100 100 99 100 100 100 90 98 84 83 99 96 99 60 99 100 100 100 100 100 100 100 100 100 100 100 100 100 100 100 100 100 100 100 100 100 100 100 100 100 100 100 100
100 98 67 63 57 60 62 80 87 96 100 100 100 100 17 21 85 100 100 100 100 100 100 100 100 100 100 100 100 100 100 100 100 100 100 100 100 100 100 100 100 100 100
86 48 46 88 100 100 100 100 100 100 100 100 100 98 30 88 100 100 100 100 100 100 100 100 100 100 100 100 100 100 100 100 100 100 100 100 100 100 100 100 100 100 98
57 96 98 100 100 97 100 99 100 100 100 100 92 40 11 100 100 100 100 100 100 100 100 100 100 100 100 100 100 100 100 100 100 100 100 100 100 100 100 100 92 88 98
20 35 74 97 86 62 91 100 100 100 100 98 75 73 69 86 90 100 100 98 89 100 100 100 100 100 100 100 100 100 100 100 100 100 100 100 100 75 86 84 76 68 91
9 35 50 59 67 80 81 92 89 86 95 100 100 97 40 42 72 100 100 100 96 78 61 51 7 12 67 65 100 100 100 100 90 79 93 93 13 9 51 6 52 65 56
8 10 16 46 63 87 47 46 70 79 61 61 97 97 96 100 100 100 99 100 99 59 71 87 48 22 39 8 5 18 70 87 17 92 39 33 21 54 48 9 42 9 16
21 22 32 5 31 36 62 94 100 100 100 99 98 100 84 41 60 66 44 28 39 78 100 95 51 49 93 88 66 85 15 14 34 99 51 27 29 20 38 83 76 86 55

GFSGL_prec_cloud_072.txt.gz
Cloud_Cover
100 99 18 16 22 15 34 48 100 100 100 100 100 94 100 86 100 100 100 100 100 100 100 100 100 100 100 100 100 100 100 100 100 100 100 100 100 100 94 100 95 88 82
100 100 100 98 21 17 2 0 12 95 100 100 100 71 26 68 100 100 100 100 100 100 100 100 100 100 100 100 100 100 100 100 100 100 67 50 85 100 100 100 59 8 5
100 100 100 100 99 12 5 0 1 1 0 21 45 89 100 60 48 26 47 94 100 28 27 35 19 55 63 93 100 98 64 72 100 100 96 100 100 100 100 94 12 55 67
100 100 100 100 100 100 100 95 46 14 1 0 18 40 76 98 100 67 16 0 1 23 81 97 99 86 84 99 97 54 10 87 99 100 100 93 90 62 87 32 4 28 15
100 100 100 100 100 100 100 100 100 100 100 100 97 68 53 91 100 94 52 34 0 1 0 0 0 1 2 9 61 24 10 5 16 9 16 16 21 50 100 100 97 99 85
100 100 100 100 100 100 100 100 100 100 100 100 100 100 100 100 100 91 95 64 59 63 15 5 2 5 5 5 5 57 71 49 64 69 5 8 5 10 89 99 100 100 100
96 100 100 100 100 100 100 100 100 100 100 100 100 100 100 100 100 100 100 100 100 98 70 86 97 92 53 18 40 95 92 100 96 99 96 91 90 100 100 100 100 100 100
100 100 100 100 100 100 100 88 89 77 100 100 100 100 100 100 100 100 100 100 100 100 100 100 100 100 100 100 100 100 99 100 100 80 100 100 100 100 100 100 100 100 100
100 100 100 100 94 92 65 81 100 100 100 100 100 100 100 100 100 100 100 100 100 100 100 100 100 100 100 100 100 100 100 100 100 100 100 100 100 100 100 100 100 100 100
100 100 100 100 100 100 100 100 100 100 100 100 100 100 100 100 100 100 100 100 100 100 100 100 100 100 100 100 100 100 100 100 100 100 100 100 100 100 100 100 100 100 100
100 100 100 100 100 100 100 100 100 100 100 100 100 100 100 100 100 100 100 100 100 100 100 100 100 100 100 100 100 100 100 100 100 100 100 100 100 100 100 100 100 100 100
100 100 100 100 100 100 100 100 100 100 100 100 100 100 100 100 100 100 100 100 100 100 100 100 100 100 100 100 100 100 100 100 100 100 100 100 100 100 100 100 100 100 100
100 100 100 100 100 100 100 100 100 100 100 100 100 100 100 100 100 100 100 100 100 100 100 100 100 100 100 100 100 100 100 100 100 100 100 100 100 100 100 100 100 100 100
100 85 93 100 100 100 100 100 100 100 100 100 100 100 100 100 98 74 83 89 96 93 94 94 99 100 99 100 100 100 100 100 100 100 100 100 100 100 100 100 100 100 100
100 100 100 90 99 100 100 100 100 100 100 100 100 100 100 100 100 99 87 94 99 66 10 15 58 94 99 100 100 100 100 100 100 100 100 100 100 100 100 100 100 100 100
91 94 95 98 96 100 100 100 100 100 100 100 100 86 100 100 100 100 100 100 100 97 97 82 95 92 100 99 100 100 100 100 100 100 100 100 100 100 100 100 100 100 100
100 98 85 88 99 99 99 100 100 100 100 100 100 100 100 100 100 100 100 100 89 54 71 100 100 100 100 100 100 100 100 100 100 100 100 100 100 100 100 100 100 100 79
94 100 100 100 100 100 100 70 84 88 99 100 100 100 100 100 100 100 97 100 87 93 100 100 100 100 100 100 100 100 100 100 100 100 100 100 100 100 100 100 100 100 100
92 86 81 82 100 100 85 74 49 64 84 96 48 32 50 100 100 100 77 91 100 100 100 100 100 100 100 100 100 100 100 100 100 100 100 100 100 100 100 100 100 100 100
66 35 63 74 68 44 34 58 60 70 90 100 100 100 63 19 72 96 97 100 100 100 100 100 100 99 100 100 100 100 100 100 100 100 100 100 100 100 100 100 100 100 100
85 67 54 60 89 90 96 100 98 90 100 100 100 90 5 85 100 100 100 100 100 100 97 91 85 85 85 58 100 100 100 100 100 100 100 100 100 100 100 100 100 100 100
93 94 98 90 74 83 84 75 83 69 69 77 88 20 8 51 89 88 74 84 86 32 5 11 49 84 75 59 12 74 98 100 100 100 100 100 100 100 100 100 100 100 100
6 32 26 63 42 47 53 74 71 65 63 30 21 24 19 94 98 100 100 99 46 13 19 8 5 5 31 60 65 41 18 26 60 72 98 99 95 97 100 100 100 100 99
58 45 24 60 70 30 28 86 76 72 76 92 68 38 56 100 100 100 100 96 84 94 94 68 13 9 19 37 34 27 8 20 6 9 35 8 41 49 6 5 36 33 43
5 5 7 17 26 59 81 84 100 98 88 100 100 90 67 30 12 73 78 71 68 100 100 100 99 86 73 73 75 17 27 86 5 16 11 6 20 18 7 55 71 37 24
20 9 38 5 40 58 90 100 100 100 100 100 100 100 70 36 11 66 61 63 94 100 100 71 32 57 85 98 100 73 12 32 9 25 63 5 20 23 44 66 24 58 52

GFSGL_prec_cloud_075.txt.gz
Cloud_Cover
100 100 77 66 54 64 99 100 100 100 100 100 100 100 100 100 100 100 100 100 100 100 100 100 100 100 100 100 100 100 100 100 100 100 100 100 100 100 100 100 100 100 74
100 100 100 99 95 91 73 50 78 100 100 100 100 100 100 100 100 96 100 100 100 100 100 100 100 100 100 100 100 100 100 100 100 100 100 100 100 100 100 99 87 97 99
100 100 100 100 100 100 82 61 46 41 66 96 100 100 100 100 54 55 97 96 85 95 100 100 100 100 100 100 100 100 93 98 100 100 100 92 90 10 5 5 6 8 5
100 100 100 100 100 100 91 71 64 50 53 48 48 55 35 46 59 100 100 100 100 81 37 52 76 71 25 26 41 50 44 88 99 100 100 71 10 8 5 4 1 5 5
100 100 100 100 100 100 100 100 98 89 51 97 48 23 30 78 100 100 100 100 100 100 100 88 23 5 0 0 37 17 19 72 100 100 100 88 10 5 8 66 40 87 82
100 100 100 100 100 100 100 100 100 100 100 100 100 100 100 100 100 100 100 100 100 100 100 86 53 42 30 11 23 52 99 100 100 100 100 100 100 99 61 87 99 100 100
100 100 100 100 100 100 100 100 100 100 100 100 100 100 100 100 100 100 100 100 100 100 100 100 100 100 100 100 97 99 95 96 95 100 100 100 100 100 100 100 100 100 100
100 100 100 100 99 100 100 100 100 100 100 100 100 100 100 100 100 100 100 100 100 100 100 100 100 100 100 100 100 100 100 100 100 100 100 100 100 100 100 100 100 100 100
95 98 100 100 100 100 100 100 100 100 100 100 100 100 100 100 100 100 100 100 100 100 100 100 100 100 100 100 100 100 100 100 100 100 100 100 100 100 100 100 100 100 100
100 100 100 100 100 100 100 100 100 100 100 100 100 100 100 100 95 87 84 100 100 100 100 100 100 100 100 100 100 100 100 100 100 100 100 100 100 100 100 100 100 100 100
100 100 100 100 100 100 100 100 100 100 100 100 100 100 100 98 100 100 100 100 100 100 100 100 100 100 100 100 100 100 100 100 100 100 100 100 100 100 100 100 100 100 100
100 100 100 100 100 100 100 100 100 100 100 100 100 100 100 100 100 100 100 100 100 100 100 100 100 100 100 100 100 100 100 100 100 100 100 100 100 100 100 100 100 100 100
100 100 100 100 100 100 100 100 100 100 100 100 100 100 100 100 100 100 100 100 100 100 100 100 100 100 100 99 98 100 100 95 99 100 100 100 100 100 100 100 100 100 100
100 100 100 100 100 100 100 100 100 100 100 100 100 100 100 100 100 93 91 90 90 95 96 98 99 96 85 99 96 100 100 100 100 100 100 100 100 100 100 100 100 94 100
100 100 100 100 100 100 100 100 100 100 100 100 100 100 100 100 100 100 100 93 95 81 95 93 93 98 99 100 100 100 100 100 100 100 100 100 72 88 100 100 96 100 100
100 100 100 100 100 98 99 100 100 100 100 100 100 100 100 100 100 100 100 100 76 77 84 97 100 100 100 100 100 100 100 90 90 82 83 70 68 76 100 100 100 100 100
100 100 100 100 100 100 100 100 100 97 100 100 100 100 100 100 100 100 100 98 80 36 100 100 100 100 92 71 65 51 58 76 73 13 55 77 86 100 100 100 100 100 100
100 100 100 100 99 100 100 100 100 100 100 100 100 100 100 100 100 100 64 7 11 45 92 100 100 100 74 20 11 8 7 5 5 57 44 74 92 83 100 100 100 99 100
100 100 100 100 100 100 98 98 100 98 100 100 98 46 81 96 89 91 71 50 66 77 76 92 100 95 85 77 98 83 79 60 35 58 51 53 87 100 100 100 100 100 100
88 71 36 81 81 98 100 100 100 74 6 12 62 91 50 5 21 51 85 98 80 86 91 82 90 99 100 91 92 88 55 16 12 15 58 68 97 36 5 25 100 100 100
100 95 50 96 97 95 87 23 7 18 5 19 47 80 44 5 53 57 69 91 91 79 98 77 100 100 100 79 5 5 5 5 5 5 5 5 61 44 8 53 73 80 43
98 96 82 69 34 62 5 5 5 5 5 5 60 17 37 72 70 68 78 98 99 80 65 79 84 95 100 93 90 91 67 73 60 62 22 51 34 32 77 87 98 100 94
55 72 49 60 24 20 57 18 57 59 63 70 77 72 76 94 100 99 100 100 100 100 99 100 100 100 100 100 100 100 99 98 100 88 90 88 80 93 99 100 100 100 100
74 96 61 93 98 84 97 100 92 48 90 100 100 100 99 100 100 100 100 100 100 100 100 100 100 85 95 100 100 100 100 99 94 97 79 97 99 86 100 100 100 100 100
73 78 87 95 97 100 100 100 100 100 100 100 100 100 100 100 100 96 96 100 100 100 100 100 100 100 98 100 97 100 42 9 15 57 100 100 97 100 94 100 100 100 100
48 60 75 88 87 91 96 100 98 100 100 100 100 100 100 98 77 93 100 100 100 100 100 99 94 98 100 100 100 100 32 5 42 33 92 100 100 100 100 100 100 100 100

GFSGL_prec_cloud_078.txt.gz
Cloud_Cover
100 100 100 100 88 100 100 99 86 100 100 100 100 100 100 100 100 100 100 100 100 100 100 100 100 100 100 100 100 100 100 100 100 100 100 100 78 76 100 100 100 100 100
100 100 100 100 97 100 100 100 100 100 100 100 100 93 90 100 100 100 100 100 100 100 100 100 100 100 100 100 100 100 100 100 100 100 100 100 100 100 100 100 100 100 100
100 100 100 100 98 100 75 96 100 100 100 100 100 100 100 100 100 100 100 100 100 100 100 94 100 100 100 100 100 100 100 100 100 100 100 100 100 100 100 100 100 100 99
100 100 100 100 100 100 100 60 73 98 100 100 100 100 100 100 100 100 100 100 81 100 100 75 91 66 76 74 98 77 68 84 54 99 24 40 36 14 37 27 6 6 7
100 100 100 100 100 100 100 100 100 99 98 100 100 100 100 100 100 100 100 100 100 100 100 100 100 98 93 57 72 70 70 94 62 39 58 7 5 5 5 10 30 34 75
100 100 100 100 100 100 100 100 100 100 100 100 100 100 100 100 100 100 100 100 100 100 100 100 100 100 100 100 100 100 100 98 100 98 100 100 100 100 100 100 100 100 97
100 100 100 100 100 100 100 100 100 100 100 100 100 100 100 100 100 100 100 100 100 100 100 100 100 100 100 100 100 100 100 100 100 100 100 100 100 100 100 100 100 100 100
100 100 100 100 100 100 100 100 100 100 100 100 100 100 100 100 100 100 100 100 100 100 100 100 100 100 100 100 100 100 100 100 100 100 100 100 100 100 100 100 100 100 100
100 100 100 100 100 100 100 100 100 100 100 100 100 100 100 100 100 100 100 100 100 100 100 100 100 100 100 100 100 100 100 100 100 100 100 100 100 100 100 100 100 100 100
100 100 100 100 100 100 100 100 100 100 100 100 100 99 96 82 100 100 100 100 100 100 100 100 100 100 89 100 100 100 100 100 100 100 100 100 100 100 100 100 100 100 100
100 100 100 100 100 100 100 100 100 100 100 100 100 100 80 100 99 99 100 100 99 100 100 100 100 100 97 95 99 100 100 100 100 100 100 100 100 100 100 100 100 100 100
100 100 100 100 100 100 100 100 100 100 100 100 100 100 100 100 94 90 100 98 100 100 100 100 100 100 100 100 92 88 90 97 91 100 100 100 100 100 100 97 98 100 100
100 100 100 100 100 100 100 100 100 100 100 100 100 100 100 100 100 100 100 100 100 100 100 100 100 100 100 100 100 100 99 100 99 97 99 100 100 100 100 100 95 98 89
100 100 100 100 100 100 100 100 100 100 100 100 100 100 100 100 100 100 100 100 100 100 100 100 100 100 100 100 100 100 100 100 100 100 100 100 98 98 93 42 39 27 13
100 100 100 100 100 100 100 100 100 100 100 100 100 100 100 100 100 100 100 99 100 100 100 100 100 100 100 100 100 96 97 99 99 100 100 97 81 36 5 5 5 5 5
100 100 100 100 100 100 100 100 100 100 100 100 100 100 100 100 100 100 100 98 94 93 100 100 100 99 93 82 66 44 12 10 14 42 72 25 5 5 5 5 24 5 5
100 100 100 100 100 100 100 100 100 100 100 100 100 100 100 100 100 100 100 100 77 93 94 100 98 100 66 6 5 5 5 5 18 65 79 83 95 70 15 5 5 5 5
87 93 99 100 100 100 100 100 100 100 100 100 100 100 100 100 100 90 80 86 48 5 10 79 87 77 5 5 5 8 18 71 52 14 77 91 100 64 23 5 5 5 5
100 100 99 98 100 100 99 100 100 100 100 100 100 100 100 66 60 62 65 17 34 45 9 70 70 56 56 69 100 99 95 79 82 100 95 87 100 78 14 5 73 9 5
100 100 100 100 100 100 99 69 42 70 36 9 52 59 79 43 30 32 83 92 69 58 52 39 67 94 99 97 100 100 87 78 74 48 94 100 100 99 93 84 85 79 9
100 100 100 100 100 100 100 99 72 88 84 41 84 43 72 45 5 33 43 84 84 79 100 84 100 100 100 100 100 100 96 100 90 98 100 97 100 100 98 100 100 100 63
100 100 97 96 100 80 54 44 9 11 5 7 29 7 39 87 69 68 96 100 100 100 100 100 100 100 100 100 100 100 100 100 100 100 100 100 100 100 100 100 100 100 100
100 100 100 94 60 37 82 61 96 98 100 100 89 90 100 100 100 100 100 100 100 100 100 100 100 100 100 100 100 100 100 100 100 100 100 100 100 100 100 100 100 100 100
100 100 100 100 100 100 100 100 94 57 97 100 100 100 100 100 100 100 100 100 100 100 100 100 100 93 100 100 100 100 100 100 100 100 100 100 100 98 100 100 100 100 100
100 100 100 100 100 100 100 100 100 100 100 100 100 100 100 100 100 100 100 100 100 100 100 100 100 100 100 100 100 100 79 100 96 46 100 100 100 100 100 100 100 100 100
100 100 100 100 100 100 100 100 100 100 100 100 100 100 100 100 100 100 100 100 100 100 100 100 100 100 100 100 100 100 100 100 93 89 92 100 100 100 100 100 100 100 100

GFSGL_prec_cloud_081.txt.gz
Cloud_Cover
95 67 100 100 100 84 84 81 100 100 100 100 100 100 100 100 100 100 100 100 100 100 100 100 100 100 100 100 100 100 100 100 100 100 96 100 89 94 95 86 100 90 100
100 98 100 100 100 88 100 100 77 100 100 100 100 100 100 100 100 100 100 100 100 100 100 100 100 100 100 100 100 100 100 100 100 100 100 100 100 100 96 96 100 100 100
100 100 100 100 97 20 78 56 84 100 100 100 100 100 100 100 100 100 100 100 100 100 100 100 100 100 100 100 100 100 100 100 100 100 100 92 90 84 85 92 96 98 100
100 100 100 100 100 99 100 100 100 100 100 100 100 100 100 100 100 100 100 100 100 100 99 100 100 100 94 80 100 100 75 58 46 68 16 16 22 6 53 5 5 5 5
100 100 100 100 100 99 85 70 100 100 100 100 100 100 100 100 100 100 100 100 100 100 100 100 100 92 96 74 99 58 100 100 87 100 99 89 82 32 40 23 24 55 78
100 100 100 100 100 100 100 100 100 100 100 100 100 100 100 100 100 100 79 98 100 95 100 100 100 100 92 95 86 93 100 100 100 100 100 100 95 99 99 100 100 100 100
100 100 100 100 100 100 100 100 100 100 100 100 100 100 100 100 100 100 100 100 100 100 100 100 100 100 100 100 100 100 100 100 100 100 100 100 100 100 100 100 100 100 100
100 100 100 100 100 100 100 100 100 100 100 100 100 100 100 100 100 100 100 100 100 100 100 100 100 100 100 100 100 100 100 100 100 100 100 100 100 100 100 100 100 100 100
100 100 100 100 100 100 100 100 100 100 100 100 100 100 100 100 100 100 100 100 100 100 100 100 100 100 100 100 88 100 100 100 100 100 100 100 100 100 100 100 100 100 100
100 100 100 100 100 100 100 100 100 100 100 100 100 100 99 100 100 95 100 100 100 100 100 100 98 100 100 98 100 100 100 100 100 100 100 100 100 100 100 100 100 100 100
100 100 100 100 100 100 100 100 100 100 100 100 100 100 100 100 100 100 100 100 100 100 100 100 100 100 100 100 100 100 97 100 100 100 100 100 100 100 100 90 99 100 93
100 100 100 100 100 100 100 100 100 100 100 100 100 100 100 100 100 100 100 100 100 100 100 100 100 100 100 100 100 100 100 100 100 100 100 100 100 100 100 78 48 55 60
100 100 100 100 100 100 100 100 100 100 100 100 100 100 100 100 100 100 100 100 100 100 100 100 100 100 100 100 100 100 100 100 100 100 100 100 100 100 100 99 99 29 30
100 100 100 100 100 100 100 100 100 100 100 100 100 100 100 100 100 100 100 100 100 100 100 100 100 100 100 100 100 100 100 100 100 100 100 98 96 94 41 75 24 5 7
100 100 100 100 100 100 100 100 100 100 100 100 100 100 100 100 100 98 100 100 100 100 100 100 100 100 100 90 94 55 72 84 95 99 100 92 46 5 5 5 5 5 15
100 100 100 100 100 100 100 100 100 100 100 100 100 100 100 100 100 100 100 100 100 100 100 100 100 100 98 99 87 92 61 48 67 80 93 90 95 62 26 52 34 22 5
100 100 100 100 100 100 100 100 100 100 100 100 100 100 100 100 100 100 100 100 100 100 100 100 100 100 92 55 63 64 83 79 84 100 100 100 100 100 84 58 36 68 31
100 100 100 100 100 100 100 100 100 100 100 100 100 100 100 100 100 100 100 99 96 77 84 100 100 100 94 82 83 94 100 100 100 100 100 100 100 100 95 73 89 35 5
100 100 100 100 100 100 100 100 100 100 100 100 100 99 82 88 74 72 73 92 89 63 56 56 99 100 100 100 100 100 100 100 99 100 100 100 100 100 100 100 100 73 22
91 100 100 100 100 100 100 100 100 100 100 97 83 94 95 97 100 100 100 100 100 100 98 98 100 100 100 100 100 100 100 100 100 100 100 100 100 100 100 100 100 100 98
100 100 71 100 100 100 100 78 77 86 68 63 5 9 5 88 100 100 100 100 100 100 100 100 100 100 100 100 100 100 100 100 100 100 100 100 100 100 100 100 100 100 100
100 97 92 94 99 97 74 93 100 88 94 100 100 51 77 100 100 100 100 100 100 100 100 100 100 100 100 100 100 100 100 100 100 100 100 100 100 100 100 100 100 100 100
100 98 96 100 88 84 97 100 100 100 100 100 100 100 100 100 100 100 100 100 100 100 100 100 100 100 100 100 100 100 100 100 100 100 100 100 100 100 100 100 100 100 100
100 100 100 98 100 100 100 100 97 44 95 100 100 100 100 100 100 100 100 100 100 100 100 100 100 100 100 100 100 100 100 100 100 100 100 100 100 100 100 100 100 100 100
100 100 100 100 100 100 100 100 100 100 100 100 100 100 100 100 100 100 100 100 100 100 100 100 100 100 100 100 100 100 93 100 100 99 100 100 100 100 100 100 100 100 100
100 100 100 100 100 100 100 100 100 100 100 100 100 100 100 100 100 100 100 100 100 100 100 100 100 100 100 100 100 98 98 100 100 100 98 100 100 100 100 100 100 100 100

GFSGL_prec_cloud_084.txt.gz
Cloud_Cover
100 100 93 98 100 100 100 96 100 100 100 100 100 100 100 100 100 100 100 100 100 100 100 100 100 100 100 100 100 100 100 100 100 100 100 100 100 100 100 99 100 100 100
100 100 84 100 100 100 100 100 100 100 100 100 100 100 100 100 100 100 100 100 100 100 100 100 100 100 100 100 100 100 100 100 100 100 100 100 95 100 100 100 93 100 100
100 100 100 100 100 100 100 100 100 100 100 100 100 100 100 100 100 100 100 100 100 100 100 100 100 100 100 100 100 100 100 100 100 100 100 100 87 59 47 56 40 6 62
100 100 100 100 100 100 100 100 100 100 100 100 100 100 100 100 100 100 100 100 100 100 100 100 100 100 100 100 100 100 76 100 92 100 76 7 24 37 100 48 14 88 25
100 100 100 100 100 100 100 100 100 100 100 100 100 100 100 100 100 100 100 100 100 100 100 100 100 100 100 100 100 100 100 100 100 100 100 99 100 100 100 100 100 100 100
100 100 100 100 100 100 100 100 100 100 100 100 100 100 100 100 100 100 100 100 100 100 100 100 100 100 100 100 100 100 100 100 100 100 100 100 100 100 100 100 100 100 100
100 100 100 100 100 100 100 100 100 100 100 100 100 100 100 100 100 100 100 100 100 100 100 100 100 100 100 100 100 100 100 100 100 100 100 100 100 100 100 100 100 100 100
100 100 100 100 100 100 100 100 100 100 100 100 100 100 100 100 100 100 100 100 100 100 100 100 100 100 100 100 100 100 100 100 100 100 100 100 100 100 100 100 100 100 100
100 100 100 100 100 100 100 100 100 100 100 100 100 100 100 100 100 100 100 100 100 100 100 100 100 100 100 100 100 100 100 100 100 100 100 100 100 100 51 52 53 52 100
100 100 100 100 100 100 100 100 100 100 100 100 100 100 100 100 100 100 90 100 100 100 100 100 100 100 100 100 99 100 100 100 100 100 100 100 100 98 100 100 96 94 76
100 100 100 100 100 100 100 100 100 100 100 100 100 100 100 100 100 100 100 100 100 100 100 100 100 100 100 95 64 68 74 100 100 100 100 100 100 100 60 74 64 100 100
100 100 100 100 100 100 100 100 100 100 100 100 100 100 100 100 100 100 100 100 100 100 100 100 100 100 100 100 100 100 100 100 100 100 100 100 100 100 100 100 100 100 69
100 100 100 100 100 100 100 100 100 100 100 100 100 100 100 100 100 100 100 100 99 100 100 100 100 100 100 100 100 100 98 100 100 98 93 95 82 69 100 100 91 85 42
100 100 100 100 100 100 100 100 100 100 100 100 100 100 100 100 100 100 100 100 100 100 100 100 100 100 100 95 58 67 77 95 87 85 92 26 5 5 5 5 16 5 42
100 100 100 100 100 100 100 100 100 100 100 100 100 100 100 100 100 100 100 100 100 100 100 100 100 100 91 73 78 74 86 40 41 91 85 46 41 7 35 93 61 88 40
100 100 100 100 100 100 100 100 100 100 100 100 100 100 100 100 100 100 100 100 100 100 100 100 100 100 100 100 100 100 100 100 100 100 100 100 100 100 51 59 9 5 32
100 100 100 100 100 100 100 100 100 100 100 100 100 100 100 100 100 100 100 100 100 100 100 100 100 100 100 100 100 99 100 100 100 100 99 97 48 7 5 8 9 22 79
100 100 100 100 100 100 100 100 100 100 100 87 100 94 95 100 100 100 100 100 100 100 100 100 100 100 100 94 84 45 60 12 7 98 5 5 6 99 16 46 36 8 4
100 100 100 100 100 100 100 100 100 100 100 100 98 69 80 94 92 100 84 94 82 23 45 69 38 18 90 79 16 82 98 8 10 81 80 31 11 86 70 19 21 5 31
95 92 94 100 100 100 100 100 100 100 99 80 58 50 85 82 98 100 98 89 46 41 100 77 63 92 70 86 100 10 72 90 5 91 82 66 21 100 6 98 12 50 95
99 50 100 99 89 98 100 100 100 100 87 73 59 56 87 93 88 80 70 62 89 74 68 100 38 20 55 34 80 96 55 79 77 5 70 32 28 100 24 88 100 37 84
84 59 16 53 50 38 58 16 23 26 90 98 62 9 62 79 77 70 51 76 62 6 97 84 78 97 30 65 82 74 100 83 62 79 14 5 30 100 5 80 96 92 84
71 96 96 57 53 89 88 93 97 100 89 86 100 88 80 95 28 60 93 46 98 94 36 52 44 74 5 100 100 99 9 37 11 100 13 67 17 95 13 77 45 100 39
74 99 64 81 66 93 90 64 14 20 28 100 100 90 19 100 85 100 85 7 12 100 62 41 99 86 58 6 40 99 5 5 8 76 5 89 100 99 8 65 77 78 21
73 98 82 83 95 100 96 100 100 100 100 99 100 100 100 100 100 100 99 24 5 70 99 97 100 32 85 13 100 38 5 5 5 5 5 5 92 96 100 96 96 90 17
94 93 95 100 100 100 100 100 100 100 97 100 100 100 100 100 100 100 99 97 97 5 41 100 100 100 5 100 100 99 13 63 88 5 5 37 100 79 30 5 5 5 56

GFSGL_prec_cloud_090.txt.gz
Cloud_Cover
100 100 97 51 46 29 66 99 100 100 83 96 100 100 100 100 100 100 100 100 100 100 100 100 100 100 100 100 100 100 100 100 100 100 100 100 100 100 100 100 100 100 100
100 100 100 100 100 100 79 100 100 100 100 100 100 100 100 100 100 100 100 100 100 100 100 100 100 100 100 100 100 100 100 100 100 100 100 100 100 100 100 100 100 98 85
100 100 100 100 100 100 100 100 100 100 100 100 100 100 100 100 100 100 100 100 100 100 100 100 100 100 100 100 100 100 100 100 100 100 100 100 100 100 100 100 90 82 100
100 100 100 100 100 100 100 100 100 100 100 100 100 100 100 100 100 100 100 100 100 100 100 100 100 100 100 100 100 100 100 100 100 100 100 100 94 100 92 100 99 98 99
100 100 100 100 100 100 100 100 100 100 100 100 100 100 100 100 100 100 100 100 100 100 100 100 100 100 100 100 100 100 100 100 100 100 100 100 100 99 100 100 100 100 100
100 100 100 100 100 100 100 100 100 100 100 100 100 100 100 100 100 100 100 100 100 100 100 100 100 100 100 100 100 100 100 99 100 100 100 100 100 100 100 100 100 100 100
100 100 100 100 100 100 100 100 100 100 100 100 100 100 100 100 100 100 100 100 100 100 100 100 100 100 100 100 100 100 100 100 100 100 100 100 100 100 100 100 100 100 100
100 100 100 100 100 100 100 100 100 100 100 100 100 100 100 100 100 100 100 100 100 100 100 100 100 100 100 100 100 100 100 100 100 100 100 100 100 100 100 100 100 100 100
100 100 100 100 100 100 100 100 100 100 100 100 100 100 100 100 100 100 100 100 100 100 100 100 100 100 100 100 100 100 100 100 100 100 100 100 100 100 100 82 44 100 100
100 100 100 100 100 100 100 100 100 100 100 100 100 100 100 100 100 100 100 100 100 100 100 100 100 100 100 100 100 100 100 100 100 100 77 50 28 8 7 10 64 64 98
100 100 100 100 100 100 100 100 100 100 100 100 100 100 100 100 100 100 100 100 100 100 100 100 100 100 100 100 100 100 81 90 97 60 5 15 75 100 99 98 99 100 100
100 100 100 100 100 100 100 100 100 100 100 100 100 100 100 100 100 100 100 100 100 100 100 100 100 100 100 100 100 98 88 91 80 100 100 100 98 100 100 100 100 95 100
100 100 100 100 100 100 100 100 100 100 100 100 100 100 100 100 100 100 100 100 100 100 100 100 100 100 100 100 98 100 100 100 100 100 100 100 100 100 53 85 99 100 100
100 100 100 100 100 100 100 100 100 100 100 100 100 100 100 100 100 100 100 100 100 100 100 100 100 100 100 100 100 100 100 100 100 100 100 100 100 100 100 99 79 99 100
100 100 100 100 100 100 100 100 100 100 100 100 100 100 100 100 100 100 100 100 100 100 100 100 100 100 100 100 100 100 100 100 100 100 100 100 100 100 100 100 100 100 51
100 100 100 100 100 100 100 100 100 100 100 100 100 100 100 100 100 100 100 100 100 100 100 100 100 100 100 100 100 100 100 100 100 100 91 78 96 100 100 100 100 100 100
100 100 100 100 100 100 100 100 100 100 100 100 100 100 100 100 100 100 100 100 100 100 100 100 100 100 100 100 100 100 100 100 100 100 100 100 100 100 100 100 100 100 100
100 100 100 100 100 100 100 100 100 100 100 100 100 100 100 100 100 100 100 100 100 100 100 100 100 100 100 100 100 100 100 100 100 100 100 100 100 100 100 93 97 82 93
100 100 100 100 100 100 100 100 100 100 100 100 100 100 100 100 100 100 100 100 100 100 100 100 100 100 92 100 100 100 94 100 100 55 23 75 91 29 39 47 9 36 20
100 100 100 100 100 100 100 100 100 100 100 100 100 100 100 100 100 100 100 100 100 100 100 100 100 100 100 100 100 93 36 90 100 100 96 76 90 59 76 69 64 58 23
100 100 100 100 100 100 100 100 100 100 100 100 100 100 100 100 100 100 100 100 100 100 100 100 100 100 100 100 100 100 72 42 86 66 81 22 98 80 50 94 56 5 5
100 100 100 100 100 100 92 92 96 100 100 100 100 100 100 100 100 100 100 100 100 100 100 100 100 100 100 94 46 92 100 99 87 52 39 26 55 82 10 5 26 10 6
86 85 97 98 76 90 99 100 100 95 100 100 100 100 100 100 99 100 100 100 100 100 100 100 100 100 71 29 62 68 41 23 88 47 58 54 5 80 100 95 81 62 12
92 70 43 80 100 100 87 96 96 90 99 93 69 61 77 91 60 46 64 92 88 58 77 48 78 40 20 89 5 5 5 5 5 5 5 19 83 79 80 17 5 5 5
74 94 95 99 94 82 84 96 75 84 94 96 88 68 58 78 57 43 5 5 68 52 45 81 26 18 40 41 29 35 25 16 5 5 5 36 99 97 40 30 52 5 6
23 76 100 100 100 100 100 100 100 100 99 95 86 88 73 72 67 58 37 5 5 5 59 94 76 94 33 12 6 11 16 30 5 5 51 5 83 64 79 21 62 5 20

GFSGL_prec_cloud_093.txt.gz
Cloud_Cover
100 100 100 100 100 100 64 35 36 67 100 99 100 81 100 93 100 98 100 100 100 100 100 100 100 100 100 100 100 100 100 100 100 100 100 100 100 100 100 100 99 100 98
100 100 100 100 100 100 93 63 40 38 35 92 100 100 100 100 100 100 100 100 100 100 100 100 100 100 100 100 100 100 100 100 100 100 100 100 100 100 100 100 100 100 100
100 100 100 100 100 100 100 93 87 68 58 98 100 100 100 100 100 100 100 100 100 100 100 100 100 100 100 100 100 100 100 100 100 100 100 100 100 100 100 100 100 100 100
100 100 100 100 100 100 100 100 100 100 100 100 100 100 100 100 100 100 100 100 100 100 100 100 100 100 100 100 100 100 100 100 100 100 100 100 100 100 100 100 100 100 100
100 100 100 100 100 100 100 100 100 100 100 100 100 100 100 100 100 100 100 100 100 100 100 100 100 100 100 100 100 100 100 100 100 100 100 100 100 100 100 100 100 100 100
100 100 100 100 100 100 100 100 100 100 100 100 100 100 100 100 100 100 100 100 100 100 100 100 100 100 100 100 100 100 100 100 100 100 100 100 100 100 100 100 100 100 100
100 100 100 100 100 100 100 100 100 100 100 100 100 100 100 100 100 100 100 100 100 100 100 100 100 100 100 100 100 100 100 100 100 100 100 100 100 100 100 100 100 100 100
100 100 100 100 100 100 100 100 100 100 100 100 100 100 100 100 100 100 100 100 100 100 100 100 100 100 100 100 100 100 100 100 100 100 100 100 100 100 100 100 100 100 100
100 100 100 100 100 100 100 100 100 100 100 100 100 100 100 100 100 100 100 100 100 100 100 100 100 100 100 100 100 100 100 100 100 100 100 100 100 100 100 100 100 100 100
100 100 100 100 100 100 100 100 100 100 100 100 100 100 100 100 100 100 100 100 100 100 100 100 100 100 100 100 100 100 100 100 100 100 100 100 100 100 100 100 85 100 99
100 100 100 100 100 100 100 100 100 100 100 100 100 100 100 100 100 100 100 100 100 100 100 100 100 100 100 100 100 100 100 100 100 100 100 100 100 100 77 95 90 100 100
100 100 100 100 100 100 100 100 100 100 100 100 100 100 100 100 100 100 100 100 100 100 100 100 100 100 100 100 100 100 100 100 100 100 100 100 85 95 87 91 100 100 100
100 94 100 100 100 100 93 100 100 100 100 100 100 100 100 100 100 100 100 100 100 100 100 100 100 100 100 100 100 100 100 100 100 100 100 96 99 99 98 100 100 100 100
100 100 100 95 95 94 99 100 100 100 100 100 100 100 100 100 100 100 100 100 100 100 100 100 100 100 100 100 100 100 100 100 100 100 100 100 99 100 100 100 100 100 100
100 100 100 99 99 100 100 100 100 100 100 100 100 100 100 100 100 100 100 100 100 100 100 100 100 100 100 100 100 100 100 100 100 100 100 100 100 100 100 100 100 100 100
100 100 100 100 100 100 93 100 100 100 100 100 100 100 100 100 100 100 100 100 100 100 100 100 100 100 100 100 100 100 100 100 100 100 100 100 100 100 100 100 100 100 100
100 100 100 100 100 100 100 100 100 100 100 100 100 100 100 100 100 100 100 100 100 100 100 100 100 100 100 100 100 100 100 100 100 100 100 100 100 100 100 100 100 100 100
100 100 100 100 100 100 100 100 100 100 100 100 100 100 100 100 100 100 100 100 100 100 100 100 100 100 100 100 100 100 100 100 100 100 100 100 100 100 100 100 100 87 93
100 100 100 100 100 100 100 100 100 100 100 100 100 100 100 100 100 100 100 100 100 100 100 100 100 100 100 100 100 100 100 100 100 100 100 100 100 100 100 100 92 81 100
100 100 100 100 100 100 100 100 100 100 100 100 100 100 100 100 100 100 100 100 100 100 100 100 100 100 100 100 100 100 100 100 100 100 100 100 100 100 100 100 97 69 74
100 100 100 100 100 100 100 100 100 100 100 100 100 100 100 100 100 100 100 100 100 100 100 100 100 100 100 100 100 100 100 100 100 100 100 100 100 100 100 100 100 100 98
99 100 100 100 100 100 100 100 100 100 100 100 100 100 100 100 100 100 100 100 100 100 100 100 100 100 100 100 100 100 100 100 99 90 90 100 100 97 100 91 76 56 8
6 47 37 37 64 99 100 92 100 100 100 100 100 100 100 100 93 85 80 97 86 57 67 82 98 100 100 100 99 100 100 100 100 97 92 85 94 100 99 60 16 5 24
69 63 44 74 98 96 79 80 100 100 100 92 100 100 100 91 76 100 100 100 57 74 67 43 39 28 21 57 31 76 100 92 61 61 33 49 86 71 5 5 40 43 43
61 73 88 88 92 92 63 81 100 97 80 75 94 62 62 68 66 52 56 99 97 84 98 80 26 5 39 41 16 18 56 91 8 33 5 18 98 65 40 7 53 5 5
39 67 83 100 100 100 100 93 97 84 96 93 88 99 99 98 97 82 44 58 5 6 86 100 76 7 6 25 8 32 46 42 31 80 48 5 18 63 26 22 73 59 35

GFSGL_prec_cloud_096.txt.gz
Cloud_Cover
100 100 100 100 100 100 100 100 100 100 100 100 100 100 100 100 100 100 100 100 100 100 100 100 100 100 100 100 100 100 100 100 100 100 100 100 100 100 100 100 100 100 100
100 100 100 100 100 100 100 100 100 89 66 96 100 100 100 100 100 100 100 100 100 100 100 100 100 100 100 100 100 100 100 100 100 100 100 100 100 100 100 100 100 100 100
100 100 100 100 100 100 100 100 100 100 55 66 83 100 100 100 96 100 100 100 100 100 100 100 100 100 100 100 100 100 100 100 100 100 100 100 100 100 100 100 100 100 100
100 100 100 100 100 100 100 100 100 100 100 100 100 100 100 100 100 100 100 100 100 100 100 100 100 100 100 100 100 100 100 100 100 100 100 100 100 100 100 100 100 100 100
100 100 100 100 100 100 100 100 100 100 100 100 100 100 100 100 100 100 100 100 100 100 100 100 100 100 100 100 100 100 100 100 100 100 100 100 100 100 100 100 100 100 100
100 100 100 100 100 100 100 100 100 100 100 100 100 100 100 100 100 100 100 100 100 100 100 100 100 100 100 100 100 100 100 100 100 100 100 100 100 100 100 100 100 100 100
100 100 100 100 100 100 100 100 100 100 100 100 100 100 100 100 100 100 100 100 100 100 100 100 100 100 100 100 100 100 100 100 100 100 100 100 100 100 100 100 100 100 100
100 100 100 100 100 100 100 100 100 100 100 100 100 100 100 100 100 100 100 100 100 100 100 100 100 100 100 100 100 100 100 100 100 100 100 100 100 100 100 100 100 100 100
100 100 100 100 100 100 100 100 100 100 100 100 100 100 100 100 100 100 100 100 100 100 100 100 100 100 100 100 100 100 100 100 100 100 100 100 100 100 100 100 100 100 100
100 100 100 100 100 100 100 100 100 100 100 100 100 100 100 100 100 100 100 100 100 100 100 100 100 100 100 100 100 100 100 100 100 100 100 100 100 100 100 100 100 100 100
100 100 100 100 100 100 100 100 100 100 100 100 100 100 100 100 100 100 100 100 100 100 100 100 100 100 100 100 100 100 100 100 100 100 100 100 100 100 100 100 100 100 100
100 100 100 100 100 100 100 100 100 100 100 100 100 100 100 100 100 100 100 100 100 100 100 100 100 100 100 100 100 100 100 100 100 100 100 100 100 100 100 100 100 100 100
100 100 100 100 100 100 100 100 100 100 100 100 100 100 100 100 100 100 100 100 100 100 100 100 100 100 100 100 100 100 100 100 100 100 100 100 100 100 100 100 100 100 100
100 100 100 100 100 100 100 100 100 100 100 100 100 100 100 100 100 100 100 100 100 100 100 100 100 100 100 100 100 100 100 100 100 100 100 100 100 100 100 100 100 100 100
100 100 100 100 100 100 100 100 100 100 100 100 100 100 91 100 100 100 100 100 100 100 100 100 100 100 100 100 100 100 100 100 100 100 100 100 100 100 100 100 100 100 100
98 100 100 100 100 100 99 95 100 100 91 97 100 100 98 94 100 100 100 100 100 100 100 100 100 100 100 100 100 100 100 100 100 100 100 100 100 100 100 100 100 100 100
88 76 88 84 100 100 100 98 96 100 100 100 100 100 97 100 99 100 100 100 100 100 100 100 100 100 100 100 100 100 100 100 100 100 100 100 100 100 100 100 100 100 100
48 45 30 25 80 100 100 99 100 100 100 100 99 96 100 100 98 80 98 100 100 100 100 100 100 100 100 100 100 100 100 100 100 100 100 100 100 100 100 100 100 100 100
48 87 85 77 59 51 66 89 100 91 97 100 100 100 100 100 100 100 100 100 100 100 100 100 100 100 100 100 100 100 100 100 100 100 100 100 100 100 100 100 100 100 100
22 34 92 72 91 100 100 100 100 100 100 100 100 100 100 100 100 100 100 100 100 100 100 100 100 100 100 100 100 100 100 100 100 100 100 100 100 100 100 100 100 100 100
53 34 55 57 99 84 100 100 100 100 100 100 100 100 100 100 100 100 100 100 100 100 100 100 100 100 100 100 100 100 100 100 100 100 100 100 100 100 100 100 100 100 100
61 63 42 73 63 38 43 72 100 100 100 100 100 100 100 100 100 100 100 100 100 100 100 100 100 100 100 100 100 100 100 100 100 100 100 100 100 100 100 100 100 96 77
58 45 29 67 82 88 83 62 64 64 81 93 100 100 100 100 100 100 100 100 100 100 100 100 100 100 100 100 100 100 100 100 100 100 100 98 96 99 82 40 33 12 64
52 59 61 84 100 100 100 98 98 97 89 71 58 75 99 100 100 100 100 100 100 100 100 100 100 100 100 100 100 100 100 86 82 67 91 73 46 16 5 5 8 5 5
66 73 85 98 100 100 100 100 100 100 100 99 95 90 76 36 60 96 100 100 98 100 99 100 100 100 99 94 97 98 96 94 13 8 5 5 71 30 6 5 13 6 22
46 75 85 80 97 99 100 100 100 100 100 100 100 100 100 100 97 90 67 92 62 12 67 100 77 94 89 76 64 49 35 48 5 5 20 5 5 62 65 39 63 48 6

GFSGL_prec_cloud_099.txt.gz
Cloud_Cover
100 100 100 100 100 100 100 100 100 100 100 100 100 100 100 100 100 100 100 100 100 100 100 100 100 94 90 100 100 100 100 100 100 100 100 100 100 100 100 100 100 100 100
100 100 100 100 100 100 100 100 100 100 100 100 100 100 100 100 100 100 100 100 100 100 100 100 100 100 100 100 100 100 100 100 100 100 100 100 100 100 100 100 100 100 100
100 100 100 100 100 100 100 100 100 100 100 100 100 100 100 100 100 100 100 100 94 93 100 100 100 100 100 100 100 100 100 100 100 100 100 100 100 100 100 100 100 100 100
100 100 100 100 100 100 100 100 100 98 100 100 100 100 100 100 100 100 98 100 100 100 100 100 100 100 100 100 100 100 100 100 100 100 100 100 100 100 100 100 100 100 100
100 100 100 100 100 100 100 100 100 100 100 100 100 100 100 100 100 100 100 100 100 100 100 100 100 100 100 100 100 100 100 100 100 100 100 100 100 100 100 100 100 100 100
100 100 100 100 100 100 100 100 100 100 100 100 100 100 100 100 100 100 100 100 100 100 100 100 100 100 100 100 100 100 100 100 100 100 100 100 100 100 100 100 100 100 100
100 100 100 100 100 100 100 100 100 100 100 100 100 100 100 100 100 100 100 100 100 100 100 100 100 100 100 100 100 100 100 100 100 100 100 100 100 100 100 100 100 100 100
100 100 100 100 100 100 100 100 100 100 100 100 100 100 100 100 100 100 100 100 100 100 100 100 100 100 100 100 100 100 100 100 100 100 100 100 100 100 100 100 100 100 100
100 100 100 100 100 100 100 100 100 100 100 100 100 100 100 100 100 100 100 100 100 100 100 100 100 100 100 100 100 100 100 100 100 100 100 100 100 100 100 100 100 100 100
100 100 100 100 100 100 100 100 100 100 100 100 100 100 100 100 100 100 100 100 100 100 100 100 100 100 100 100 100 100 100 100 100 100 100 100 100 100 100 100 100 100 100
100 100 100 100 100 100 100 100 100 100 100 100 100 100 100 100 100 100 100 100 100 100 100 100 100 100 100 100 100 100 100 100 100 100 100 100 100 100 100 100 100 100 100
100 100 100 100 100 100 100 100 100 100 100 100 100 100 100 100 100 100 100 100 100 100 100 100 100 100 100 100 100 100 100 100 100 100 100 100 100 100 100 100 100 100 100
100 100 100 100 100 100 100 100 100 100 100 100 100 100 100 100 100 100 100 100 100 100 100 100 100 100 100 100 100 100 100 100 100 100 100 100 100 100 100 100 100 100 100
100 100 100 100 100 100 100 100 100 100 100 100 100 100 100 100 100 100 100 100 100 100 100 100 100 100 100 100 100 100 100 100 100 100 100 100 100 100 100 100 100 100 100
100 100 100 100 100 100 100 100 100 100 100 100 100 100 100 100 100 100 100 100 100 100 100 100 100 100 100 100 100 100 100 100 100 100 100 100 100 100 100 100 100 100 100
100 100 100 100 100 100 100 100 100 100 100 100 100 100 100 100 100 100 100 100 100 100 100 100 100 100 100 100 100 100 100 100 100 100 100 100 100 100 100 100 100 100 100
100 100 100 100 100 100 100 100 100 100 100 100 100 100 100 100 100 100 100 100 100 100 100 100 100 100 100 100 100 100 100 100 100 100 100 100 100 100 100 100 100 100 100
79 41 97 99 100 100 100 100 100 100 100 100 100 100 100 100 100 100 100 100 100 100 100 100 100 100 100 100 100 100 100 100 100 100 100 100 100 100 100 100 100 100 100
69 95 83 78 29 12 70 86 99 24 54 100 100 100 100 100 100 100 100 100 100 100 100 100 100 100 100 100 100 96 100 100 100 100 100 100 100 100 100 100 100 100 100
5 26 67 72 20 5 5 50 76 70 56 6 89 100 100 100 100 99 100 100 98 100 100 100 100 100 100 100 100 100 100 100 100 100 100 100 100 100 100 100 100 100 100
5 13 36 64 5 5 5 5 93 99 89 74 79 63 92 63 100 100 100 100 100 100 100 100 100 100 100 100 100 100 100 100 100 100 100 100 100 100 100 100 100 100 100
77 67 38 81 16 5 33 48 78 91 86 82 90 31 62 72 87 98 100 100 100 100 100 100 100 100 100 100 100 100 100 100 100 100 100 100 100 100 100 100 100 100 100
96 95 100 100 95 88 82 78 88 100 100 100 98 74 61 84 92 99 100 100 100 100 100 100 100 100 100 100 100 100 100 100 100 100 100 100 100 100 100 100 100 100 100
77 100 100 100 90 100 100 100 100 83 97 100 100 99 90 90 98 74 90 100 100 100 100 100 100 100 100 100 100 100 100 100 100 100 100 100 100 100 100 100 100 100 100
68 99 100 100 100 100 100 100 100 100 100 100 100 100 97 81 77 88 73 75 78 98 70 63 95 99 100 100 100 100 100 100 100 100 100 100 100 100 100 91 100 100 100
25 86 94 92 94 90 100 100 100 100 100 100 100 100 100 100 100 100 60 60 77 81 89 100 83 9 74 84 86 100 100 100 100 100 98 94 95 100 100 98 96 100 88

GFSGL_prec_cloud_102.txt.gz
Cloud_Cover
100 100 100 100 100 100 100 100 100 100 92 100 100 100 100 100 100 100 100 100 100 98 100 100 95 100 100 100 100 100 100 100 100 100 100 100 100 100 100 100 100 100 100
100 100 100 100 100 100 100 100 100 100 100 100 100 100 100 100 100 100 100 45 98 100 100 100 100 100 100 100 100 100 100 100 100 100 100 100 100 100 100 100 100 100 100
100 100 100 100 100 100 100 100 100 100 100 100 100 100 100 100 100 66 88 100 100 100 100 100 100 100 100 100 100 100 100 100 100 100 100 100 100 100 100 100 100 100 100
100 100 100 100 100 100 100 100 100 100 100 100 100 100 100 100 100 100 100 100 100 91 87 81 89 94 100 100 100 100 100 100 100 100 100 100 100 100 100 100 100 100 100
100 100 100 100 100 100 100 100 100 100 100 100 100 100 100 100 100 100 100 100 100 100 100 100 100 100 100 100 100 100 100 100 100 100 100 100 100 100 100 100 100 100 100
100 100 100 100 100 100 100 100 100 100 100 100 100 100 100 100 100 100 100 100 100 100 100 100 100 100 100 100 100 100 100 100 100 100 100 100 100 100 100 100 100 100 100
100 100 100 100 100 100 100 100 100 100 100 100 100 100 100 100 100 100 100 100 100 100 100 100 100 100 100 100 100 100 100 100 100 100 100 100 100 100 100 100 100 100 100
100 100 100 100 100 100 100 100 100 100 100 100 100 100 100 100 100 100 100 100 100 100 100 100 100 100 100 100 100 100 100 100 100 100 100 100 100 100 100 100 100 100 100
100 100 100 100 100 100 100 100 100 100 100 100 100 100 100 100 100 100 100 100 100 100 100 100 100 100 100 100 100 100 100 100 100 100 100 100 100 100 100 100 100 100 100
100 100 100 100 100 100 100 100 100 100 100 100 100 100 100 100 100 100 100 100 100 100 100 100 100 100 100 100 100 100 100 100 100 100 100 100 100 100 100 100 100 100 100
100 100 100 100 100 100 100 100 100 100 100 100 100 100 100 100 100 100 100 100 100 100 100 100 100 100 100 100 100 100 100 100 100 100 100 100 100 100 100 100 100 100 100
100 100 100 100 100 100 100 100 100 100 100 100 100 100 100 100 100 100 100 100 100 100 100 100 100 100 100 100 100 100 100 100 100 100 100 100 100 100 100 100 100 100 100
100 100 100 100 100 100 100 100 100 100 100 100 100 100 100 100 100 100 100 100 100 100 100 100 100 100 100 100 100 100 100 100 100 100 100 100 100 100 100 100 100 100 100
100 100 100 100 100 100 100 100 100 100 100 100 100 100 100 100 100 100 100 100 100 100 100 100 100 100 100 100 100 100 100 100 100 100 100 100 100 100 100 100 100 100 100
100 100 100 100 100 100 100 100 100 100 100 100 100 100 100 100 100 100 100 100 100 100 100 100 100 100 100 100 100 100 100 100 100 100 100 100 100 100 100 100 100 100 100
100 100 100 100 100 100 100 100 100 100 100 100 100 100 100 100 100 100 100 100 100 100 100 100 100 100 100 100 100 100 100 100 100 100 100 100 100 100 100 100 100 100 100
100 100 100 100 100 100 100 100 100 100 100 100 100 100 100 100 100 100 100 100 100 100 100 100 100 100 100 100 100 100 100 100 100 100 100 100 100 100 100 100 100 100 100
100 92 100 100 100 100 100 100 100 100 100 100 100 100 100 100 100 100 100 100 100 100 100 100 100 100 100 100 100 100 100 100 100 100 95 98 92 100 100 100 100 100 100
84 100 98 99 100 100 100 100 100 100 100 100 100 100 100 100 100 100 100 100 100 100 100 100 100 100 100 100 100 100 100 100 100 100 100 98 99 100 100 100 100 100 100
92 28 72 100 99 99 100 100 100 100 100 100 100 100 100 100 100 100 100 100 100 100 100 100 100 100 100 100 100 100 100 100 100 100 100 100 100 100 100 100 100 100 100
100 95 62 99 100 100 100 100 100 100 100 100 100 39 14 97 100 100 100 100 100 100 100 100 100 100 100 100 100 100 100 100 100 100 100 100 100 100 100 100 100 100 100
95 97 98 98 100 100 97 100 100 100 100 100 100 89 36 100 100 100 100 100 100 100 100 100 100 100 100 100 100 100 100 100 100 100 100 100 100 100 100 100 100 100 100
92 100 100 100 100 100 100 100 100 100 100 100 100 100 100 100 100 100 100 100 100 100 100 100 100 100 100 100 100 100 100 100 100 100 100 100 100 100 100 100 100 100 100
100 100 100 100 100 100 100 100 100 94 96 100 100 100 100 100 100 100 100 100 100 100 100 100 100 100 100 100 100 100 100 100 100 100 100 100 100 100 100 100 100 100 100
100 100 100 100 100 100 100 100 100 100 100 100 100 100 100 100 100 100 100 100 100 100 100 100 100 100 100 100 100 100 100 100 100 100 100 100 100 100 100 100 100 100 100
100 100 100 100 100 100 100 100 100 100 100 100 100 100 100 100 100 100 100 100 100 100 100 100 100 100 100 100 98 50 5 11 39 59 93 99 100 100 100 100 100 100 100

GFSGL_prec_cloud_105.txt.gz
Cloud_Cover
100 100 100 100 100 100 100 100 100 92 96 100 100 100 100 100 100 100 100 100 100 100 100 100 100 97 100 97 79 100 100 100 100 100 100 100 100 100 100 100 100 100 100
100 100 100 100 100 100 100 91 100 89 100 100 21 99 100 100 98 100 100 100 100 100 100 85 100 100 100 99 98 99 100 100 100 100 100 100 100 100 100 100 100 100 100
100 100 100 100 100 100 100 100 100 100 82 100 100 100 100 100 100 100 100 100 100 100 100 66 90 100 85 99 100 100 100 99 100 100 100 100 100 100 100 100 100 100 100
96 100 100 100 100 100 100 100 100 100 100 100 100 100 100 100 100 100 100 100 100 100 96 100 100 78 72 99 97 100 100 100 100 100 100 100 100 100 100 100 100 100 100
100 100 100 100 100 100 100 100 100 100 100 100 100 100 100 100 100 100 100 100 100 100 100 100 100 100 100 100 100 100 100 100 100 100 100 100 100 100 100 100 100 100 100
100 100 100 100 100 100 100 100 100 100 100 100 100 100 100 100 100 100 97 100 100 100 100 100 100 100 100 86 97 100 100 100 100 100 100 100 100 100 100 100 100 100 100
100 100 100 100 100 100 100 100 100 100 100 100 100 100 100 100 100 100 100 100 100 100 100 100 100 100 100 100 100 100 100 100 100 100 100 100 100 100 100 100 100 100 100
100 100 100 100 100 100 100 100 100 100 100 100 100 100 100 100 100 100 100 100 100 100 100 100 100 100 100 100 100 100 100 100 100 100 100 100 100 100 100 100 100 100 100
100 100 100 100 100 100 100 100 100 100 100 100 100 100 100 100 100 100 100 100 100 100 100 100 100 100 100 100 100 100 100 100 100 100 100 100 100 100 100 100 100 100 100
100 100 100 100 100 100 100 100 100 100 100 100 100 100 100 100 100 100 100 100 100 100 100 100 100 100 100 100 100 100 100 100 100 100 100 100 100 100 100 100 100 100 100
100 100 100 100 100 100 100 100 100 100 100 100 100 100 100 100 100 100 100 100 100 100 100 100 100 100 100 100 100 100 100 100 100 100 100 100 100 100 100 100 100 100 100
100 100 100 100 100 100 100 100 100 100 100 100 100 100 100 100 100 100 100 100 100 100 100 100 100 100 100 100 100 100 100 100 100 100 100 100 100 100 100 100 100 100 100
100 100 100 100 100 100 100 100 100 100 100 100 100 100 100 100 100 100 100 100 100 100 100 100 100 100 100 100 100 100 100 100 100 100 100 100 100 100 100 100 100 100 100
100 100 100 100 100 100 100 100 100 100 100 100 100 100 100 100 100 100 100 100 100 100 100 100 100 100 100 100 100 100 100 100 100 100 100 100 100 100 100 100 100 100 100
100 100 100 100 100 100 100 100 100 100 100 100 100 100 100 100 100 100 100 100 100 100 100 100 100 100 100 100 100 100 100 100 100 100 100 100 100 100 100 100 100 100 100
100 100 100 100 100 100 100 100 100 100 100 100 100 100 100 100 100 100 100 100 100 100 100 100 100 100 100 100 100 100 100 100 100 100 100 100 100 100 100 100 100 100 100
100 100 100 100 100 100 100 100 100 100 100 100 100 100 100 100 100 100 100 100 100 100 100 100 100 100 100 100 100 100 100 100 100 100 100 100 100 100 100 100 100 100 100
99 99 100 100 100 100 100 100 100 100 100 100 100 100 100 100 100 100 100 100 100 100 100 100 100 100 100 100 100 100 100 100 100 100 100 100 100 100 100 100 92 100 100
98 83 99 100 100 98 100 100 100 100 100 100 100 100 100 100 100 100 100 100 100 100 100 100 100 100 100 100 100 100 100 100 100 100 100 100 100 100 100 100 100 100 100
100 83 71 100 100 100 100 100 100 100 100 100 100 75 88 100 100 100 100 100 100 100 100 100 100 100 100 100 100 100 100 100 100 100 100 100 100 100 98 100 100 100 100
81 85 20 99 100 100 100 100 100 100 100 100 100 19 5 100 100 100 100 100 100 100 100 100 100 100 100 100 100 100 100 100 100 100 100 100 100 100 100 100 100 100 100
76 89 87 96 100 100 100 100 100 100 100 100 100 100 76 100 100 100 100 100 100 100 100 100 100 100 100 100 100 100 100 100 100 100 100 100 100 100 100 100 100 100 100
100 100 99 98 100 100 100 100 100 100 100 100 100 100 100 100 100 100 100 100 100 100 100 100 100 100 100 100 100 100 100 100 100 100 100 100 100 100 100 100 100 100 100
100 100 100 100 100 100 100 100 100 100 100 100 100 100 100 100 100 100 100 100 100 100 100 100 100 100 100 100 100 100 100 100 100 100 100 100 100 100 100 100 100 100 100
100 100 100 100 100 100 100 100 100 100 100 100 100 100 100 100 100 100 100 100 100 100 100 100 100 100 100 99 99 77 11 83 100 100 100 100 100 100 100 100 100 100 100
100 100 100 100 100 100 100 100 100 100 100 100 100 100 100 100 100 100 100 100 100 100 63 100 100 100 100 100 97 8 5 5 4 5 99 100 100 100 100 100 100 100 100

GFSGL_prec_cloud_108.txt.gz
Cloud_Cover
100 100 100 99 100 100 100 100 100 99 100 100 100 72 99 100 100 100 100 95 95 94 91 100 100 100 67 72 100 98 60 44 100 100 100 100 100 100 100 100 100 100 100
100 100 100 100 100 100 100 100 100 100 100 100 98 86 94 100 100 100 100 98 100 100 100 100 100 100 100 99 100 100 72 61 100 100 100 100 100 100 100 100 100 100 100
100 100 100 100 100 100 100 100 100 100 100 100 100 100 100 100 100 100 100 100 100 87 97 100 100 100 100 100 100 100 93 93 92 100 100 100 100 100 100 100 100 100 100
100 100 100 100 100 100 100 100 100 100 100 100 100 100 100 100 100 100 100 100 100 100 100 100 100 100 100 96 98 98 83 100 100 100 100 100 96 100 100 100 100 100 100
86 100 100 100 98 100 100 100 100 100 100 100 100 100 100 100 100 100 100 100 100 92 91 89 100 100 100 100 100 100 86 96 100 100 100 100 100 100 100 100 100 100 100
100 100 100 100 100 100 100 100 100 100 100 100 100 100 100 100 100 100 100 99 98 100 98 100 100 100 100 100 100 100 100 100 100 100 99 100 100 100 100 100 100 100 100
100 100 100 100 100 100 100 100 100 100 100 100 100 100 100 100 100 100 100 100 100 100 100 100 100 100 100 69 97 100 100 100 100 100 100 100 100 100 100 100 100 100 100
100 100 100 100 100 100 100 100 100 100 100 100 100 100 100 100 100 100 100 100 100 100 100 100 100 100 100 90 100 100 100 100 100 100 100 100 100 100 100 100 100 100 100
100 97 100 100 100 100 100 100 100 100 100 100 100 100 100 100 100 100 100 100 100 100 100 100 100 100 100 100 100 100 100 100 100 100 100 100 100 100 100 100 100 100 100
100 100 100 100 100 100 100 100 100 100 100 100 100 100 100 100 100 100 100 100 100 100 100 100 100 100 100 100 100 100 100 100 100 100 100 100 100 100 100 100 100 100 100
100 100 100 100 100 100 100 100 100 100 100 100 100 100 100 100 100 100 100 100 100 100 100 100 100 100 100 100 100 100 100 100 100 100 100 100 100 100 100 100 100 100 100
100 100 100 100 100 100 100 100 100 100 100 100 100 100 100 100 100 100 100 100 100 100 100 100 100 100 100 100 100 100 100 100 100 100 100 100 100 100 100 100 100 100 100
100 100 100 100 100 100 100 100 100 100 100 100 100 100 100 100 100 100 100 100 100 100 100 100 100 100 100 100 100 100 100 100 100 100 100 100 100 100 100 100 100 100 100
100 100 100 100 100 100 100 100 100 100 100 100 100 100 100 100 100 100 100 100 100 100 100 100 100 100 100 100 100 100 100 100 100 100 100 100 100 100 100 100 100 100 100
100 100 100 100 100 100 100 100 100 100 100 100 100 100 100 100 100 100 100 100 100 100 100 100 100 100 100 100 100 100 100 100 100 100 100 100 100 100 100 100 100 100 100
100 100 100 100 100 100 100 100 100 100 100 100 100 100 100 100 100 100 100 100 100 100 100 100 100 100 100 100 100 100 100 100 100 100 100 100 100 100 100 100 100 100 100
100 100 100 100 100 100 100 100 100 100 100 100 100 100 100 100 100 100 100 100 100 100 100 100 100 100 100 100 100 100 100 100 100 100 100 100 100 100 100 100 100 100 100
100 100 100 100 100 100 100 100 100 100 100 100 100 100 100 100 100 100 100 100 100 100 100 100 100 100 100 100 100 100 100 100 100 100 100 100 100 100 100 100 100 100 100
100 38 97 99 86 96 100 100 63 82 96 100 100 100 100 100 100 100 100 100 100 100 100 100 100 100 100 100 100 100 100 100 100 100 100 100 100 100 100 100 100 100 100
58 79 67 90 93 85 28 98 23 74 31 78 8 6 17 53 88 100 100 100 100 100 100 100 100 100 100 100 100 100 100 100 100 100 100 100 100 100 100 100 100 100 100
5 5 5 84 12 52 6 100 95 100 100 96 91 37 5 14 96 100 89 60 80 100 100 100 100 100 100 100 100 100 100 100 100 100 100 100 100 100 100 100 100 100 100
5 5 5 32 34 7 97 11 97 72 77 100 100 99 96 69 39 5 34 70 100 97 71 100 100 89 86 100 100 100 100 100 100 100 100 100 100 100 100 100 100 100 100
5 5 5 35 5 6 79 6 97 99 95 100 98 100 100 100 100 77 13 5 74 100 90 16 82 86 81 96 70 95 100 100 100 100 100 100 100 100 100 100 100 100 100
52 65 82 47 99 91 90 98 94 99 100 100 100 100 100 100 100 100 94 5 5 31 6 22 71 5 5 98 92 5 21 95 100 100 100 100 100 100 100 100 100 100 100
82 84 83 98 95 87 99 92 100 100 100 100 100 100 100 100 100 100 100 99 11 5 72 81 49 84 5 5 5 5 5 5 9 26 62 99 100 100 100 100 100 100 100
96 100 96 97 100 100 100 100 76 100 100 100 76 100 100 100 100 100 100 100 98 88 5 81 40 5 5 98 18 5 5 5 5 21 59 34 86 20 82 98 100 100 100

GFSGL_prec_cloud_111.txt.gz
Cloud_Cover
93 100 92 97 100 100 100 100 100 100 100 100 100 100 100 100 100 100 100 61 43 69 87 100 100 87 77 99 100 99 92 37 71 38 46 100 100 100 100 100 100 100 100
100 100 100 100 100 100 100 100 100 100 100 100 100 100 100 100 100 100 100 53 44 100 100 100 100 99 100 100 100 100 100 90 73 100 56 100 100 100 100 100 100 100 100
100 100 100 100 100 100 100 100 100 100 100 100 100 100 100 100 100 100 100 100 100 78 100 100 100 100 100 100 100 100 100 48 100 100 93 99 100 100 100 100 100 100 100
100 100 100 100 100 100 100 100 100 99 100 100 100 100 100 100 100 100 100 100 100 100 100 100 100 98 94 100 100 100 97 85 100 100 93 100 100 100 100 100 100 100 100
100 100 100 100 100 100 100 100 100 100 100 100 100 100 100 100 100 100 100 100 100 100 100 100 100 100 100 100 100 100 87 75 100 100 100 100 100 100 100 100 100 100 100
100 100 100 100 100 100 100 77 100 100 100 100 100 100 100 100 100 100 100 100 100 100 100 100 100 100 100 100 100 100 96 100 100 100 100 100 100 100 100 100 100 100 100
100 100 100 100 100 100 100 92 100 98 100 100 100 100 100 100 100 100 100 100 100 100 100 100 100 100 100 100 100 100 100 100 100 100 100 100 80 100 100 100 93 100 100
100 100 100 96 89 96 95 100 100 100 100 100 100 100 100 100 100 100 100 100 100 100 100 100 100 100 100 100 100 100 100 100 100 100 100 100 100 100 95 100 100 100 100
100 100 100 100 100 100 100 100 100 100 100 100 100 100 100 100 100 100 100 100 100 100 100 100 100 100 100 100 100 100 100 100 100 100 100 100 100 100 100 100 100 100 100
100 100 100 100 100 100 100 100 100 100 100 100 100 100 100 100 100 100 100 100 100 100 100 100 100 100 100 100 100 100 100 100 100 100 100 100 100 100 100 100 100 100 100
100 100 100 100 100 100 100 100 100 100 100 100 100 100 100 100 100 100 100 100 100 100 100 100 100 100 100 100 100 100 100 100 100 100 100 100 100 100 100 100 100 100 100
100 100 100 100 100 100 100 100 100 100 100 100 100 100 100 100 100 100 100 100 100 100 100 100 100 100 100 100 100 100 100 100 100 100 100 100 100 100 100 100 100 100 100
100 100 100 100 100 100 100 100 100 100 100 100 100 100 100 100 100 100 100 100 100 100 100 100 100 100 100 100 100 100 100 100 100 100 100 100 100 100 100 100 100 100 100
100 100 100 100 100 100 100 100 100 100 100 100 100 100 100 100 100 100 100 100 100 100 100 100 100 100 100 100 100 100 100 100 100 100 100 100 100 100 100 100 100 100 100
100 100 100 100 100 100 100 100 100 100 100 100 100 100 100 100 100 100 100 100 100 100 100 100 100 100 100 100 100 100 100 100 100 100 100 100 100 100 100 100 100 100 100
100 100 100 100 100 100 100 100 100 100 100 100 100 100 100 100 100 100 100 100 100 100 100 100 100 100 100 100 100 100 100 100 100 100 100 100 100 100 100 100 100 100 100
100 100 100 100 100 100 100 100 100 100 100 100 100 100 100 100 100 100 100 100 100 100 100 100 100 100 100 100 100 100 100 100 100 100 100 100 100 100 100 100 100 100 100
91 85 100 99 85 100 100 100 100 100 99 100 100 100 100 100 100 100 100 100 100 100 100 100 100 100 100 100 100 100 100 100 100 100 100 100 100 100 100 100 100 100 100
6 5 14 14 7 42 56 80 65 58 79 52 96 68 95 82 79 19 53 98 100 100 100 100 100 100 100 100 100 100 100 100 100 100 100 100 100 100 100 100 100 100 100
5 5 59 6 5 5 64 33 35 5 50 60 5 18 5 6 92 23 70 82 100 100 100 100 100 100 100 100 100 100 100 100 100 100 100 100 100 100 100 100 99 100 100
5 5 5 5 5 5 5 13 88 82 35 89 86 75 5 6 63 27 78 78 90 5 67 100 100 99 81 94 99 100 100 100 100 100 100 100 100 100 100 100 100 100 100
5 5 5 5 5 5 5 5 62 41 64 83 87 99 53 59 16 75 70 92 86 72 47 19 72 87 100 100 100 97 98 95 99 100 100 100 100 100 100 100 100 100 100
5 5 5 5 13 5 6 5 7 21 5 15 44 100 100 100 100 89 33 63 75 63 68 7 5 5 62 75 5 29 74 99 100 100 100 100 100 100 100 100 100 100 100
5 5 5 5 14 5 34 20 49 34 5 33 48 48 65 89 79 98 93 96 7 48 5 70 5 5 18 5 5 5 5 10 9 100 100 100 100 100 100 100 100 100 100
10 15 48 44 69 100 98 100 94 77 20 11 5 57 66 20 54 63 98 100 99 57 31 40 77 7 5 5 5 5 22 83 9 93 100 98 100 100 100 100 100 100 100
28 7 19 34 71 65 89 100 91 87 96 100 100 82 20 6 18 13 9 75 86 30 25 84 62 99 5 7 5 5 5 5 12 100 63 40 91 100 100 98 99 100 100

GFSGL_prec_cloud_114.txt.gz
Cloud_Cover
100 100 100 100 100 100 100 100 100 100 100 100 100 100 100 100 100 95 90 27 100 100 100 100 100 100 100 100 100 100 100 100 100 56 62 16 62 100 100 100 97 100 100
100 100 100 100 100 100 100 100 100 100 100 100 100 100 100 100 100 100 100 100 100 100 100 97 99 78 100 100 100 100 100 100 100 96 94 99 98 100 100 100 100 100 100
100 100 100 100 100 100 100 92 96 100 100 100 100 100 100 100 100 100 100 100 100 100 100 100 94 62 100 100 100 100 100 100 100 100 100 100 100 100 100 100 100 100 100
100 100 100 100 100 100 100 64 83 90 100 100 100 100 100 100 100 100 100 100 100 100 100 100 100 100 100 100 100 100 100 100 100 96 100 99 100 100 100 100 100 100 100
100 99 97 100 100 100 100 100 100 90 100 100 100 100 100 100 100 100 100 100 100 98 100 100 100 100 100 100 100 100 100 100 100 100 99 83 100 100 100 100 100 100 100
100 100 100 100 100 100 100 100 100 76 83 100 100 100 100 100 100 100 100 100 100 100 100 100 100 100 100 100 100 100 100 100 100 100 95 100 100 92 100 100 100 100 100
90 94 100 70 98 99 100 100 100 100 87 98 100 100 100 100 100 100 100 100 100 100 100 100 100 100 100 100 100 100 100 100 100 100 92 100 100 100 98 100 100 100 100
100 100 100 100 100 100 100 100 100 100 100 100 100 100 100 100 100 100 100 100 100 100 100 100 100 100 100 100 100 100 100 100 100 100 100 100 100 100 100 97 97 100 100
100 100 100 100 100 100 100 100 100 100 100 100 100 100 100 100 100 100 100 100 100 100 100 100 100 100 100 100 100 100 100 100 100 100 100 100 100 100 100 100 100 100 100
100 100 100 100 100 100 100 100 100 100 100 100 100 100 100 100 100 100 100 100 100 100 100 100 100 100 100 100 100 100 100 100 100 100 100 100 100 100 100 100 100 100 100
100 100 99 90 100 100 100 100 100 100 100 100 100 100 100 100 100 100 100 100 100 100 100 100 100 100 100 100 100 100 100 100 100 100 100 100 100 100 100 100 100 100 100
100 100 100 100 100 100 100 100 100 100 100 100 100 100 100 100 100 100 100 100 100 100 100 100 100 100 100 100 100 100 100 100 100 100 100 100 100 100 100 100 100 100 100
100 100 100 100 100 100 100 100 100 100 100 100 100 100 100 100 100 100 100 100 100 100 100 100 100 100 100 100 100 100 100 100 100 100 100 100 100 100 100 100 100 100 100
100 100 100 100 100 100 100 100 100 100 100 100 100 100 100 100 100 100 100 100 100 100 100 100 100 100 100 100 100 100 100 100 100 100 100 100 100 100 100 100 100 100 100
100 100 100 100 100 100 100 100 100 100 100 100 100 100 100 100 100 100 100 100 100 100 100 100 100 100 100 100 100 100 100 100 100 100 100 100 100 100 100 100 100 100 100
100 100 100 100 100 100 100 100 100 100 100 100 100 100 100 100 100 100 100 100 100 100 100 100 100 100 100 100 100 100 100 100 100 100 100 100 100 100 100 100 100 100 100
100 100 100 100 100 100 100 100 100 100 100 100 100 100 100 100 100 100 100 100 100 100 100 100 100 100 100 100 100 100 100 100 100 100 100 100 100 100 100 100 100 100 100
50 39 90 98 95 90 99 96 75 77 95 100 100 100 100 100 100 100 89 95 100 100 100 100 100 100 100 100 100 100 100 100 100 100 100 100 100 100 100 100 100 100 100
5 5 5 5 5 5 5 6 27 69 91 65 99 75 16 58 54 65 39 22 68 100 100 100 100 100 100 100 100 100 100 100 100 100 100 100 100 100 100 100 100 100 100
10 5 5 5 5 5 5 93 92 69 82 96 91 80 30 5 36 54 33 74 5 13 76 99 100 100 100 100 100 100 100 100 100 100 100 100 100 100 100 100 100 100 100
5 5 5 5 5 5 5 5 24 6 84 88 98 100 96 34 90 94 84 100 74 62 41 14 81 97 100 97 100 95 99 97 100 100 100 100 100 100 100 100 100 100 100
5 5 5 5 5 5 5 5 17 22 13 46 54 24 47 63 70 92 94 100 100 82 54 10 12 88 99 27 33 18 30 80 95 100 100 100 100 100 100 100 100 100 100
5 5 21 36 53 74 51 62 65 68 66 64 57 63 75 74 71 82 90 54 70 28 49 5 5 5 19 11 18 47 52 66 95 99 100 100 100 100 100 100 100 100 100
5 33 6 50 9 26 57 70 91 39 82 91 100 93 100 79 99 100 70 5 7 98 63 43 7 5 5 5 24 5 5 57 51 88 100 100 100 100 100 100 100 100 100
50 57 56 90 100 96 85 58 85 85 90 100 100 98 100 99 90 58 83 100 46 32 5 77 91 12 5 5 5 5 27 87 18 98 100 100 100 100 100 96 100 100 100
36 57 42 30 85 84 100 82 96 95 100 100 100 100 100 100 100 98 99 98 67 65 51 63 60 69 5 56 7 5 5 12 26 87 100 100 100 100 100 100 30 77 100

GFSGL_prec_cloud_117.txt.gz
Cloud_Cover
100 100 100 100 100 100 100 100 100 100 100 100 100 100 100 100 100 100 100 100 100 54 96 100 100 22 7 100 100 100 100 100 100 100 100 100 100 100 97 100 100 100 100
100 100 100 100 100 100 100 100 100 100 100 100 100 100 100 100 100 100 100 100 100 100 64 98 64 51 100 100 100 100 100 100 100 100 100 100 100 100 100 100 100 100 100
100 100 100 100 100 100 100 100 100 100 100 100 100 100 100 100 100 100 100 100 100 100 100 100 100 100 100 100 100 100 100 100 100 100 100 100 100 100 100 100 100 100 100
100 100 100 100 100 100 100 100 100 98 96 100 100 100 100 100 100 100 100 100 100 100 100 100 100 100 100 100 100 100 100 100 100 100 100 100 100 100 100 100 100 100 100
100 100 100 100 100 100 100 100 100 100 94 100 100 100 100 100 100 100 100 100 100 100 97 100 100 100 100 100 100 100 100 100 100 100 100 100 100 100 100 100 100 100 100
92 94 80 100 99 100 100 82 86 65 43 53 66 99 100 100 100 100 100 100 100 100 100 100 100 100 100 100 100 100 98 100 100 100 100 99 100 100 100 100 100 100 100
92 100 99 90 98 95 69 75 100 86 78 91 74 95 100 100 100 100 100 100 100 100 100 100 100 100 100 100 100 100 100 100 100 100 100 100 100 100 100 100 100 100 100
100 100 100 96 100 100 100 94 99 100 91 99 97 89 92 98 100 100 100 100 100 100 100 100 100 100 100 100 100 100 100 100 100 100 100 100 100 100 100 100 100 100 100
100 100 100 100 100 100 100 100 99 69 86 94 98 98 97 100 100 100 100 100 100 100 100 100 100 100 100 100 100 100 100 100 100 100 100 100 100 100 100 100 100 100 100
100 100 100 100 100 100 100 100 48 77 77 98 99 100 100 100 99 100 100 100 100 100 100 100 100 100 100 100 100 100 100 100 100 100 100 100 100 100 100 100 100 100 100
100 100 100 100 99 100 100 100 100 100 100 100 94 100 100 100 100 100 100 100 100 100 100 100 100 100 100 100 100 100 100 100 100 100 100 100 100 100 100 100 100 100 100
100 100 100 100 100 100 100 100 100 100 100 96 100 100 100 100 100 100 100 100 100 100 100 100 100 100 100 100 100 100 100 100 100 100 100 100 100 100 100 100 100 100 100
100 100 100 100 100 100 100 100 100 100 100 100 100 100 100 100 100 100 100 100 100 100 100 100 100 100 100 100 100 100 100 100 100 100 100 100 100 100 100 100 100 100 100
100 100 100 100 100 100 100 100 100 100 100 100 100 100 100 100 100 100 100 100 100 100 100 100 100 100 100 100 100 100 100 100 100 100 100 100 100 100 100 100 100 100 100
100 100 100 100 100 100 100 100 100 100 100 100 100 100 100 100 100 100 100 100 100 100 100 100 100 100 100 100 100 100 100 100 100 100 100 100 100 100 100 100 100 100 100
100 100 100 100 100 100 100 100 100 100 100 100 100 100 100 100 100 100 100 100 100 100 100 100 100 100 100 100 100 100 100 100 100 100 100 100 100 100 100 100 100 100 100
100 100 100 100 100 100 100 100 100 100 100 100 100 100 100 100 100 100 100 100 100 100 100 100 100 100 100 100 100 100 100 100 100 100 100 100 100 100 100 100 100 100 100
37 30 50 62 69 75 98 86 94 100 99 52 8 14 36 26 89 100 100 100 100 100 100 100 100 100 100 100 100 100 100 100 100 100 100 100 100 100 100 100 100 100 100
5 15 70 75 70 74 70 74 14 36 96 99 53 21 26 5 5 8 78 94 91 78 82 89 100 100 100 100 100 100 100 100 100 100 100 100 100 100 100 100 100 100 100
13 7 8 5 27 5 5 5 5 27 41 79 98 100 72 6 68 46 38 75 6 5 5 5 42 89 86 92 100 100 100 100 100 100 100 100 100 100 100 100 100 100 100
7 5 5 5 6 5 12 7 8 52 66 60 64 84 87 74 96 96 87 86 99 58 27 5 7 42 20 5 5 5 44 58 93 100 100 100 100 100 100 100 100 100 100
5 5 5 20 45 21 20 18 61 40 53 28 23 44 71 66 69 89 68 100 99 75 57 11 5 34 21 19 28 60 6 94 100 100 100 100 100 93 100 100 100 100 100
6 33 26 5 18 37 56 68 69 64 84 93 97 84 89 86 95 91 77 64 25 56 65 23 8 5 5 5 22 26 53 100 100 100 100 100 100 100 93 66 77 100 100
59 58 7 31 51 49 65 89 38 55 86 100 100 100 100 100 94 98 88 100 93 69 99 99 58 12 5 5 27 5 5 46 72 94 100 100 100 100 100 100 92 30 99
44 52 58 77 98 100 69 45 17 21 51 100 100 100 98 100 100 100 100 99 100 100 92 87 100 53 37 8 26 5 29 100 40 66 80 98 100 100 100 100 88 90 100
27 16 42 16 96 99 100 100 99 65 71 60 98 100 100 100 100 100 100 100 100 100 99 85 84 100 100 96 99 27 98 99 100 100 6 76 76 96 100 92 74 5 38

GFSGL_prec_cloud_120.txt.gz
Cloud_Cover
100 100 100 100 100 100 100 100 100 100 100 100 100 100 100 100 100 100 100 100 100 100 100 100 100 91 100 100 100 100 100 93 62 18 7 48 92 100 100 100 100 100 100
100 100 100 100 100 100 100 100 100 100 100 100 100 100 100 100 100 100 100 100 100 100 100 100 100 70 100 100 100 100 100 94 56 83 100 100 100 100 100 100 100 100 100
100 100 100 100 100 100 100 100 100 100 100 100 100 100 100 100 100 100 100 100 100 100 100 100 100 100 100 100 100 100 61 100 100 100 100 100 100 100 100 100 100 100 100
100 100 100 100 100 100 100 100 100 100 100 100 100 100 100 100 100 100 100 100 100 100 100 100 100 100 100 100 95 67 84 100 100 100 100 100 100 100 100 100 100 100 100
100 96 68 93 92 96 100 100 100 100 100 100 100 100 100 100 100 100 99 100 100 100 100 100 100 100 100 100 100 100 100 100 100 100 100 100 100 100 100 100 100 100 100
97 100 69 85 100 100 100 100 99 100 98 100 100 100 100 100 100 100 100 96 100 100 100 100 100 100 100 86 100 100 100 100 100 100 100 100 100 100 100 100 100 100 100
100 100 90 100 100 100 100 100 84 86 98 100 100 100 100 100 100 100 100 98 100 100 100 100 100 100 100 100 100 100 100 100 100 100 100 100 100 100 100 100 100 100 100
100 100 100 100 100 100 100 79 78 85 98 100 100 100 100 100 100 98 96 99 98 91 96 100 100 100 100 100 100 100 100 100 100 100 100 100 100 100 100 100 100 100 100
100 100 100 100 100 100 100 100 100 100 100 95 100 99 98 97 100 100 98 100 100 84 97 100 100 100 100 100 100 100 100 100 100 100 100 100 100 100 100 100 100 100 100
100 100 100 100 100 100 100 100 100 100 100 99 100 100 100 100 100 100 100 100 97 100 100 99 100 100 100 100 100 100 100 100 100 100 100 100 100 100 100 100 100 100 100
100 100 100 100 100 100 100 100 100 100 100 100 98 98 97 100 100 100 100 100 100 100 100 100 100 100 100 100 100 100 100 100 100 100 100 100 100 100 100 100 100 100 100
100 100 100 100 100 100 100 100 100 100 100 100 100 100 100 100 100 98 100 100 100 100 100 100 100 100 100 100 100 100 100 100 100 100 100 100 100 100 100 100 100 100 100
100 100 100 100 100 100 100 100 100 100 100 100 100 100 100 100 100 100 100 100 100 100 100 100 100 100 100 100 100 100 100 100 100 100 100 100 100 100 100 100 100 100 100
100 100 100 100 100 100 100 100 100 100 100 100 100 100 100 100 100 100 100 100 100 100 100 100 100 100 100 100 100 100 100 100 100 100 100 100 100 100 100 100 100 100 100
100 100 100 100 100 100 100 100 100 100 100 100 100 100 100 100 100 100 100 100 100 100 100 100 100 100 100 100 100 100 100 100 100 100 100 100 100 100 100 100 100 100 100
100 100 100 100 100 100 100 100 100 100 100 100 100 100 100 100 100 100 100 100 100 100 100 100 100 100 100 100 100 100 100 100 100 100 100 100 100 100 100 100 100 100 100
82 95 100 100 100 100 100 100 100 100 100 100 100 94 100 100 100 100 100 100 100 100 100 100 100 100 100 100 100 100 100 100 100 100 100 100 100 100 100 100 100 100 100
100 100 100 80 72 82 100 99 96 100 100 71 23 50 46 88 60 30 5 5 24 96 100 100 100 100 100 100 100 99 100 100 100 100 100 100 100 100 100 100 100 100 100
48 60 63 61 64 71 65 60 70 56 45 48 81 23 52 5 5 5 5 22 9 5 11 23 65 83 93 100 100 100 100 100 100 100 100 100 100 100 100 100 100 100 100
48 8 31 10 23 43 53 24 5 6 5 5 76 100 31 5 81 37 48 82 46 48 12 5 5 5 5 6 25 70 32 98 99 100 100 100 100 100 100 100 100 100 100
67 6 45 7 22 58 82 98 79 79 100 94 77 72 76 88 90 99 65 67 79 77 88 83 57 5 5 5 5 5 5 72 100 100 100 100 100 100 100 100 100 100 100
58 40 9 66 29 29 67 62 56 55 74 96 99 66 18 67 99 100 100 100 99 86 80 100 87 68 57 57 51 5 5 31 100 100 100 100 100 100 99 100 100 100 100
30 28 5 5 14 32 6 5 43 71 83 80 100 100 100 100 99 100 100 100 100 100 100 100 100 92 53 91 100 69 5 5 98 97 100 100 100 100 100 100 97 98 100
5 5 5 28 44 37 12 35 5 15 31 79 96 100 98 100 100 100 100 100 100 99 100 100 100 100 100 98 100 100 5 15 26 68 14 81 100 100 98 72 81 82 91
46 5 5 95 98 87 10 42 30 60 20 55 99 100 70 92 100 99 82 100 94 99 99 100 100 100 100 100 94 90 100 84 9 97 9 5 27 84 98 99 68 5 5
38 5 34 10 86 60 94 100 100 77 96 100 100 99 63 54 47 54 53 5 55 6 40 69 76 76 86 100 100 100 100 97 15 100 95 5 5 49 93 94 93 30 5

GFSGL_prec_cloud_123.txt.gz
Cloud_Cover
100 100 100 100 100 100 100 100 100 100 100 100 100 100 100 100 100 100 100 100 100 100 100 100 100 100 100 100 100 96 100 100 100 100 21 49 5 5 60 99 100 100 99
100 100 100 100 100 100 100 100 100 100 100 100 100 100 100 100 100 100 100 100 100 100 100 100 100 100 100 100 100 100 100 100 100 100 100 100 21 20 28 100 100 100 100
100 100 100 100 100 100 100 100 100 100 100 100 100 100 100 100 100 100 100 100 100 100 100 100 100 100 100 100 100 100 100 100 100 100 100 100 46 68 100 100 100 100 100
100 100 100 100 100 100 100 90 100 100 100 100 100 100 100 100 100 100 100 100 100 100 100 100 100 100 100 100 100 100 100 100 100 100 100 100 100 100 100 100 100 100 100
98 95 100 95 100 93 100 100 97 89 100 100 100 100 100 100 100 100 100 100 100 100 100 100 100 100 100 100 100 100 100 100 100 99 100 100 100 100 100 100 100 100 100
100 96 92 100 100 95 100 100 100 72 94 94 100 100 100 100 98 100 100 100 100 100 100 100 100 100 100 100 100 100 100 100 100 100 100 100 100 100 100 100 100 100 100
100 99 100 100 100 100 100 100 98 90 99 98 94 96 96 76 97 100 98 100 100 100 100 100 100 100 100 100 100 100 100 100 100 100 100 100 100 100 100 100 100 100 100
95 100 99 100 100 100 100 100 100 91 92 99 96 100 97 90 95 100 90 84 84 100 100 100 100 100 98 99 100 100 100 100 100 100 100 100 100 100 100 100 100 100 100
100 100 100 100 100 100 100 100 92 81 100 100 100 98 99 90 98 95 47 66 90 100 100 100 100 100 100 88 99 100 100 100 100 100 100 100 100 100 100 100 100 100 100
100 100 100 100 100 100 100 100 100 74 82 100 100 100 100 100 100 92 7 5 89 80 97 93 100 100 100 100 100 100 100 100 100 100 100 100 100 100 100 100 100 100 100
100 100 100 100 100 100 100 100 97 100 100 100 100 100 100 100 98 98 99 100 96 97 99 100 100 100 100 100 100 100 100 100 100 100 100 100 100 100 100 100 100 100 100
100 100 100 100 100 100 100 100 100 100 100 100 100 100 100 100 100 100 100 100 100 100 100 100 100 100 100 100 100 100 100 100 100 100 100 100 100 100 100 100 100 100 100
100 100 100 100 100 100 100 100 100 100 100 100 100 100 100 100 100 100 100 100 100 100 100 100 100 100 100 100 100 100 100 100 100 100 100 100 100 100 100 100 100 100 100
100 100 100 100 100 100 100 100 100 100 100 100 100 100 100 100 100 100 100 100 100 100 100 100 100 100 100 100 100 100 100 100 100 100 100 100 100 100 100 100 100 100 100
100 100 100 100 100 100 100 100 100 100 100 100 100 100 100 100 100 100 100 98 100 100 100 100 100 100 100 100 100 100 100 100 100 100 100 100 100 100 100 100 100 100 100
100 100 100 100 100 100 100 100 100 100 100 100 100 100 100 100 100 100 100 100 100 100 100 100 100 100 100 100 100 100 100 100 100 100 100 100 100 100 100 100 100 100 100
100 100 100 100 100 100 100 100 100 63 61 100 95 99 100 80 99 33 8 29 100 66 100 100 100 100 100 100 100 100 100 100 100 100 100 100 100 100 100 100 100 100 100
100 100 94 88 38 39 45 40 19 21 80 98 88 10 5 16 25 12 5 5 5 27 70 76 96 100 91 100 100 100 100 100 100 100 100 100 100 100 100 100 100 100 100
100 72 9 20 5 5 22 40 75 94 100 100 100 82 40 5 6 19 31 27 62 72 74 100 100 75 76 87 100 97 95 90 95 100 100 100 100 100 100 100 100 100 100
100 100 54 58 80 97 100 90 80 74 84 100 100 100 100 96 94 100 100 100 100 100 100 99 100 100 100 100 100 100 68 85 66 84 100 100 100 100 100 100 100 100 100
100 100 100 43 65 94 86 62 56 66 67 68 100 100 100 100 100 100 100 100 100 100 100 100 100 100 100 100 100 100 100 82 87 100 100 100 100 100 100 100 100 100 100
100 100 99 100 5 5 5 5 14 7 11 66 92 87 94 100 100 100 100 100 100 100 100 100 100 100 100 100 100 100 100 100 94 100 100 100 100 100 100 100 100 100 100
100 100 100 100 11 5 5 5 11 6 21 64 74 89 99 100 100 100 100 100 100 100 100 100 100 100 100 100 100 100 100 100 100 98 98 100 100 100 100 100 100 100 100
100 100 100 100 63 5 5 6 5 5 5 5 72 100 100 100 100 100 100 100 100 100 100 100 100 100 100 100 100 100 100 100 100 77 65 99 100 100 100 100 100 100 100
100 100 100 100 80 6 5 5 5 5 5 53 95 100 100 100 100 100 100 98 74 76 62 75 91 64 52 96 100 100 100 100 100 76 7 88 96 100 100 100 100 100 100
100 100 100 94 54 32 5 5 5 5 9 84 100 100 100 100 100 100 100 98 80 77 79 73 76 68 74 61 62 100 100 100 100 100 42 96 100 100 100 100 100 100 100

GFSGL_prec_cloud_126.txt.gz
Cloud_Cover
100 100 100 100 100 100 100 100 100 100 100 100 100 100 100 100 100 100 100 100 100 100 100 100 100 100 100 100 100 100 98 40 48 52 98 76 51 43 100 52 26 99 26
100 100 100 100 100 100 100 100 100 100 100 100 100 100 100 100 100 100 100 100 100 100 100 100 100 100 100 100 100 100 100 100 100 37 5 28 18 6 4 99 90 82 33
92 89 100 100 98 99 100 100 100 100 100 100 100 100 100 100 100 100 100 100 100 100 100 100 100 100 100 100 100 100 100 100 100 100 100 100 70 100 99 79 60 75 100
7 14 100 100 100 100 100 100 100 100 100 96 100 100 100 100 100 100 100 100 100 100 100 100 100 100 100 100 100 100 100 100 98 100 100 100 65 40 84 79 100 100 100
52 6 85 100 100 100 100 100 100 100 87 100 88 100 98 100 100 100 100 100 100 100 100 100 100 100 100 100 100 100 100 100 100 100 100 100 100 93 99 99 90 82 100
5 5 5 87 100 100 100 100 100 100 84 97 100 100 62 8 85 99 100 100 100 100 100 100 100 100 100 100 100 100 100 100 100 100 100 100 100 98 100 100 100 100 100
44 25 7 97 99 100 100 100 100 99 78 99 92 99 88 31 58 74 97 100 100 100 100 100 100 100 100 100 100 100 100 100 100 100 100 100 100 100 100 100 100 100 100
63 71 74 98 100 100 100 100 100 100 100 100 100 100 96 41 52 70 92 81 88 95 100 100 100 100 100 100 100 100 100 100 100 100 100 100 100 100 100 100 100 100 100
84 89 99 100 100 100 100 100 100 100 100 100 100 99 100 84 61 21 70 19 62 73 87 87 92 90 100 98 98 90 100 100 82 100 99 100 100 100 100 100 100 100 100
100 100 100 100 100 100 100 100 100 100 100 99 87 88 100 95 84 74 81 99 99 61 92 100 100 100 100 100 99 100 99 98 92 78 76 84 92 99 100 100 100 100 100
100 100 100 100 100 100 100 100 100 100 97 100 100 100 99 100 100 100 100 100 100 100 100 100 100 99 92 93 98 98 97 98 87 83 73 100 100 100 100 100 100 100 100
100 100 100 100 100 100 100 100 100 100 100 100 100 100 100 100 100 100 100 100 100 100 100 99 98 92 79 99 96 96 99 99 94 87 95 99 100 100 100 100 100 100 100
100 100 100 100 100 100 100 100 100 100 100 100 100 100 100 100 100 100 100 100 100 100 100 100 100 99 94 60 100 100 100 89 100 99 98 100 99 100 100 100 100 100 100
100 100 100 100 100 100 100 100 100 100 100 100 100 100 100 100 100 100 100 100 100 100 100 100 100 100 100 100 100 100 100 100 100 100 98 75 100 100 100 100 100 100 100
100 100 100 100 100 100 100 100 100 100 100 100 100 100 100 100 100 100 100 100 100 100 100 100 100 100 100 100 100 100 97 100 100 99 98 99 100 100 100 100 100 100 100
90 100 100 100 100 100 100 100 100 100 100 100 100 100 100 100 100 100 100 100 84 78 86 100 100 94 72 96 100 100 100 100 100 100 100 100 100 100 100 100 100 100 100
100 100 100 100 100 97 99 96 100 100 36 8 90 100 100 100 100 100 100 100 90 60 92 100 100 100 94 85 70 90 96 99 100 100 100 100 100 100 100 100 100 100 100
100 84 100 82 96 92 99 100 100 100 100 100 99 97 100 100 100 100 100 100 100 96 97 100 100 100 100 100 100 100 100 100 100 100 100 100 100 100 100 100 100 100 100
85 95 72 72 89 84 100 100 100 100 100 100 100 95 100 100 100 100 100 100 100 100 100 100 100 100 100 100 100 100 100 100 100 100 100 100 100 100 100 100 100 100 100
79 99 94 100 99 100 95 68 54 60 80 93 100 91 91 100 100 100 100 100 100 100 100 100 100 100 100 100 100 100 100 100 100 100 100 100 100 100 100 100 100 100 100
100 100 100 100 100 100 100 100 79 19 21 46 94 79 100 100 100 100 100 100 100 100 100 100 100 100 100 100 100 100 100 100 100 100 100 100 100 100 100 100 100 100 100
100 100 100 100 100 100 100 100 100 52 6 11 89 87 86 100 100 100 100 100 100 100 100 100 100 100 100 100 100 100 100 100 100 100 100 100 100 100 100 100 100 100 100
100 100 100 100 100 100 100 100 100 100 89 100 100 100 90 100 100 100 100 100 100 100 100 100 100 100 100 100 100 100 100 100 100 100 100 100 100 100 100 100 100 100 100
100 100 100 100 100 100 100 100 100 73 19 100 100 100 100 100 100 100 100 100 100 100 100 100 100 100 100 100 100 100 100 100 100 100 100 100 100 100 100 100 100 100 100
100 100 100 100 100 100 100 88 77 98 100 100 100 100 100 100 100 100 100 100 100 100 100 100 100 100 100 100 100 100 100 100 100 100 100 100 100 100 100 100 100 100 100
100 100 100 83 92 72 74 96 100 100 100 100 100 100 100 100 100 100 100 100 100 100 100 100 100 100 100 100 92 100 100 100 100 100 100 100 100 100 100 100 100 100 100